[[{"header":{"parameterUnit":"m.s-1","parameterCategory":1,"la1":30.6,"la2":29.2853,"lo1":-89.7004,"lo2":-87.6739,"dy":0.0162,"dx":0.0183,"nx":112,"ny":82,"refTime":"2024-06-17T18:00:00:Z","depth":0,"parameterNumber":2,"parameterNumberName":"U-component_of_WINDS"},"data":[0.0,0.0,0.0,0.0,0.0,0.0,0.0,0.0,0.0,0.0,0.0,0.0,0.0,0.0,0.0,0.0,0.0,0.0,0.0,0.0,0.0,0.0,0.0,0.0,0.0,0.0,0.0,0.0,0.0,0.0,0.0,0.0,0.0,0.0,0.0,0.0,0.0,0.0,0.0,0.0,0.0,0.0,0.0,0.0,0.0,0.0,0.0,0.0,0.0,0.0,0.0,0.0,0.0,0.0,0.0,0.0,0.0,0.0,0.0,0.0,0.0,0.0,0.0,0.0,0.0,0.0,0.0,0.0,0.0,0.0,0.0,0.0,0.0,0.0,0.0,0.0,0.0,0.0,0.0,0.0,0.0,0.0,0.0,0.0,0.0,0.0,0.0,0.0,0.0,0.0,0.0251,-0.0251,-0.0124,0.0,0.0,0.0,0.0,0.0,0.0,0.0,0.0,0.0,0.0,0.0,0.0,0.0,0.0,0.0,0.0,0.0,0.0,0.0,0.0,0.0,0.0,0.0,0.0,0.0,0.0,0.0,0.0,0.0,0.0,0.0,0.0,0.0,0.0,0.0,0.0,0.0,0.0,0.0,0.0,0.0,0.0,0.0,0.0,0.0,0.0,0.0,0.0,0.0,0.0,0.0,0.0,0.0,0.0,0.0,0.0,0.0,0.0,0.0,0.0,0.0,0.0,0.0,0.0,0.0,0.0,0.0,0.0,0.0,0.0,0.0,0.0,0.0,0.0,0.0,0.0,0.0,0.0,0.0,0.0,0.0,0.0,0.0,0.0,0.0,0.0,0.0,0.0,0.0,0.0,0.0,0.0,0.0,0.0,0.0,0.0,0.0,0.0,0.0,0.0,0.0,0.0,0.0,0.0,0.0,0.0,0.0,0.0,0.0,-0.2258,-0.1746,-0.0669,0.0,0.0,0.0,0.0,0.0,0.0,0.0,0.0,0.0,0.0,0.0,0.0,0.0,0.0,0.0,0.0,0.0,0.0,0.0,0.0,0.0,0.0,0.0,0.0,0.0,0.0,0.0,0.0,0.0,0.0,0.0,0.0,0.0,0.0,0.0,0.0,0.0,0.0,0.0,0.0,0.0,0.0,0.0,0.0,0.0,0.0,0.0,0.0,0.0,0.0,0.0,0.0,0.0,0.0,0.0,0.0,0.0,0.0,0.0,0.0,0.0,0.0,0.0,0.0,0.0,0.0,0.0,0.0,0.0,0.0,0.0,0.0,0.0,0.0,0.0,0.0,0.0,0.0,0.0,0.0,0.0,0.0,0.0,0.0,0.0,0.0,0.0,0.0,0.0,0.0,0.0,0.0,0.0,0.0,0.0,0.0,0.0,0.0,0.0,0.0,0.0,0.0,0.0,0.0,0.0,0.0,0.0,0.0,-0.2695,-0.3193,-0.3182,-0.1996,-0.1183,-0.1183,-0.0454,0.0,0.0,0.07,0.0,0.0,0.0,0.0,0.0,0.0,0.0,0.0,0.0,0.0,0.0,0.0,0.0,0.0,0.0,0.0,0.0,0.0,0.0,0.0,0.0,0.0,0.0,0.0,0.0,0.0,0.0,0.0,0.0,0.0,0.0,0.0,0.0,0.0,0.0,0.0,0.0,0.0,0.0,0.0,0.0,0.0,0.0,0.0,0.0,0.0,0.0,0.0,0.0,0.0,0.0,0.0,0.0,0.0,0.0,0.0,0.0,0.0,0.0,0.0,0.0,0.0,0.0,0.0,0.0,0.0,0.0,0.0,0.0,0.0,0.0,0.0,0.0,0.0,0.0,0.0,0.0,0.0,0.0,0.0,0.0,0.0,0.0,0.0,0.0,0.0,0.0,0.0,0.0,0.0,0.0,0.0,0.0,0.0,0.0,0.0,0.0,0.0,0.0,0.0,0.0,0.0,-0.3648,-0.4198,-0.4688,-0.3512,-0.2551,-0.2233,-0.1125,-0.0342,-0.002,0.0534,0.0,0.0,0.0,0.0,0.0,0.0,0.0,0.0,0.0,0.0,0.0,0.0,0.0,0.0,0.0,0.0,0.0,0.0,0.0,0.0,0.0,0.0,0.0,0.0,0.0,0.0,0.0,0.0,0.0,0.0,0.0,0.0,0.0,0.0,0.0,0.0,0.0,0.0,0.0,0.0,0.0,0.0,0.0,0.0,0.0,0.0,0.0,0.0,0.0,0.0,0.0,0.0,0.0,0.0,0.0,0.0,0.0,0.0,0.0,0.0,0.0,0.0,0.0,0.0,0.0,0.0,0.0,0.0,0.0,0.0,0.0,0.0,0.0,0.0,0.0,0.0,0.0,0.0,0.0,0.0,0.0,0.0,0.0,0.0,0.0,0.0,0.0,0.0,0.0,0.0,0.0,0.0,0.0,0.0,0.0,0.0,0.0,0.0,0.0,0.0,0.0,0.0,-0.6213,-0.6142,-0.6312,-0.4981,-0.3554,-0.2312,-0.1999,-0.1324,-0.0079,0.0053,0.0,0.0,0.0,0.0,0.0,0.0,0.0,0.0,0.0,0.0,0.0,0.0,0.0,0.0,0.0,0.0,0.0,0.0,0.0,0.0,0.0,0.0,0.0,0.0,0.0,0.0,0.0,0.0,0.0,0.0,0.0,0.0,0.0,0.0,0.0,0.0,0.0,0.0,0.0,0.0,0.0,0.0,0.0,0.0,0.0,0.0,0.0,0.0,0.0,0.0,0.0,0.0,0.0,0.0,0.0,0.0,0.0,0.0,0.0,0.0,0.0,0.0,0.0,0.0,0.0,0.0,0.0,0.0,0.0,0.0,0.0,0.0,0.0,0.0,0.0,0.0,0.0,0.0,0.0,0.0,0.0,0.0,0.0,0.0,0.0,0.0,0.0,0.0,0.0,0.0,0.0,0.0,0.0,0.0,0.0,0.0,0.0,0.0,0.0,0.0,0.0,0.0,-0.6656,-0.7315,0.0,-0.6598,-0.5527,-0.4937,-0.3179,-0.187,-0.1285,0.0,0.0,0.0,0.0,0.0,0.0,0.0,0.0,0.0,0.0,0.0,0.0,0.0,0.0,0.0,0.0,0.0,0.0,0.0,0.0,0.0,0.0,0.0,0.0,0.0,0.0,0.0,0.0,0.0,0.0,0.0,0.0,0.0,0.0,0.0,0.0,0.0,0.0,0.0,0.0,0.0,0.0,0.0,0.0,0.0,0.0,0.0,0.0,0.0,0.0,0.0,0.0,0.0,0.0,0.0,0.0,0.0,0.0,0.0,0.0,0.0,0.0,0.0,0.0,0.0,0.0,0.0,0.0,0.0,0.0,0.0,0.0,0.0,0.0,0.0,0.0,0.0,0.0,0.0,0.0,0.0,0.0,0.0,0.0,0.0,0.0,0.0,0.0,0.0,0.0,0.0,0.0,0.0,0.0,0.0,0.0,0.0,0.0,0.0,0.0,0.0,0.0,-0.6041,-0.7142,-0.8113,0.0,-0.7919,-0.7109,-0.6558,-0.4243,-0.2589,-0.2033,0.0,0.0,0.0,0.0,0.0,0.0,0.0,0.0,0.0,0.0,0.0,0.0,0.0,0.0,0.0,0.0,0.0,0.0,0.0,0.0,0.0,0.0,0.0,0.0,0.0,0.0,0.0,0.0,0.0,0.0,0.0,0.0,0.0,0.0,0.0,0.0,0.0,0.0,0.0,0.0,0.0,0.0,0.0,0.0,0.0,0.0,0.0,0.0,0.0,0.0,0.0,0.0,0.0,0.0,0.0,0.0,0.0,0.0,0.0,0.0,0.0,0.0,0.0,0.0,0.0,0.0,0.0,0.0,0.0,0.0,0.0,0.0,0.0,0.0,0.0,0.0,0.0,0.0,0.0,0.0,0.0,0.0,0.0,0.0,0.0,0.0,0.0,0.0,0.0,0.0,0.0,0.0,0.0,0.0,0.0,0.0,0.0,0.0,0.0,0.0,0.0,0.0,-0.7024,-0.7929,-0.8608,-0.8885,-0.8777,-0.8113,-0.6637,-0.5103,-0.3599,0.0,0.0,0.0,0.0,0.0,0.0,0.0,0.0,0.0,0.0,0.0,0.0,0.0,0.0,0.0,0.0,0.0,0.0,0.0,0.0,0.0,0.0,0.0,0.0,0.0,0.0,0.0,0.0,0.0,0.0,0.0,0.0,0.0,0.0,0.0,0.0,0.0,0.0,0.0,0.0,0.0,0.0,0.0,0.0,0.0,0.0,0.0,0.0,0.0,0.0,0.0,0.0,0.0,0.0,0.0,0.0,0.0,0.0,0.0,0.0,0.0,0.0,0.0,0.0,0.0,0.0,0.0,0.0,0.0,0.0,0.0,0.0,0.0,0.0,0.0,0.0,0.0,0.0,0.0,0.0,0.0,0.0,0.0,0.0,0.0,0.0,0.0,0.0,0.0,0.0,0.0,0.0,0.0,0.0,0.0,0.0,0.0,0.0,0.0,0.0,0.0,0.0,0.0,-0.7373,-0.8223,-0.8892,-0.9218,-0.9145,-0.8822,-0.8238,-0.6739,-0.5171,-0.3637,0.0,0.0,0.0,0.0,0.0,0.0,0.0,0.0,0.0,0.0,0.0,0.0,0.0,0.0,0.0,0.0,0.0,0.0,0.0,0.0,0.0,0.0,0.0,0.0,0.0,0.0,0.0,0.0,0.0,0.0,0.0,0.0,0.0,0.0,0.0,0.0,0.0,0.0,0.0,0.0,0.0,0.0,0.0,0.0,0.0,0.0,0.0,0.0,0.0,0.0,0.0,0.0,0.0,0.0,0.0,0.0,0.0,0.0,0.0,0.0,0.0,0.0,0.0,0.0,0.0,0.0,0.0,0.0,0.0,0.0,0.0,0.0,0.0,0.0,0.0,0.0,0.0,0.0,0.0,0.0,0.0,0.0,0.0,0.0,0.0,0.0,0.0,0.0,0.0,0.0,0.0,0.0,0.0,0.0,0.0,0.0,0.0,0.0,0.0,0.0,0.0,0.0,-0.7572,-0.8869,-0.9684,-0.9434,-0.9328,-0.9192,-0.8926,-0.7473,-0.6095,-0.4917,0.0,0.0,0.0,0.0,0.0,0.0,0.0,0.0,0.0,0.0,0.0,0.0,0.0,0.0,0.0,0.0,0.0,0.0,0.0,0.0,0.0,0.0,0.0,0.0,0.0,0.0,0.0,0.0,0.0,0.0,0.0,0.0,0.0,0.0,0.0,0.0,0.0,0.0,0.0,0.0,0.0,0.0,0.0,0.0,0.0,0.0,0.0,0.0,0.0,0.0,0.0,0.0,0.0,0.0,0.0,0.0,0.0,0.0,0.0,0.0,0.0,0.0,0.0,0.0,0.0,0.0,0.0,0.0,0.0,0.0,0.0,0.0,0.0,0.0,0.0,0.0,0.0,0.0,0.0,0.0,0.0,0.0,0.0,0.0,0.0,0.0,0.0,0.0,0.0,0.0,0.0,0.0,0.0,0.0,0.0,0.0,0.0,0.0,0.0,0.0,0.0,0.0,-0.7998,-0.9982,-1.0983,-0.9815,-0.9691,-0.9479,-0.8994,-0.7699,-0.66,-0.5923,0.0,0.0,0.0,0.0,0.0,0.0,0.0,0.0,0.0,0.0,0.0,0.0,0.0,0.0,0.0,0.0,0.0,0.0,0.0,0.0,0.0,0.0,0.0,0.0,0.0,0.0,0.0,0.0,0.0,0.0,0.0,0.0,0.0,0.0,0.0,0.0,0.0,0.0,0.0,0.0,0.0,0.0,0.0,0.0,0.0,0.0,0.0,0.0,0.0,0.0,0.0,0.0,0.0,0.0,0.0,0.0,0.0,0.0,0.0,0.0,-0.6338,0.0,0.0,0.0,0.0,0.0,0.0,0.0,0.0,0.0,0.0,0.0,0.0,0.0,0.0,0.0,0.0,0.0,0.0,0.0,0.0,0.0,0.0,0.0,0.0,0.0,0.0,0.0,0.0,0.0,0.0,0.0,0.0,0.0,0.0,0.0,0.0,0.0,0.0,0.0,0.0,0.0,-1.0245,-1.2496,-1.3476,-1.2081,-1.1823,-1.1118,-0.9593,-0.883,-0.7881,-0.659,-0.5561,0.0,0.0,0.0,0.0,0.0,0.0,0.0,0.0,0.0,0.0,0.0,0.0,0.0,0.0,0.0,0.0,0.0,0.0,0.0,0.0,0.0,0.0,0.0,0.0,0.0,0.0,0.0,0.0,0.0,0.0,0.0,0.0,0.0,0.0,0.0,0.0,0.0,0.0,0.0,0.0,0.0,0.0,0.0,0.0,0.0,0.0,0.0,0.0,0.0,0.0,0.0,0.0,0.0,0.0,0.0,0.0,0.0,0.0,0.0,0.0,-0.8448,0.0,0.0,0.0,0.0,0.0,0.0,0.0,0.0,0.0,0.0,0.0,0.0,0.0,0.0,0.0,0.0,0.0,0.0,0.0,0.0,0.0,0.0,0.0,0.0,0.0,0.0,0.0,0.0,0.0,0.0,0.0,0.0,0.0,0.0,0.0,0.0,0.0,0.0,0.0,0.0,-1.1138,-1.3915,-1.5378,-1.4133,-1.3789,-1.3232,-1.2179,-1.099,-0.9856,-0.8783,-0.7094,0.0,0.0,0.0,0.0,0.0,0.0,0.0,0.0,0.0,0.0,0.0,0.0,0.0,0.0,0.0,0.0,0.0,0.0,0.0,0.0,0.0,0.0,0.0,0.0,0.0,0.0,0.0,0.0,0.0,0.0,0.0,0.0,0.0,0.0,0.0,0.0,0.0,0.0,0.0,0.0,0.0,0.0,0.0,0.0,0.0,0.0,0.0,0.0,0.0,0.0,0.0,0.0,0.0,-2.5027,-2.6101,-2.6338,-2.5683,-2.6258,-2.7211,-1.8708,-1.5814,-1.6744,-1.1371,0.0,0.0,0.0,0.0,0.0,0.0,0.0,0.0,0.0,0.0,0.0,0.0,0.0,0.0,0.0,0.0,0.0,0.0,0.0,0.0,0.0,0.0,-1.9497,-2.0084,-2.0338,-1.9234,-1.4746,0.0,0.0,0.0,0.0,0.0,0.0,0.0,0.0,0.0,0.0,0.0,-1.2255,-1.5397,-1.7218,-1.6114,-1.574,-1.5358,-1.4879,-1.3294,-1.2084,-1.1495,-0.9046,-0.725,0.0,0.0,0.0,0.0,0.0,0.0,0.0,0.0,0.0,0.0,0.0,0.0,0.0,0.0,0.0,0.0,0.0,0.0,0.0,0.0,0.0,0.0,0.0,0.0,0.0,0.0,0.0,0.0,0.0,0.0,0.0,0.0,-0.8204,-0.9665,0.0,0.0,0.0,0.0,0.0,0.0,0.0,0.0,0.0,0.0,0.0,0.0,0.0,-2.0961,-2.3794,-2.7894,-2.9952,-2.9935,-3.2544,-3.3661,-3.3304,-3.1687,-3.1076,-3.1231,-2.9864,0.0,-2.3963,-2.1248,0.0,0.0,0.0,0.0,0.0,0.0,0.0,0.0,0.0,0.0,0.0,0.0,0.0,0.0,0.0,0.0,0.0,0.0,0.0,0.0,0.0,0.0,-2.5104,-2.5078,-2.5254,-2.512,-2.3884,-1.809,-1.2846,-1.1958,-1.1369,0.0,0.0,0.0,0.0,0.0,0.0,0.0,-1.5897,-1.8471,-1.9645,-1.8097,-1.7875,-1.7078,-1.5135,-1.462,-1.4198,-1.3724,-1.27,-1.1088,-0.8754,-0.7973,0.0,0.0,0.0,0.0,0.0,0.0,0.0,0.0,0.0,0.0,0.0,0.0,0.0,0.0,0.0,0.0,0.0,0.0,0.0,0.0,0.0,0.0,0.0,0.0,0.0,0.0,0.0,0.0,0.0,-0.9419,-1.1458,-1.1907,-1.2129,-1.1879,0.0,0.0,0.0,0.0,0.0,0.0,0.0,0.0,0.0,-2.5626,-2.5569,-2.773,-3.2506,-3.425,-3.5702,-3.6848,-3.8274,-3.8975,-3.8975,-3.7966,-3.7381,-3.716,-3.6883,-3.5412,-3.2771,-2.7474,-2.4142,-2.2187,0.0,0.0,0.0,0.0,-2.1854,-2.3166,-2.4456,-2.4698,-2.4079,-2.2173,0.0,0.0,0.0,0.0,0.0,0.0,0.0,-2.3806,-2.6346,-2.7706,-2.8702,-2.9898,-2.9555,-2.8834,-2.8363,-2.4563,-2.0241,-1.6864,-1.542,-1.4023,-1.1815,0.0,0.0,0.0,0.0,-1.6262,-1.7194,-1.9288,-2.0486,-1.9928,-1.9738,-1.9268,-1.8281,-1.7016,-1.6124,-1.5865,-1.4451,-1.2999,-1.1643,-1.1008,-0.9696,0.0,0.0,0.0,0.0,0.0,0.0,0.0,0.0,0.0,0.0,0.0,0.0,0.0,0.0,0.0,0.0,0.0,0.0,0.0,0.0,0.0,0.0,0.0,0.0,0.0,0.0,0.0,0.0,-1.2724,-1.4681,-1.465,-1.5742,-1.5987,0.0,0.0,0.0,0.0,0.0,0.0,-2.0784,-2.3029,-2.6505,-3.132,-3.1593,-3.4322,-3.9845,-3.9464,-4.0107,-4.1816,-4.2129,-4.2441,-4.2694,-4.2324,-4.1953,-4.168,-4.1191,-4.0644,-3.9521,-3.3002,-2.9851,-2.896,-2.6777,-2.6294,-2.6867,-2.7715,-2.8558,-2.948,-3.0802,-3.0833,-2.993,-2.7936,-2.6985,-2.6296,-2.4418,0.0,0.0,0.0,0.0,-2.7488,-3.0396,-3.1215,-3.1709,-3.3475,-3.291,-3.1852,-3.1569,-2.9956,-2.7063,-2.2028,-2.0188,-1.8435,-1.5196,0.0,0.0,0.0,0.0,-1.761,-1.8319,-1.9819,-2.0869,-2.1082,-2.0909,-2.0762,-2.0712,-1.9175,-1.8141,-1.7882,-1.6356,-1.5108,-1.4352,-1.3811,-1.2734,-1.1089,0.0,0.0,0.0,0.0,0.0,0.0,0.0,0.0,0.0,0.0,0.0,0.0,0.0,0.0,0.0,0.0,0.0,0.0,0.0,0.0,0.0,0.0,0.0,0.0,0.0,0.0,0.0,0.0,0.0,-1.8937,-2.0579,0.0,0.0,0.0,0.0,-2.1195,-2.2344,-2.3528,-2.4735,-2.7754,-3.1199,-3.5094,-3.7608,-4.0355,-4.3396,-4.3433,-4.3472,-4.3574,-4.3594,-4.3613,-4.3633,-4.3203,-4.3008,-4.299,-4.2519,-4.2265,-4.1991,-3.8744,-3.6249,-3.4428,-3.3451,-3.2156,-3.099,-3.2642,-3.3484,-3.4092,-3.5739,-3.6025,-3.5446,-3.4367,-3.1842,-2.9386,-3.0253,-2.8964,0.0,0.0,-3.0448,-3.1543,-3.4363,-3.4784,-3.4622,-3.5176,-3.4895,-3.4498,-3.4511,-3.2852,-3.0327,-2.6729,-2.5524,-2.4331,-2.193,0.0,-2.0584,-1.8842,-1.919,-1.9737,-2.004,-2.0659,-2.1096,-2.1109,-2.1096,-2.0975,-2.0726,-2.061,-2.0296,-1.9724,-1.9333,-1.834,-1.6601,-1.583,-1.4635,-1.2898,-1.1564,0.0,0.0,0.0,0.0,0.0,0.0,0.0,0.0,0.0,0.0,0.0,0.0,0.0,0.0,0.0,0.0,0.0,0.0,0.0,0.0,0.0,0.0,0.0,0.0,0.0,0.0,0.0,0.0,-2.159,-2.3054,0.0,-2.2191,-2.2825,-2.3545,-2.4062,-2.5197,-2.6293,-2.7295,-3.0267,-3.3265,-3.6262,-3.9039,-4.1667,-4.4141,-4.4414,-4.4551,-4.4551,-4.4551,-4.4551,-4.4551,-4.4394,-4.418,-4.3906,-4.3437,-4.3105,-4.2734,-4.1387,-4.0047,-3.8878,-3.7999,-3.7289,-3.6829,-3.7435,-3.777,-3.7958,-3.8547,-3.8437,-3.7919,-3.7002,-3.5501,-3.4168,-3.4547,-3.3852,-3.3143,-3.4141,-3.4586,-3.5022,-3.6288,-3.6504,-3.6406,-3.6582,-3.6484,-3.623,-3.5664,-3.4941,-3.389,-3.2081,-2.9206,-2.6594,-2.5212,-2.4952,-2.4218,-2.2068,-2.2249,-2.2318,-2.1482,-2.1408,-2.1422,-2.1422,-2.1229,-2.1069,-2.0962,-2.0601,-2.0227,-1.9826,-1.9345,-1.8597,-1.7572,-1.7277,-1.6683,-1.5716,-1.4836,-1.3478,0.0,0.0,0.0,0.0,0.0,0.0,0.0,0.0,0.0,0.0,0.0,0.0,0.0,0.0,0.0,0.0,0.0,0.0,0.0,0.0,0.0,0.0,0.0,0.0,0.0,0.0,-2.3126,-2.342,-2.4887,-2.5438,-2.4449,-2.5251,-2.6066,-2.6653,-2.7522,-2.8364,-2.9152,-3.2747,-3.5669,-3.754,-4.1145,-4.3836,-4.5469,-4.5742,-4.5879,-4.5879,-4.5879,-4.5879,-4.5879,-4.5586,-4.5312,-4.5019,-4.4414,-4.3984,-4.3691,-4.3105,-4.2539,-4.1953,-4.1074,-4.0664,-4.0527,-4.0527,-4.0449,-4.0312,-4.0156,-3.9902,-3.9531,-3.8828,-3.8223,-3.777,-3.7578,-3.7226,-3.6953,-3.7226,-3.7242,-3.7187,-3.7617,-3.7617,-3.75,-3.75,-3.7402,-3.7148,-3.6562,-3.6445,-3.623,-3.5508,-3.2561,-2.9795,-2.8522,-2.8251,-2.7269,-2.4407,-2.4701,-2.4451,-2.2279,-2.2358,-2.2397,-2.1794,-2.1462,-2.1256,-2.1256,-2.0722,-2.0307,-2.0107,-1.9452,-1.8905,-1.8476,-1.8076,-1.7702,-1.7327,-1.6551,-1.5211,-1.3346,0.0,0.0,0.0,0.0,0.0,0.0,0.0,0.0,0.0,0.0,0.0,0.0,0.0,0.0,0.0,0.0,0.0,0.0,0.0,0.0,0.0,0.0,0.0,-2.2432,-2.3475,-2.4578,-2.4777,-2.6397,-2.723,-2.6573,-2.7576,-2.85,-2.8988,-2.9366,-2.9806,-3.0413,-3.5251,-3.8434,-3.9175,-4.4152,-4.7059,-4.7578,-4.7578,-4.7578,-4.7578,-4.7578,-4.7578,-4.7558,-4.6719,-4.6348,-4.6289,-4.543,-4.5016,-4.4957,-4.4121,-4.375,-4.3652,-4.2773,-4.2168,-4.1816,-4.1816,-4.1562,-4.1133,-4.0684,-4.0508,-4.0469,-4.0078,-3.9922,-3.9824,-3.9375,-3.8945,-3.865,-3.865,-3.832,-3.8086,-3.8516,-3.8281,-3.7933,-3.7933,-3.7637,-3.7324,-3.7324,-3.7324,-3.7187,-3.6812,-3.5644,-3.4118,-3.2071,-3.1374,-2.986,-2.6069,-2.66,0.0,-2.2662,-2.3616,-2.3992,-2.2287,-2.1802,-2.1582,-2.1582,-2.1047,-2.0699,-2.0686,-1.9856,-1.9388,-1.9388,-1.8264,-1.7635,-1.7648,-1.6462,-1.5551,-1.488,0.0,0.0,0.0,0.0,0.0,0.0,0.0,0.0,0.0,0.0,0.0,0.0,0.0,0.0,0.0,0.0,0.0,0.0,0.0,0.0,0.0,0.0,-2.8401,-2.8541,-2.9933,-3.06,-2.9643,-3.0622,-3.0638,-2.8816,-2.9356,-2.9864,-2.998,-3.0707,-3.1189,-3.135,-3.4771,-3.7663,-3.9799,-4.2937,-4.5581,-4.7578,-4.7578,-4.7578,-4.7578,-4.7578,-4.7578,-4.7578,-4.7344,-4.7226,-4.7187,-4.6328,-4.5957,-4.5879,-4.5019,-4.4626,-4.447,-4.2967,-4.2323,-4.2266,-4.2266,-4.1992,-4.1562,-4.1133,-4.0996,-4.0976,-4.0898,-4.0605,-4.0332,-4.0195,-3.9863,-3.9531,-3.9531,-3.9453,-3.9375,-3.9512,-3.9199,-3.8848,-3.8848,-3.8535,-3.8144,-3.7812,-3.7754,-3.7637,-3.7207,-3.6582,-3.5763,-3.4571,-3.3973,-3.289,-3.0565,-3.0526,0.0,-2.725,-2.6016,-2.5092,-2.4342,-2.2646,-2.1582,-2.1582,-2.1047,-2.0525,-2.0067,-1.9412,-1.9052,-1.9052,-1.8531,-1.8343,-1.8544,-1.7796,-1.7118,0.0,0.0,0.0,0.0,0.0,0.0,0.0,0.0,0.0,0.0,0.0,0.0,0.0,0.0,0.0,0.0,0.0,0.0,0.0,0.0,0.0,0.0,-3.0587,-3.4325,-3.5898,-3.5236,-3.4382,-3.3819,-3.4435,-3.4429,-3.3235,-3.3575,-3.3929,-3.4077,-3.3733,-3.4036,-3.5224,-3.7077,-3.9289,-4.1893,-4.4505,-4.6633,-4.8125,-4.8151,-4.8151,-4.8151,-4.8151,-4.8151,-4.8151,-4.793,-4.7851,-4.7812,-4.7129,-4.6738,-4.6504,-4.584,-4.5449,-4.5156,0.0,0.0,0.0,0.0,-4.2168,-4.1758,-4.1523,-4.1328,-4.1211,-4.1211,-4.0996,-4.0801,-4.0801,-4.0508,-4.0156,-4.0156,-4.0039,-3.9902,-3.9902,-3.9687,-3.9453,-3.9258,-3.9004,-3.8711,-3.8281,-3.8203,-3.8066,-3.7637,-3.7363,0.0,-3.6309,-3.5527,-3.4398,-3.2603,-3.2844,-3.219,-2.9429,-2.8509,-2.7698,-2.6743,-2.5139,-2.3857,-2.3125,-2.2416,0.0,0.0,0.0,-1.9156,-1.8903,-1.8758,0.0,0.0,0.0,0.0,0.0,0.0,0.0,0.0,-1.7939,-1.817,0.0,0.0,0.0,0.0,0.0,0.0,0.0,0.0,0.0,0.0,0.0,0.0,0.0,0.0,0.0,0.0,-3.6848,-4.0957,-4.2949,-3.9739,-3.725,-3.7416,-3.7869,-3.8211,-3.8208,-3.8573,-3.8939,-3.9304,-3.76,-3.7648,-4.0193,0.0,0.0,0.0,0.0,-4.8459,-4.8459,-4.8755,-4.8913,-4.8913,-4.8913,-4.8913,-4.8894,-4.8457,-4.8281,-4.8262,-4.7832,-4.7422,-4.6987,-4.6562,-4.6094,-4.5629,-4.4785,-4.4199,-4.3691,-4.2871,-4.2305,-4.1933,-4.1836,0.0,0.0,-4.123,-4.1211,-4.1211,-4.1211,-4.0898,-4.0586,-4.0586,-4.0332,-4.0039,-4.0039,-4.0,-3.9863,-3.9453,-3.9316,-3.916,-3.8767,-3.8689,-3.8516,-3.8086,-3.7933,-3.7812,-3.7441,-3.6348,-3.5003,-3.3369,-3.4132,-3.3695,-3.0497,-3.096,-3.093,-2.9345,-2.8377,0.0,-2.5611,-2.4534,-2.3388,-2.1988,-2.0698,-1.9746,-1.917,-1.921,-1.9372,-1.9642,-1.9682,-2.0191,-2.1162,-2.1229,-2.1537,-2.2031,-1.9623,-1.9343,0.0,0.0,0.0,0.0,0.0,0.0,0.0,0.0,0.0,0.0,0.0,0.0,0.0,0.0,0.0,-3.3719,-3.8823,-4.2851,-4.3984,-4.3953,-4.2935,-4.0415,-4.0769,-4.0586,-3.9153,-3.9229,-3.9594,-4.0051,-3.9899,-4.0034,-4.0573,-4.0938,-4.1328,-4.1854,-4.4364,-4.5755,-4.5755,-4.7837,-4.8913,-4.8913,-4.8913,0.0,-4.8913,-4.8815,-4.8776,-4.8757,-4.8281,-4.8047,-4.7891,-4.7129,-4.6367,-4.5668,-4.5098,-4.4648,-4.4199,-4.3652,-4.3183,-4.2734,-4.2031,-4.1758,-4.1621,-4.1328,-4.1211,-4.1211,-4.1211,-4.1152,0.0,-4.1055,-4.1035,-4.0957,-4.0957,-4.0664,-4.0333,-4.0293,-4.0,-3.9629,-3.918,-3.9082,-3.8965,-3.8535,-3.8164,-3.7891,-3.7812,-3.7031,-3.6322,-3.5993,-3.5831,-3.5389,-3.437,-3.3191,-3.218,-3.1539,-2.983,-2.8478,-2.7818,-2.6076,-2.4642,-2.3733,-2.2151,-2.1087,-2.0695,-2.1149,-2.1341,-2.1167,-2.1395,-2.1502,-2.1502,-2.1937,-2.2352,-2.2706,-2.1924,-2.175,0.0,0.0,0.0,0.0,0.0,0.0,0.0,0.0,0.0,0.0,0.0,-2.1261,0.0,0.0,-3.305,-3.6914,-4.1056,-4.4043,-4.4922,-4.541,-4.5101,-4.348,-4.3965,-4.4086,-4.3135,-4.356,-4.3976,-4.4221,-4.3369,-4.3391,-4.4743,-4.3726,-4.3689,-4.4984,-4.6289,-4.6962,-4.6962,-4.8273,-4.8913,-4.8913,-4.8913,-4.8913,-4.8913,-4.8913,-4.8913,-4.8894,-4.8679,-4.8418,-4.8144,-4.724,-4.6635,-4.6269,-4.584,-4.5156,-4.4375,-4.4141,-4.3633,-4.3048,-4.2598,-4.2168,-4.1758,-4.1562,-4.1348,-4.1211,-4.1211,-4.1211,-4.1211,-4.1211,-4.1211,-4.1211,-4.1211,-4.1016,-4.0801,-4.0586,-4.0371,-4.0098,-3.9648,-3.9551,-3.9414,-3.8965,-3.8711,-3.8496,-3.8281,-3.7715,-3.7226,-3.7012,-3.6621,-3.6269,-3.6089,-3.4882,-3.3962,-3.3774,-3.2611,-3.1435,-3.0327,-2.7336,-2.4871,-2.3387,-2.2353,-2.1729,-2.155,-2.183,-2.1991,-2.1991,-2.2124,-2.2285,-2.2445,-2.2726,-2.302,-2.3348,-2.346,-2.3367,0.0,0.0,0.0,0.0,0.0,0.0,0.0,0.0,-1.8769,-2.1775,-2.1704,-2.2689,-2.7857,-3.1143,-3.476,-3.9843,-4.2909,-4.4922,-4.5683,-4.5844,-4.5844,-4.5844,-4.6465,-4.6928,-4.7051,-4.7754,-4.8242,-4.832,-4.6727,-4.6682,-4.8801,-4.6915,-4.6476,-4.8069,-4.8663,-4.8663,-4.8134,-4.8663,-4.8913,-4.8913,-4.8913,-4.8913,-4.8913,-4.8913,-4.8913,-4.8913,-4.8913,-4.8613,-4.8144,-4.7363,-4.6967,-4.685,-4.6465,-4.5625,-4.4629,-4.4551,-4.4023,-4.3342,-4.3185,-4.2617,-4.2031,-4.1953,-4.1641,-4.1328,-4.1328,-4.1269,-4.1211,-4.1211,-4.1211,-4.1211,-4.1211,-4.1211,-4.1074,-4.0742,-4.0644,-4.0527,-4.0117,-4.0019,-3.9883,-3.9434,-3.9258,-3.9101,-3.875,-3.834,-3.791,-3.748,-3.707,-3.6792,-3.6714,-3.6108,-3.5605,-3.5527,-3.5176,-3.4075,-3.187,-2.8101,-2.4931,-2.2787,-2.2815,-2.2712,-2.2358,-2.2692,-2.2835,-2.2672,-2.2686,-2.2926,-2.3407,-2.3492,-2.3701,-2.3955,-2.4543,-2.4489,-0.959,-1.0629,-1.3613,-1.6861,-1.842,-2.0471,0.0,0.0,-2.5082,-2.7286,-2.7807,-2.8778,-3.164,-3.4757,-3.7871,-4.08,-4.3693,-4.5703,-4.6172,-4.623,-4.623,-4.623,-4.6641,-4.709,-4.7461,-4.793,-4.8359,-4.8796,-4.8578,-4.8617,-4.8848,-4.8617,-4.7539,-4.552,-4.7698,-4.7791,-4.5473,-4.7744,-4.8913,-4.8913,-4.8913,-4.8913,-4.8913,-4.8913,-4.8913,-4.8913,-4.8913,-4.8613,-4.8164,-4.7695,-4.7285,-4.685,-4.6465,-4.5996,-4.5488,-4.5098,-4.4648,-4.4141,-4.3359,-4.3048,-4.2871,-4.248,-4.207,-4.1738,-4.1738,-4.1465,-4.1211,-4.1211,-4.1211,-4.1211,-4.1211,-4.1211,-4.1211,-4.1113,-4.1094,-4.0976,-4.0547,-4.0411,-4.0332,-3.9902,-3.9492,-3.918,-3.9141,-3.8789,-3.8359,-3.7874,-3.75,-3.709,-3.6753,-3.6616,-3.6387,-3.5996,-3.5898,-3.4308,-3.0477,-2.7798,-2.5548,-2.3762,-2.5176,-2.5322,-2.3673,-2.5197,-2.5316,-2.3691,-2.3656,-2.3696,-2.3763,-2.4235,-2.4466,-2.4519,-2.5106,-2.5066,-1.5172,-1.5617,-1.7055,-2.0849,-2.2692,-2.4255,-2.6853,-2.7108,-2.7281,-2.9005,-2.9606,-3.0588,-3.3116,-3.4919,-3.682,0.0,-4.2388,-4.4312,-4.4435,-4.4338,-4.4108,-4.3728,-4.2914,-4.3776,-4.7275,-4.7969,-4.8379,-4.8874,-4.8913,-4.8913,-4.8913,-4.8913,-4.8412,-4.7307,-4.832,-4.8366,-4.7307,-4.8366,-4.8913,-4.8913,-4.8913,-4.8913,-4.8913,-4.8913,-4.8913,-4.8913,-4.8913,-4.8796,-4.8581,-4.7851,-4.748,-4.7246,-4.6562,-4.6191,-4.5996,-4.5566,-4.498,-4.4355,-4.3965,-4.3516,-4.3087,-4.2871,-4.2344,-4.1797,-4.1797,-4.1504,-4.1211,-4.1211,-4.1211,-4.1211,-4.1211,-4.1211,-4.1211,-4.1211,-4.1211,-4.1172,-4.0937,-4.0898,-4.0781,-4.0332,-4.0098,-3.9805,-3.9297,-3.9062,-3.8789,-3.8359,-3.793,-3.7598,-3.7422,-3.7187,-3.6875,-3.6445,-3.6172,-3.4876,-3.2052,-3.0736,-2.9273,-2.7492,-2.7903,-2.7862,-2.7081,-2.6768,-2.6298,-2.5669,-2.4747,-2.4356,-2.4566,-2.4943,-2.5106,-2.5119,-2.5571,-2.5677,-1.7513,-1.8436,-1.9635,-2.3454,-2.5687,-2.7068,-2.7871,-2.8163,-2.8657,-2.99,-3.0327,-3.1076,-3.293,-3.4179,-3.5547,-3.751,-4.0298,-4.22,-4.2109,-4.1822,-4.1444,-4.0939,-3.9645,-4.0507,-4.4838,-4.644,-4.7615,-4.8652,-4.8835,-4.8913,-4.8913,-4.8913,-4.8913,-4.8913,-4.8913,-4.8913,-4.8913,-4.8913,-4.8913,-4.8913,-4.8913,-4.8913,-4.8913,-4.8913,-4.8913,-4.8913,-4.8913,-4.8913,-4.8855,-4.8066,-4.7676,-4.75,-4.6758,-4.6406,-4.6269,-4.5957,-4.5312,-4.4551,-4.4433,-4.3887,-4.3242,-4.3242,-4.2754,-4.2129,-4.2012,-4.168,-4.1328,-4.125,-4.1211,-4.1211,-4.1211,-4.1211,-4.1211,-4.1211,-4.1211,-4.1211,-4.1211,-4.1211,-4.1113,-4.0762,-4.0605,-4.0274,-3.9687,-3.9473,-3.9238,-3.8809,-3.8476,-3.8147,-3.7913,-3.7559,-3.7187,-3.691,-3.6093,-3.5032,-3.367,-3.2841,-3.1826,-3.0439,-3.012,-2.9726,-2.9201,-2.7843,-2.6932,-2.659,-2.5446,-2.4983,-2.5197,-2.5491,-2.5638,-2.5638,-2.5984,-2.6158,-1.399,-1.6803,-1.9973,-2.3202,-2.6098,-2.8433,-2.9566,-2.9847,-3.002,-3.0635,-3.0768,-3.0828,-3.0874,-3.3094,-3.4996,-3.5371,-3.7721,-3.9521,-3.9521,-3.8985,-3.8628,-3.8611,-3.8103,-3.8191,0.0,-4.2647,-4.5696,-4.804,-4.8613,-4.8913,-4.8913,-4.8913,-4.8913,-4.8913,-4.8913,-4.8913,-4.8913,-4.8913,-4.8913,-4.8913,-4.8913,-4.8913,-4.8913,-4.8913,-4.8913,-4.8913,-4.8913,-4.8913,-4.8874,-4.8379,-4.7949,-4.7539,-4.709,-4.666,-4.6308,-4.6289,-4.5742,-4.4941,-4.4551,-4.4082,-4.3691,-4.3691,-4.3398,-4.2969,-4.2539,-4.2109,-4.1699,-4.1328,-4.1211,-4.1211,-4.1211,-4.1211,-4.1211,-4.1211,-4.1211,-4.1211,-4.1211,-4.1211,-4.1211,-4.1191,-4.082,-4.0469,-4.0488,-4.0156,-3.9726,-3.9258,-3.918,-3.8867,-3.7991,-3.7559,-3.7285,-3.7285,-3.5631,-3.4522,-3.445,-3.2734,-3.1586,-3.1549,-3.1406,-3.0525,-2.8716,-2.8455,-2.747,-2.5579,-2.5516,-2.5491,-2.5504,-2.5837,-2.5984,-2.5984,-2.6239,-2.6533,-1.7132,-1.9995,-2.3237,-2.6294,-2.806,-2.9236,-2.978,-3.0074,-3.0207,-3.0207,-3.0207,-3.0154,-2.9953,-3.0817,-3.1819,-3.2482,-3.5146,-3.7195,-3.727,-3.7163,-3.6684,-3.5657,-3.4439,0.0,0.0,0.0,0.0,-4.5668,-4.7431,-4.8555,-4.8894,-4.8913,-4.9031,-4.9297,-4.907,-4.905,-4.9297,-4.9297,-4.916,-4.8913,-4.8913,-4.8913,-4.8913,-4.8913,-4.8913,-4.8913,-4.8913,-4.8913,-4.8874,-4.8379,-4.7969,-4.7539,-4.709,-4.668,-4.6308,-4.6308,-4.5937,-4.5391,-4.4961,-4.4336,-4.3711,-4.3711,-4.3418,-4.2988,-4.2558,-4.2129,-4.1719,-4.1289,-4.1211,-4.1211,-4.1211,-4.1211,-4.1211,-4.1211,-4.1211,-4.1211,-4.1211,-4.1211,-4.1211,-4.1211,-4.1055,-4.0859,-4.0528,-4.041,-4.0156,-3.9726,-3.916,-3.8691,-3.8398,-3.7988,-3.7715,-3.7715,-3.691,-3.6382,-3.6382,-3.5759,-3.5383,-3.5383,-3.409,-3.3023,-3.2351,-2.9806,-2.8079,-2.7438,-2.6383,-2.585,-2.585,-2.6145,-2.6346,-2.6533,-2.6627,-2.6841,-2.1563,-2.4637,-2.7524,-2.8751,-3.0079,-3.0948,-3.038,-3.0207,-3.0087,-2.9686,-2.9352,-2.9005,-2.8604,-2.8684,-2.9427,-3.1364,-3.3722,-3.5446,-3.5899,-3.5979,-3.5326,-3.355,-3.2244,-3.2013,0.0,0.0,0.0,-4.4165,-4.601,-4.7596,-4.8848,-4.8913,-4.9062,-4.9512,-4.9258,-4.9316,-4.9766,-4.9766,-4.9531,-4.9101,-4.8991,-4.8913,-4.8913,-4.8913,-4.8913,-4.8913,-4.8913,-4.8913,-4.8874,-4.8555,-4.8183,-4.7754,-4.7324,-4.6894,-4.6504,-4.6367,-4.6035,-4.5605,-4.5176,-4.4551,-4.3926,-4.375,-4.3516,-4.3223,-4.2793,-4.2363,-4.1933,-4.1523,-4.1328,-4.1211,-4.1211,-4.1211,-4.1211,-4.1211,-4.1211,-4.1211,-4.1211,-4.1211,-4.1211,-4.1211,-4.1211,-4.1074,-4.0801,-4.0625,-4.0391,-4.0156,-3.9512,-3.8984,-3.8865,-3.8418,-3.8164,-3.8164,-3.791,-3.7754,-3.7754,-3.7754,-3.7754,-3.7754,-3.5846,-3.4393,-3.3606,-3.0488,-2.8418,-2.7707,-2.666,-2.6198,-2.6305,-2.6453,-2.6694,-2.6987,-2.6987,-2.7134,-2.6501,-3.0101,-3.2493,-3.0566,-3.2151,-3.3635,-3.1551,-3.0533,-2.9851,-2.9175,-2.8245,-2.7388,0.0,0.0,-2.7988,-3.1627,-3.3172,-3.4231,-3.5306,-3.5326,-3.4421,0.0,0.0,0.0,0.0,0.0,0.0,-4.315,0.0,-4.5924,-4.857,-4.8709,-4.897,-4.9504,-4.9465,-4.9707,-5.0223,-5.0184,-4.9922,-4.9531,-4.9062,-4.8913,-4.8913,-4.8913,-4.8913,-4.8913,-4.8913,-4.8913,-4.8913,-4.8913,-4.8594,-4.8164,-4.7754,-4.7305,-4.6831,-4.6465,-4.6055,-4.5644,-4.5215,-4.4766,-4.4316,-4.3848,-4.3711,-4.3633,-4.3203,-4.2793,-4.2323,-4.1953,-4.1543,-4.1269,-4.125,-4.125,-4.125,-4.1211,-4.1211,-4.1211,-4.1211,-4.1211,-4.1211,-4.1211,-4.1211,-4.1211,-4.1211,-4.084,-4.0566,-4.0566,-4.0195,-3.9766,-3.9297,-3.8887,-3.8689,-3.8689,-3.865,-3.865,-3.8669,-3.865,-3.863,-3.865,-3.6664,-3.4601,-3.2581,-3.0515,-2.8466,-2.6453,-2.6413,-2.656,-2.6841,-2.6841,-2.7001,-2.7322,-2.7322,-2.7483,-2.6871,-3.0874,-3.5403,-3.3324,-3.4731,-3.6298,-3.5111,-3.3067,-3.1159,-3.0037,-2.7808,-2.5692,0.0,0.0,0.0,-2.8386,-3.0467,0.0,-3.3244,-3.3649,0.0,-3.2268,0.0,-3.2425,-3.2131,-3.3062,0.0,0.0,-4.0532,-4.2902,-4.583,-4.599,-4.7206,-4.9933,-4.9375,-4.9394,-5.0176,-4.9578,-4.9297,-4.9531,-4.9062,-4.8913,-4.8913,-4.8913,-4.8913,-4.8913,-4.8913,-4.8913,-4.8913,-4.8913,-4.8594,-4.8164,-4.7754,-4.7305,-4.6831,-4.6465,-4.623,-4.6074,-4.5664,-4.5019,-4.4316,-4.3848,-4.3711,-4.3633,-4.3203,-4.3008,-4.2832,-4.2383,-4.2187,-4.2031,-4.1719,-4.1641,-4.1562,-4.1289,-4.1211,-4.1211,-4.1211,-4.1211,-4.1211,-4.1211,-4.1211,-4.1211,-4.1211,-4.1113,-4.1016,-4.1016,-4.0644,-4.0215,-3.9766,-3.9629,-3.9551,-3.9551,-3.9258,-3.918,-3.9531,-3.8945,-3.8747,-3.9023,-3.6812,-3.4601,-3.2581,-3.0515,-2.8567,-2.6747,-2.6707,-2.6854,-2.7148,-2.7148,-2.7308,-2.7589,-2.7589,-2.7791,-2.9534,-3.3978,-3.8346,-3.4858,-3.5817,-3.7142,-3.5392,-3.216,-2.922,-2.8125,-2.58,-2.3771,-2.3134,-2.4118,-2.5834,0.0,0.0,0.0,-3.3532,-3.4346,-3.4288,0.0,-3.2973,0.0,-3.2706,-3.2973,-3.3791,0.0,-3.7679,-4.0349,-4.3197,-4.3418,-4.5066,-4.8365,-4.7979,-4.8499,-5.0176,-4.9492,-4.9277,-4.9531,-4.9062,-4.8913,-4.8913,-4.8913,-4.8913,-4.8913,-4.8913,-4.8913,-4.8913,-4.8913,-4.8757,-4.8437,-4.7812,-4.7441,-4.7129,-4.6523,-4.6308,-4.623,-4.582,-4.5371,-4.4844,-4.4219,-4.3867,-4.3652,-4.3418,-4.3223,-4.3068,-4.2773,-4.2578,-4.2323,-4.2129,-4.207,-4.1973,-4.1543,-4.1445,-4.1387,-4.125,-4.1211,-4.1211,-4.1211,-4.1211,-4.1211,-4.1211,-4.1211,-4.1211,-4.1211,-4.0976,-4.0723,-4.0488,-4.0137,-3.9902,-3.9902,-3.9668,-3.9609,-3.9883,-3.9434,-3.9258,-3.9492,-3.8196,-3.6094,-3.3122,-3.1845,-2.9917,-2.7055,-2.7014,-2.7161,-2.7496,-2.7496,-2.7643,-2.7938,-2.7938,-2.8031,-3.2718,-3.7087,-4.0329,-3.536,-3.5864,-3.6863,-3.4243,-2.9931,-2.6281,-2.548,-2.3384,-2.1801,-2.2097,-2.2669,-2.4687,-2.9501,0.0,-3.3189,-3.536,-3.5875,-3.5529,-3.4095,-3.39,-3.3814,-3.3517,-3.3768,-3.3831,-3.3521,-3.5628,-3.801,-4.0577,-4.0919,-4.2631,-4.6103,-4.6072,-4.7343,-5.0,-4.9629,-4.9433,-4.9433,-4.9089,-4.8913,-4.8913,-4.8913,-4.8913,-4.8913,-4.8913,-4.8913,-4.8913,-4.8913,-4.8913,-4.8815,-4.8014,-4.7637,-4.748,-4.668,-4.6348,-4.625,-4.5879,-4.5723,-4.559,-4.4668,-4.4121,-4.3789,-4.373,-4.3457,-4.3164,-4.3164,-4.2891,-4.2538,-4.2519,-4.2479,-4.2402,-4.1914,-4.1797,-4.168,-4.1308,-4.1211,-4.1211,-4.1211,-4.1211,-4.1211,-4.1211,-4.1211,-4.1211,-4.1211,-4.1211,-4.1211,-4.1211,-4.0527,-4.0059,-4.0059,-4.0019,-4.0,-4.0059,-3.9961,-3.9922,-3.998,-3.9922,-3.8119,-3.4205,-3.3735,-3.1792,-2.788,-2.7485,-2.751,-2.7762,-2.7762,-2.7938,-2.8179,-2.8179,-2.8179,-3.2028,-3.5,-3.8149,-3.4725,-3.5328,-3.6451,-3.5229,-3.0868,0.0,0.0,-2.3048,-1.9996,-1.9338,-2.085,-2.3623,-2.784,-2.8831,-3.131,-3.7773,-3.5559,-3.4095,0.0,-3.6608,-3.5898,-3.3977,-3.5712,0.0,0.0,-3.4558,-3.5767,-3.7851,-3.8238,-4.0607,-4.5484,-4.5724,-4.6864,-4.9082,-4.905,-4.9011,-4.9011,-4.8933,-4.8913,-4.8913,-4.8913,-4.8913,-4.8913,-4.8913,-4.8913,-4.8913,-4.8913,-4.8913,-4.8855,-4.8301,-4.7891,-4.7519,-4.7012,-4.6601,-4.6289,-4.6211,-4.5976,-4.559,-4.4668,-4.4336,-4.4199,-4.3828,-4.3652,-4.3594,-4.3594,-4.3535,-4.3398,-4.3047,-4.2969,-4.2773,-4.1992,-4.1797,-4.168,-4.1308,-4.1211,-4.1211,-4.1211,-4.1211,-4.1211,-4.1211,-4.1211,-4.1211,-4.1211,-4.1211,-4.1211,-4.1211,-4.1093,-4.0957,-4.0957,-4.0625,-4.0566,-4.0918,-4.0293,-4.0039,-4.0352,-4.0098,-3.8785,-3.6359,-3.4518,-3.2579,-3.0392,-2.8551,-2.7776,-2.8112,-2.8112,-2.8138,-2.8179,-2.8179,-2.8179,-3.1204,-3.3615,-3.6076,-3.4247,-3.3957,-3.3766,-3.2526,0.0,0.0,0.0,-2.0706,-1.8685,-1.8837,-2.0207,0.0,-2.5267,-2.7072,-2.9553,-3.3665,-3.3332,0.0,-3.6937,-3.7297,-3.7465,0.0,-3.9129,-3.9451,-3.8555,-3.8535,-3.7696,-3.5811,-3.7233,-3.9193,-4.1604,-4.2986,-4.4045,-4.489,-4.6195,-4.6195,-4.4937,-4.7605,-4.8181,-4.6915,-4.8273,-4.8913,-4.8913,-4.8913,-4.8913,-4.8913,-4.8913,-4.8913,-4.8855,-4.8379,-4.7949,-4.7519,-4.709,-4.666,-4.6308,-4.6308,-4.6172,-4.5898,-4.5273,-4.4766,-4.4316,-4.3848,-4.3711,-4.3711,-4.3711,-4.3711,-4.3652,-4.3457,-4.3398,-4.3242,-4.2617,-4.2129,-4.168,-4.1308,-4.1211,-4.1211,-4.1211,-4.1211,-4.1211,-4.1211,-4.1211,-4.1211,-4.1211,-4.1211,-4.1211,-4.1211,-4.1211,-4.1211,-4.1211,-4.0976,-4.0957,-4.1191,-4.0839,-4.0644,-4.084,-4.0664,-3.9624,-3.7454,-3.6377,-3.4382,-3.1291,-3.0153,-2.9174,-2.8179,-2.8179,-2.8179,-2.8179,-2.8179,-2.8179,-3.0461,-3.2295,-3.3846,-3.3054,-3.1868,-3.0425,-2.8911,-2.4767,0.0,-1.9906,-1.8457,-1.7623,-1.8597,-1.9514,-2.0961,0.0,-2.5685,-2.8105,-3.1281,-3.2543,-3.4528,0.0,-3.9009,0.0,-4.1685,-4.2486,0.0,-4.2592,-4.2609,-4.0667,-3.6213,-3.7373,-3.8655,-3.9716,-4.0459,-4.1194,-4.2003,-4.3452,-4.3197,-4.1235,-4.5867,-4.7008,-4.5079,-4.7698,-4.8913,-4.8913,-4.8913,-4.8913,-4.8913,-4.8913,-4.8913,-4.8874,-4.8476,-4.8086,-4.7656,-4.7226,-4.6797,-4.6426,-4.6328,-4.6308,-4.623,-4.582,-4.5156,-4.4453,-4.3984,-4.3789,-4.3711,-4.3711,-4.3711,-4.3711,-4.3711,-4.3711,-4.3594,-4.3183,-4.25,-4.1836,-4.1523,-4.1367,-4.1348,-4.1348,-4.1269,-4.1211,-4.1211,-4.1211,-4.1211,-4.1211,-4.1211,-4.1211,-4.1211,-4.1211,-4.1211,-4.1211,-4.1211,-4.1211,-4.1211,-4.1211,-4.1211,-4.1211,-4.1211,-4.0431,-3.8666,-3.8152,-3.6264,-3.2858,-3.1887,-3.0592,-2.888,-2.8431,-2.8179,-2.8179,-2.8179,-2.8179,-2.9913,-3.0576,-3.0988,-3.0123,-2.8813,-2.7383,-2.6143,0.0,-1.9862,-1.9509,-1.7839,-1.6628,-1.7252,-1.7849,-1.9777,-2.448,-2.439,-2.7298,-3.7594,-3.6182,-3.6479,-4.2994,0.0,0.0,-4.236,-4.4618,-4.5428,-4.3388,-4.3219,-4.2738,-4.1535,-3.8888,-3.9684,-4.4692,-4.0173,-3.9964,-4.4607,-4.2577,-4.1428,-4.1235,-4.4021,-4.522,-4.5079,-4.7698,-4.8913,-4.8913,-4.8913,-4.8913,-4.8913,-4.8913,-4.8913,-4.8894,-4.8855,-4.8535,-4.8105,-4.7676,-4.7246,-4.6772,-4.6426,-4.6308,-4.623,-4.582,-4.5351,-4.4883,-4.4473,-4.4043,-4.3711,-4.3711,-4.3711,-4.3711,-4.3711,-4.3711,-4.3594,-4.3183,-4.2715,-4.2323,-4.2324,-4.2012,-4.1738,-4.1738,-4.1426,-4.1211,-4.1211,-4.1211,-4.1211,-4.1211,-4.1211,-4.1211,-4.1211,-4.1211,-4.1211,-4.1211,-4.1211,-4.1211,-4.1211,-4.1211,-4.1211,-4.1211,-4.1211,-4.1094,-4.0919,-3.8961,-3.7697,-3.7321,-3.3431,-3.1324,-3.1117,-2.916,-2.8179,-2.8179,-2.8179,-2.8179,-2.9379,-2.9953,-3.014,-2.9619,-2.8005,-2.6059,-2.4315,-2.151,-1.898,-1.7991,-1.6823,-1.6179,-1.6805,-1.7247,-1.8455,-2.131,-2.2274,-2.4821,-3.1046,-3.2328,-3.4982,-4.1293,-4.3261,0.0,0.0,0.0,-4.8652,-4.8238,-4.7736,-4.7332,-4.702,-4.2699,-4.041,-4.0788,-3.8528,-3.7527,-3.8002,-3.8588,-3.805,-3.6559,-4.229,-4.4211,-4.2863,-4.7008,-4.8913,-4.8913,-4.8913,-4.8913,-4.8913,-4.8913,-4.8913,-4.8913,-4.8913,-4.8483,-4.7812,-4.7637,-4.7148,-4.6523,-4.6367,-4.6308,-4.6269,-4.6113,-4.5762,-4.5293,-4.4609,-4.4082,-4.3711,-4.3711,-4.3711,-4.3711,-4.3711,-4.3711,-4.3594,-4.3183,-4.2949,-4.2754,-4.244,-4.2245,-4.2168,-4.2168,-4.2051,-4.1933,-4.1933,-4.1933,-4.1836,-4.1582,-4.1543,-4.1465,-4.125,-4.1211,-4.1211,-4.1211,-4.1211,-4.1211,-4.1211,-4.1211,-4.1211,-4.1211,-4.1211,-4.1211,-4.1211,-4.0353,-3.9237,-3.7935,-3.6201,-3.4042,-3.1392,-3.0551,-2.9453,-2.8179,-2.8179,-2.8179,-2.8323,-2.9098,-2.9459,-2.9165,-2.7483,-2.5315,-2.3241,-2.0762,-1.8476,-1.7007,-1.6208,-1.5981,-1.6593,-1.6899,-1.7528,-1.9027,-2.058,-2.3087,-2.7388,-3.038,-3.4147,0.0,0.0,-4.4939,-4.8182,-4.963,-5.0664,-5.1338,-5.0644,-5.0176,-5.0176,-4.6489,-4.2991,-3.9941,-3.8188,-3.6411,-3.4571,-3.5585,-3.5203,-3.3464,-4.0513,-4.2928,-4.1348,-4.6542,-4.8913,-4.8913,-4.8913,-4.8913,-4.8913,-4.8913,-4.8913,-4.8913,-4.8913,-4.8542,-4.793,-4.7721,-4.7187,-4.6641,-4.6387,-4.6308,-4.6308,-4.6308,-4.6016,-4.5547,-4.4805,-4.4277,-4.3887,-4.375,-4.3711,-4.3711,-4.3711,-4.3711,-4.3633,-4.334,-4.3262,-4.3183,-4.2871,-4.2715,-4.2617,-4.2617,-4.2479,-4.2382,-4.2382,-4.2382,-4.2284,-4.2031,-4.1992,-4.1836,-4.1406,-4.1367,-4.1348,-4.123,-4.0607,-4.047,-4.1133,-4.1211,-4.1211,-4.1211,-4.1211,-4.1211,-4.1211,-4.1211,-4.047,-3.8922,-3.7618,-3.5742,-3.3308,-3.1407,-3.0025,-2.9257,-2.8609,-2.8326,-2.6533,-2.7722,-2.8551,-2.8272,-2.6867,-2.497,-2.2899,-2.0584,-1.8476,-1.7007,-1.6208,-1.5981,-1.6593,-1.6714,-1.7194,-1.8663,-1.9666,-2.2797,-3.0197,-3.2428,-3.4947,0.0,0.0,-4.4861,-4.4598,-4.8347,-5.0976,-5.1358,-5.0644,0.0,-5.0176,-4.9718,-4.8043,-4.5002,-3.9981,-3.7282,-3.7282,-3.472,-3.3414,-3.3464,-3.8734,-4.1187,-4.13,-4.6542,-4.8913,-4.8913,-4.8913,-4.8913,-4.8913,-4.8913,-4.8913,-4.8913,-4.8913,-4.8894,-4.8796,-4.7936,-4.7578,-4.7441,-4.6601,-4.6308,-4.6308,-4.6308,-4.6016,-4.5586,-4.5156,-4.4726,-4.4297,-4.3828,-4.3711,-4.3711,-4.3711,-4.3711,-4.3711,-4.3691,-4.3691,-4.3691,-4.3691,-4.3359,-4.3066,-4.3066,-4.2715,-4.2382,-4.2382,-4.2382,-4.2382,-4.2382,-4.2382,-4.2266,-4.1855,-4.1797,-4.1641,-4.125,-3.9237,-3.8843,-4.0997,-4.1211,-4.1211,-4.1211,-4.1211,-4.1211,-4.1211,-4.1211,-4.1172,-4.1172,-3.6922,-3.5742,-3.7816,-3.1366,-2.9439,-3.1717,-2.9589,-2.8604,-2.3633,-2.4836,-2.5478,-2.497,-2.3968,-2.2726,-2.1224,-1.9543,-1.7982,-1.6927,-1.6406,-1.6246,-1.6633,-1.6899,-1.7715,-1.9786,-2.0521,-2.2918,-2.8998,0.0,0.0,-4.0678,-4.5546,-4.8519,0.0,0.0,-5.0859,-5.0996,-5.0215,-4.9726,-4.9726,-4.9316,-4.7065,-4.2529,-4.0802,-3.8246,-3.467,-3.38,-3.3414,-3.3464,-3.8685,-4.0271,-3.8734,-4.5708,-4.6962,-4.3737,-4.5473,-4.6242,-4.6242,-4.6242,-4.7307,-4.8913,-4.8913,-4.8542,-4.7994,-4.7676,-4.7207,-4.666,-4.6406,-4.6308,-4.6308,-4.6308,-4.6211,-4.6016,-4.5605,-4.4961,-4.4297,-4.3828,-4.3711,-4.3711,-4.3711,-4.3711,-4.3711,-4.3711,-4.3711,-4.3711,-4.3711,-4.3594,-4.3496,-4.3496,-4.3398,-4.3301,-4.3301,-4.3301,-4.3203,-4.291,-4.2871,-4.2715,-4.2285,-4.2226,-4.2168,-4.2051,-3.9776,-3.9099,-4.1036,-3.9825,-3.8922,-3.8922,-4.0353,-4.0509,-3.9001,-4.0392,-4.047,-3.8961,-3.7578,-3.6482,-3.5719,-3.2323,-3.0368,-2.985,-2.9187,-2.8855,-2.1176,-2.2766,-2.3447,-2.3038,-2.2311,-2.1349,-2.0174,-1.8851,-1.7596,-1.6727,-1.6417,-1.6391,-1.6647,-1.6979,-1.7795,-1.9589,-2.0187,-2.2254,-2.7429,0.0,0.0,-4.0728,0.0,0.0,0.0,-4.9278,-5.0391,-5.0547,-4.9766,-4.9355,-4.9465,-4.9101,-4.6542,-4.138,-4.1187,-3.9156,-3.4919,-3.39,-3.3414,-3.3464,-3.8685,-3.9836,-3.7527,-4.4305,-4.5144,-4.1283,-4.2863,-4.4116,0.0,-4.4984,-4.6523,-4.8913,-4.8913,-4.8483,-4.7793,-4.7637,-4.7129,-4.6523,-4.6367,-4.6308,-4.6308,-4.6308,-4.6191,-4.6016,-4.5805,-4.5078,-4.4297,-4.3828,-4.3711,-4.3711,-4.3711,-4.3711,-4.3711,-4.3711,-4.3711,-4.3711,-4.3711,-4.3711,-4.3711,-4.3711,-4.3711,-4.3711,-4.3711,-4.3711,-4.3613,-4.3359,-4.332,-4.3164,-4.2734,-4.2676,-4.2275,-4.1235,-3.8933,-3.7892,-3.8945,-3.7579,-3.6682,-3.6682,-3.7993,-3.8152,-3.6762,-3.8033,-3.8145,-3.6851,-3.6027,-3.5405,-3.5023,-3.3106,-3.111,-2.9205,-2.9268,-2.9312,0.0,-2.1203,-2.2071,-2.2017,-2.1416,-2.0535,-1.9455,-1.8344,0.0,-1.6471,-1.6297,-1.6417,-1.6767,-1.706,-1.7582,-1.8597,-1.9294,-2.1349,0.0,-3.0519,0.0,0.0,-4.2718,0.0,-4.3856,-4.711,-4.95,-5.0098,-4.9382,-4.9043,-4.9453,-4.9082,-4.6682,-4.1907,-4.138,-3.9932,-3.7331,-3.5054,-3.3937,-3.3987,-3.888,-3.9836,-3.7478,-4.2482,-4.3244,-4.0657,-4.1043,-4.2529,-4.4748,-4.4937,-4.6523,-4.8913,-4.8913,-4.862,-4.8105,-4.7715,-4.7285,-4.6772,-4.6445,-4.6308,-4.6308,-4.6308,-4.6035,-4.5766,-4.5727,-4.5098,-4.4355,-4.3926,-4.3789,-4.3789,-4.3769,-4.3769,-4.3789,-4.3711,-4.375,-4.3789,-4.3711,-4.373,-4.375,-4.3711,-4.3711,-4.3711,-4.3711,-4.3711,-4.3711,-4.3711,-4.3711,-4.3555,-4.3183,-4.3125,-4.2116,-3.9377,-3.7066,-3.5632,-3.5339,-3.4842,-3.4531,-3.4531,-3.4653,-3.4693,-3.4531,-3.4693,-3.4801,-3.4883,-3.2864,-3.2907,-3.5045,-3.3496,-3.1626,-2.9526,-2.9793,-2.9766,-1.6472,0.0,-1.8611,-1.8156,-1.809,-1.797,0.0,-1.7114,-1.6794,-1.6391,-1.6297,-1.6658,-1.7849,-1.7943,-1.8609,-2.1064,-2.2004,-2.4303,-2.976,-3.6901,0.0,-4.3741,-4.4735,-4.5234,-4.523,-4.6042,-4.7468,-4.9527,-4.916,-4.8952,-4.905,-4.8952,-4.832,-4.712,-4.3262,-3.9948,-3.7312,-3.8685,-3.9366,-3.9351,-4.0609,-3.9836,-3.7429,-4.0609,-3.9593,-3.5451,-3.9448,-4.1524,-4.2243,-4.4211,-4.6523,-4.8913,-4.8913,-4.8444,-4.7715,-4.7617,-4.7109,-4.6426,-4.6328,-4.6308,-4.6308,-4.6308,-4.623,-4.6094,-4.5781,-4.5293,-4.4863,-4.4746,-4.4665,-4.4648,-4.4316,-4.4473,-4.4551,-4.3867,-4.4219,-4.4531,-4.3848,-4.3984,-4.4141,-4.3769,-4.3711,-4.3711,-4.3711,-4.3711,-4.3711,-4.3711,-4.3711,-4.3672,-4.3574,-4.3555,-4.2652,-4.0239,-3.7715,-3.5492,-3.3656,-3.3102,-3.2857,-3.2857,-3.4394,-3.4603,-3.2942,-3.4436,-3.4552,-3.2964,-3.2471,-3.1754,-3.0902,-3.2135,-3.1697,-2.982,-2.9887,-2.9887,-1.4801,-1.6469,-1.7716,-1.7382,-1.7435,-1.7488,-1.7181,-1.6794,-1.642,-1.6126,-1.6286,-1.6794,-1.7903,-1.8397,-1.9345,-2.147,-2.3367,0.0,0.0,0.0,-4.1585,-4.1339,-4.3729,-4.4947,0.0,-4.4691,-4.6453,-4.9033,-4.905,-4.8913,-4.8913,-4.8913,-4.7791,-4.5426,-4.3784,-4.2243,-4.0867,-3.99,-4.0029,-4.1187,-4.1187,-3.9836,-3.7331,-3.8798,-3.7198,-3.36,-3.7689,-4.0045,-4.1348,-4.3927,-4.6523,-4.8913,-4.8913,-4.8503,-4.7851,-4.7656,-4.7168,-4.6562,-4.6367,-4.6308,-4.6308,-4.6308,-4.6308,-4.6269,-4.6035,-4.5801,-4.5527,-4.5094,-4.4977,-4.4938,-4.4746,-4.4863,-4.486,-4.4414,-4.4668,-4.4801,-4.416,-4.4219,-4.4316,-4.4082,-4.4023,-4.4082,-4.4277,-4.4316,-4.392,-4.2829,-4.2532,-4.24,-4.2316,-4.1289,-4.0048,-3.8843,-3.6477,-3.4068,-3.174,-3.1319,-3.1092,-3.0808,-3.1881,-3.2009,-3.0837,-3.1881,-3.204,-3.105,-3.1149,-3.0719,-2.9686,-3.0842,-3.0881,-2.9913,-2.9913,-2.9913,-1.4364,-1.6304,-1.8156,-1.7889,-1.7889,-1.7889,-1.7358,-1.6663,-1.5975,-1.5447,0.0,-1.6575,-1.797,-1.8829,0.0,0.0,0.0,0.0,-3.476,-3.7321,-3.8123,-3.7118,-4.1037,0.0,-4.0802,-4.2911,-4.552,-4.8134,-4.8663,-4.8913,-4.8913,-4.8913,-4.6728,-4.1907,-4.3499,-4.44,-4.44,-4.0078,-3.9026,-4.1187,-4.0802,-3.9448,-3.7282,-3.6869,-3.5515,-3.3564,-3.6144,-3.8505,-4.0722,-4.3357,-4.5708,-4.7744,-4.8134,-4.8003,-4.7643,-4.7657,-4.7363,-4.6831,-4.6445,-4.6308,-4.6308,-4.6308,-4.6308,-4.6308,-4.6308,-4.6308,-4.6152,-4.543,-4.5172,-4.5153,-4.5094,-4.5176,-4.5153,-4.5016,-4.5074,-4.5078,-4.459,-4.4551,-4.457,-4.4512,-4.4492,-4.4609,-4.4918,-4.4977,-4.419,-4.1789,-4.1179,-4.079,-4.0299,-3.827,-3.674,-3.6394,-3.4579,-3.244,-3.0093,-2.9913,-2.9655,-2.9161,-2.9135,-2.9135,-2.9135,-2.9135,-2.9255,-2.9539,-2.9793,-2.9913,-2.9913,-2.9913,-2.9913,-2.9913,-2.9913,-2.9913,-1.6458,-1.8073,-1.8826,-1.7288,-1.7462,-1.7579,-1.5948,-1.5473,-1.4971,-1.354,-1.348,-1.5143,-2.0094,-1.9921,-2.0709,0.0,0.0,-3.1088,0.0,0.0,-3.8357,-3.7335,0.0,-3.8344,-3.7968,-4.0271,-4.2816,-4.5408,-4.7651,-4.8913,-4.8913,-4.8913,-4.7493,-4.4494,-4.2673,-4.1764,-4.1764,-4.0995,-4.0802,-4.1187,-3.8977,-3.7674,-3.7233,-3.5018,-3.38,-3.355,-3.6179,-3.7527,-3.8099,-4.0706,-4.2003,-4.2594,-4.4748,-4.5358,-4.5261,-4.7331,-4.7617,-4.6831,-4.6445,-4.6308,-4.6308,-4.6308,-4.6308,-4.6308,-4.6308,-4.6308,-4.6269,-4.6152,-4.6113,-4.6016,-4.5664,-4.584,-4.5918,-4.5195,-4.5586,-4.5898,-4.5098,-4.5215,-4.5371,-4.5,-4.4922,-4.4961,-4.4977,-4.4977,-4.419,-4.1789,-4.137,-4.0577,-3.8439,-3.7612,-3.6462,-3.445,-3.3721,-3.244,-3.0093,-2.9913,-2.9873,-2.9793,-2.978,-2.978,-2.978,-2.978,-2.9806,-2.9847,-2.99,-2.9913,-2.9913,-2.9913,-2.9913,-2.9913,-2.9913,-2.9913,-1.7344,-1.922,-2.0389,-1.84,-1.9696,-2.1437,-2.1378,-2.1152,-2.0158,-1.719,-1.7599,-1.9152,-2.1298,0.0,-2.5411,-3.2579,0.0,-3.4907,-3.6836,-3.8402,-3.8273,0.0,-3.6358,-3.7282,-3.7282,-3.9642,-4.2243,-4.4796,-4.74,-4.8913,-4.8913,-4.8913,-4.7074,-4.3024,-4.1764,-3.9836,-3.6987,-3.7002,-3.8392,-4.1187,-3.8539,-3.7282,-3.7233,-3.4571,-3.4186,-3.5585,-3.6805,-3.8099,-3.9593,-4.2195,-4.3262,-4.3499,-4.6102,-4.6988,-4.692,-4.7618,-4.7461,-4.6831,-4.6445,-4.6308,-4.6308,-4.6308,-4.6308,-4.6308,-4.6308,-4.6308,-4.6308,-4.6308,-4.6308,-4.625,-4.6055,-4.6152,-4.6211,-4.5801,-4.6016,-4.6133,-4.5508,-4.5527,-4.5668,-4.541,-4.5371,-4.5449,-4.5683,-4.4581,-4.2865,-4.0485,-3.8825,-3.7439,-3.624,-3.4743,-3.3873,-3.3993,-3.2665,-3.1412,-3.0472,-3.01,-2.9913,-2.9913,-2.9913,-2.9913,-2.9913,-2.9913,-2.9913,-2.9913,-2.9913,-2.9993,-3.0154,-2.9993,-2.9993,-3.0154,-3.0154,-3.0154,-1.839,-2.0319,-2.19,-2.0888,-2.2246,-2.4084,-2.4984,-2.4743,-2.3592,-2.0893,-2.1344,-2.2398,-2.3111,-2.5989,0.0,-3.6754,-3.7734,-3.8058,-3.9112,-3.917,-3.7851,-3.4402,-3.5393,-3.6411,-3.6411,-3.8734,-4.1332,-4.3927,-4.6523,-4.8273,-4.8867,-4.832,-4.5867,-4.1252,-4.0561,-3.805,-3.3464,-3.3414,-3.5401,-3.9351,-3.7331,-3.6706,-3.7233,-3.5253,-3.5734,-3.8197,-3.8197,-3.9351,-4.1332,-4.3292,-4.4116,-4.4353,-4.6962,-4.8366,-4.8796,-4.7936,-4.7363,-4.7012,-4.6484,-4.6308,-4.6308,-4.6308,-4.6308,-4.6308,-4.6308,-4.6308,-4.6308,-4.6308,-4.6308,-4.6308,-4.6308,-4.6308,-4.6308,-4.6308,-4.6308,-4.6211,-4.5898,-4.582,-4.582,-4.582,-4.582,-4.5918,-4.625,-4.4738,-4.2443,-3.9449,-3.7214,-3.5409,-3.4149,-3.2163,-3.1568,-3.3302,-3.1706,-3.06,-3.0768,-3.0381,-3.0127,-3.0127,-2.9993,-2.9913,-2.9913,-2.9913,-2.9913,-2.9913,-2.998,-3.01,-3.0306,-3.0167,-3.0207,-3.04,-3.048,-3.0507,-2.0427,-2.1648,-2.2856,-2.52,-2.3958,-2.197,-2.1141,-2.0293,-2.0146,-2.1688,-2.0685,-2.1125,-2.6488,-3.0632,-3.3473,-3.4083,-3.6652,-3.9055,-4.0375,-3.8511,-3.6994,-3.7011,-3.504,-3.37,-3.37,-3.6045,-3.8652,-4.1283,-4.3832,-4.6336,-4.8755,-4.657,-4.4021,-4.1283,-3.8831,-3.6214,-3.3414,-3.3414,-3.36,-3.3937,-3.375,-3.4955,-3.7282,-3.7085,-3.8441,-4.0898,-4.0898,-4.1043,-4.1187,-4.138,-4.1476,-4.1716,-4.4258,-4.6775,-4.8796,-4.7936,-4.7558,-4.7422,-4.6582,-4.6308,-4.6308,-4.6308,-4.6308,-4.6308,-4.6308,-4.6308,-4.6308,-4.6308,-4.6308,-4.6308,-4.6308,-4.6308,-4.6308,-4.6308,-4.6308,-4.6289,-4.6269,-4.625,-4.625,-4.625,-4.625,-4.6269,-4.6289,-4.6158,-4.4428,-3.9721,-3.8823,-3.7082,-3.2508,-3.1464,-3.1243,-3.1416,-3.1021,-3.0768,-3.0795,-3.0755,-3.0728,-3.0728,-3.0221,-2.9913,-2.9913,-2.9913,-2.9913,-2.9913,-3.0226,-3.0207,-2.9953,-3.0474,-3.0595,-3.0413,-3.0635,-3.0755,-2.0861,-2.2663,-2.4193,-2.4524,-2.5018,-2.5676,-2.6692,-2.7419,-2.7279,-2.5012,-2.6325,-2.8565,-3.0948,-3.5635,-3.8937,-3.821,-4.1272,-4.3054,-4.0871,-3.998,-3.84,-3.5238,-3.3987,-3.3414,-3.3414,-3.5798,-3.7723,-3.8685,-4.2625,-4.5408,-4.6429,-4.5567,-4.3832,-4.1283,-3.8685,-3.6805,-3.5847,-3.5847,-3.6657,-3.8246,-3.6608,-3.6362,-3.738,-3.8977,-4.1139,-4.3482,-4.1907,-4.2099,-4.3547,-4.3547,-4.3547,-4.3832,-4.6429,-4.7869,-4.8379,-4.7793,-4.7402,-4.709,-4.6504,-4.6308,-4.6308,-4.6308,-4.6308,-4.6308,-4.6308,-4.6308,-4.6308,-4.6308,-4.6308,-4.6308,-4.6308,-4.6308,-4.6308,-4.6308,-4.6308,-4.6308,-4.6308,-4.6308,-4.6308,-4.6308,-4.6308,-4.6308,-4.6308,-4.5021,-4.2863,-3.9477,-3.7712,-3.5463,-3.2124,-3.157,-3.1503,-3.1503,-3.1396,-3.1196,-3.0822,-3.0955,-3.0982,-3.0808,-3.0581,-3.0461,-3.0461,-3.0461,-3.0461,-3.0461,-3.0568,-3.0662,-3.0728,-3.0768,-3.0822,-3.0902,-3.1009,-3.1062,-2.1378,-2.3434,-2.4964,-2.4001,-2.588,-2.8271,-2.9493,-3.077,-3.0974,-2.8497,-3.0983,-3.3296,-3.2267,-3.7266,-4.1153,-4.0017,-4.3253,-4.4898,-4.2116,-4.0717,-3.8636,-3.5054,-3.39,-3.3414,-3.3414,-3.5004,-3.6411,-3.7233,-4.1332,-4.4163,-4.4984,-4.4258,-4.3339,-4.2434,-3.9059,-3.7674,-3.8505,-3.8539,-3.9399,-4.1187,-4.0223,-3.9739,-3.9787,-4.1572,-4.3784,-4.6149,-4.4418,-4.4607,-4.6242,-4.6242,-4.6242,-4.6429,-4.8227,-4.8594,-4.8164,-4.7734,-4.7305,-4.6831,-4.6445,-4.6308,-4.6308,-4.6308,-4.6308,-4.6308,-4.6308,-4.6308,-4.6308,-4.6308,-4.6308,-4.6114,-4.5329,-4.5153,-4.5153,-4.5153,-4.5153,-4.5329,-4.6114,-4.6308,-4.6308,-4.6308,-4.6308,-4.6308,-4.6308,-4.4233,-4.1771,-3.9358,-3.6883,-3.442,-3.1995,-3.1711,-3.1711,-3.1711,-3.1711,-3.155,-3.1102,-3.1249,-3.1276,-3.1076,-3.1076,-3.0982,-3.0795,-3.0795,-3.0795,-3.0795,-3.0889,-3.0982,-3.1089,-3.1076,-3.1129,-3.1176,-3.1316,-3.137,-2.2292,-2.3885,-2.5008,-2.4301,-2.655,-2.8646,-2.7717,-2.7966,-2.9162,-3.1771,-3.3567,-3.3505,-2.9733,-3.4819,-3.9175,-3.8061,-4.1109,-4.38,-4.4242,-4.0285,-3.7282,-3.7282,-3.4955,-3.3414,-3.3414,-3.3414,-3.4471,-3.7085,-3.969,-4.229,-4.4796,-4.2577,-4.2338,-4.489,-3.9981,-3.8588,-4.1187,-4.1235,-4.1235,-4.1283,-4.3832,-4.5031,-4.4984,-4.5031,-4.6429,-4.8913,-4.8913,-4.8913,-4.8913,-4.8913,-4.8913,-4.8913,-4.8913,-4.8594,-4.8164,-4.7734,-4.7305,-4.6831,-4.6445,-4.6308,-4.6308,-4.6308,-4.6308,-4.6308,-4.6308,-4.6308,-4.6308,-4.6308,-4.6308,-4.5744,-4.3219,-4.2577,-4.2577,-4.2577,-4.2621,-4.3308,-4.5744,-4.6308,-4.6308,-4.6308,-4.6265,-4.6265,-4.6265,-4.4233,-4.1753,-3.9341,-3.6883,-3.442,-3.1995,-3.1711,-3.1711,-3.1711,-3.1711,-3.1711,-3.1711,-3.1711,-3.1711,-3.1711,-3.1711,-3.141,-3.0822,-3.0795,-3.0795,-3.0795,-3.1089,-3.1089,-3.0808,-3.143,-3.1517,-3.1189,-3.153,-3.1711,-2.3407,-2.4289,-2.5003,-2.6253,-2.7719,-2.8798,-2.8762,-2.9251,-3.0436,-3.31,-3.3639,-3.3332,-3.2295,-3.5264,-3.7255,-3.5438,-3.8255,-4.0174,-3.8798,-3.7845,-3.6608,-3.477,-3.385,-3.3414,-3.3414,-3.3414,-3.37,-3.4471,-3.8685,-4.0706,-3.9609,-4.0625,-4.1524,-4.229,-3.9059,-3.9399,-4.3832,-4.3879,-4.4796,-4.6635,-4.74,-4.6775,-4.5079,-4.6915,-4.8181,-4.8913,-4.8913,-4.8913,-4.8913,-4.8913,-4.8913,-4.8913,-4.8913,-4.8594,-4.8164,-4.7734,-4.7305,-4.6831,-4.6445,-4.6308,-4.6308,-4.6308,-4.6308,-4.6308,-4.6308,-4.6308,-4.6308,-4.6308,-4.6308,-4.5744,-4.3219,-4.2577,-4.2577,-4.2577,-4.3904,-4.5373,-4.6158,-4.6308,-4.6308,-4.6308,-4.487,-4.3682,-4.3682,-4.1681,-3.9204,-3.6791,-3.5788,-3.442,-3.1995,-3.1711,-3.1711,-3.1711,-3.1711,-3.1711,-3.1711,-3.1711,-3.1711,-3.1711,-3.1711,-3.1644,-3.1423,-3.141,-3.141,-3.141,-3.149,-3.149,-3.141,-3.1631,-3.1671,-3.1543,-3.1623,-3.1711,-2.3133,-2.4208,-2.5122,-2.6301,-2.7808,-2.9076,-2.9447,-2.9916,-3.0791,-3.2603,-3.3286,-3.3323,-3.2662,-3.5169,-3.6668,-3.4682,-3.6405,-3.7555,-3.6361,-3.5851,-3.5076,-3.3587,-3.3414,-3.3414,-3.3414,-3.3414,-3.3414,-3.3414,-3.7282,-3.8977,-3.7395,-3.8782,-4.0126,-4.1187,-3.8685,-3.9302,-4.3434,-4.3499,-4.4258,-4.5867,-4.5867,-4.5031,-4.3594,-4.726,-4.8913,-4.8913,-4.8913,-4.832,-4.7353,-4.7353,-4.6775,-4.5961,-4.6962,-4.7088,-4.6782,-4.7354,-4.7305,-4.6831,-4.6445,-4.6308,-4.6308,-4.6308,-4.6308,-4.6308,-4.6308,-4.6308,-4.6308,-4.6308,-4.6308,-4.5744,-4.3219,-4.2577,-4.2577,-4.2577,-4.3727,-4.5109,-4.607,-4.6308,-4.6308,-4.6308,-4.4277,-4.2577,-4.2577,-3.9795,-3.7021,-3.5509,-3.4467,-3.337,-3.1901,-3.1711,-3.1711,-3.1711,-3.1711,-3.1711,-3.1711,-3.1711,-3.1711,-3.1711,-3.1711,-3.1711,-3.1711,-3.1711,-3.1711,-3.1711,-3.1711,-3.1711,-3.1711,-3.1711,-3.1711,-3.1711,-3.1711,-3.1711,-2.1935,-2.3804,-2.5242,-2.5308,-2.7336,-2.9396,-2.9853,-3.0167,-3.0574,-3.1102,-3.2541,-3.324,-3.157,-3.4468,-3.6596,-3.4891,-3.5101,-3.5557,-3.5791,-3.4171,-3.304,-3.3293,-3.336,-3.3374,-3.3374,-3.34,-3.3414,-3.3414,-3.5833,-3.7183,-3.6953,-3.7183,-3.8392,-4.0754,-3.8539,-3.8539,-4.1187,-4.1187,-4.1187,-4.1187,-4.1187,-4.1187,-4.138,-4.6055,-4.832,-4.8551,-4.8551,-4.7214,-4.4984,-4.4748,-4.3292,-4.1428,-4.3737,-4.458,-4.4686,-4.6564,-4.7145,-4.6889,-4.6465,-4.6308,-4.6308,-4.6308,-4.6308,-4.6308,-4.6308,-4.6308,-4.6308,-4.6308,-4.6308,-4.5763,-4.3274,-4.2613,-4.255,-4.2398,-4.2497,-4.3237,-4.5519,-4.6002,-4.5895,-4.5656,-4.3675,-4.1986,-4.195,-3.8095,-3.4995,-3.4966,-3.3088,-3.1711,-3.1711,-3.1711,-3.1711,-3.1711,-3.1711,-3.1711,-3.1711,-3.1711,-3.1711,-3.1711,-3.1711,-3.1711,-3.1711,-3.1711,-3.1711,-3.1711,-3.1711,-3.1711,-3.1711,-3.1711,-3.1711,-3.1711,-3.1711,-3.1711,-2.1229,-2.3161,-2.5072,-2.6745,-2.8103,-2.9276,-3.0097,-3.036,-3.0574,-3.1102,-3.1543,-3.177,-3.1611,-3.2351,-3.2873,-3.244,-3.2661,-3.2921,-3.2976,-3.2827,-3.2714,-3.2781,-3.2982,-3.3066,-3.3066,-3.328,-3.3414,-3.3414,-3.5833,-3.6411,-3.4336,-3.6164,-3.7576,-3.8099,-3.7576,-3.8539,-4.1187,-4.1187,-4.1187,-4.1187,-4.1187,-4.1187,-4.1235,-4.2338,-4.3927,-4.5849,-4.5849,-4.552,-4.4843,-4.2816,-4.1668,-4.1235,-4.1812,-4.321,-4.4815,-4.4636,-4.5774,-4.7324,-4.6562,-4.6308,-4.6308,-4.6308,-4.6308,-4.6308,-4.6308,-4.6308,-4.6308,-4.6308,-4.6308,-4.5777,-4.3576,-4.2811,-4.2227,-4.0814,-4.1559,-4.2846,-4.3774,-4.368,-4.2863,-4.0943,-3.8794,-3.7195,-3.693,-3.4624,-3.2715,-3.253,-3.2043,-3.1711,-3.1711,-3.1711,-3.1711,-3.1711,-3.1711,-3.1711,-3.1711,-3.1711,-3.1711,-3.1711,-3.1711,-3.1711,-3.1711,-3.1711,-3.1711,-3.1711,-3.1711,-3.1711,-3.1711,-3.1711,-3.1711,-3.1711,-3.1711,-3.1711,-1.9789,-2.2231,-2.4806,-2.7485,-2.8561,-2.9148,-2.9806,-3.0047,-3.0274,-3.0715,-3.1036,-3.1276,-3.1423,-3.157,-3.1711,-3.1711,-3.1845,-3.1944,-3.2078,-3.2238,-3.2433,-3.2581,-3.2728,-3.2822,-3.2822,-3.2906,-3.3,-3.3,-3.4289,-3.4962,-3.4766,-3.6056,-3.677,-3.677,-3.677,-3.6867,-3.7061,-3.7061,-3.7061,-3.7061,-3.7226,-3.7328,-3.7576,-4.0078,-4.1907,-4.3197,-4.3197,-4.2379,-4.0971,-3.9692,-3.8344,-3.7206,-3.8445,-3.9722,-4.1113,-4.2849,-4.4379,-4.5453,-4.4768,-4.4561,-4.4561,-4.4561,-4.4693,-4.5084,-4.6229,-4.6738,-4.6914,-4.6914,-4.6758,-4.6105,-4.396,-4.2245,-4.0937,-4.0336,-4.1574,-4.2702,-4.1844,-4.2319,-4.2171,-3.9699,-3.7226,-3.5533,-3.5307,-3.3403,-3.1837,-3.1738,-3.1784,-3.1824,-3.1738,-3.1797,-3.1824,-3.1724,-3.1711,-3.1711,-3.1711,-3.1711,-3.1711,-3.1711,-3.1711,-3.1711,-3.1711,-3.1711,-3.1711,-3.1711,-3.1711,-3.1711,-3.1711,-3.1711,-3.1711,-3.1711,-3.1711,-3.1711,-1.7841,-2.1181,-2.4619,-2.7682,-2.8711,-2.9001,-2.9339,-2.9633,-2.9913,-3.0199,-3.0675,-3.1089,-3.1142,-3.1396,-3.1597,-3.1597,-3.1684,-3.1805,-3.1998,-3.2024,-3.2118,-3.242,-3.2487,-3.2514,-3.2514,-3.2567,-3.2594,-3.2594,-3.2594,-3.3491,-3.5462,-3.5606,-3.5606,-3.5606,-3.5606,-3.4803,-3.3262,-3.2824,-3.3019,-3.3865,-3.3641,-3.3655,-3.4036,-3.7931,-3.9981,-4.0463,-4.0414,-3.8971,-3.6699,-3.6341,-3.4755,-3.2824,-3.49,-3.6023,-3.6917,-4.1085,-4.2627,-4.2664,-4.2631,-4.2309,-4.204,-4.2443,-4.2622,-4.3081,-4.5496,-4.6248,-4.6348,-4.6819,-4.6325,-4.5325,-4.3564,-4.1001,-3.8899,-3.9196,-4.0745,-4.1701,-3.9817,-4.0764,-4.1241,-3.8641,-3.6279,-3.4789,-3.48,-3.3208,-3.1858,-3.1805,-3.1944,-3.2011,-3.1818,-3.1904,-3.1931,-3.1738,-3.1711,-3.1711,-3.1711,-3.1711,-3.1711,-3.1711,-3.1711,-3.1711,-3.1711,-3.1711,-3.1711,-3.1711,-3.1711,-3.1711,-3.1711,-3.1711,-3.1711,-3.1711,-3.1711,-3.1738,-1.5537,-2.0036,-2.473,-2.7201,-2.8243,-2.8738,-2.8988,-2.9325,-2.9553,-2.9593,-3.0105,-3.06,-3.0808,-3.1089,-3.1289,-3.1289,-3.1503,-3.1724,-3.1764,-3.173,-3.1791,-3.1831,-3.2011,-3.2158,-3.2158,-3.2447,-3.2594,-3.2594,-3.2594,-3.274,-3.3068,-3.3068,-3.3068,-3.3068,-3.3068,-3.3914,-3.5702,-3.3637,-3.4721,-3.8891,-3.677,-3.5776,-3.5772,-3.4365,-3.5124,-3.7463,-3.7174,-3.6831,-3.6274,-3.4066,-3.2962,-3.2643,-3.297,-3.448,-3.6679,-3.9049,-3.9983,-4.0347,-4.2029,-4.1214,-3.9857,-4.1905,-4.1385,-4.0397,-4.2854,-4.2344,-4.1374,-4.361,-4.2608,-4.0878,-4.0902,-3.8799,-3.6223,-3.4709,-3.6075,-3.768,-3.7389,-3.706,-3.6052,-3.3549,-3.277,-3.2633,-3.2905,-3.2716,-3.2393,-3.2078,-3.2078,-3.2091,-3.2051,-3.1851,-3.1764,-3.1724,-3.1711,-3.1711,-3.1711,-3.1711,-3.1711,-3.1711,-3.1711,-3.1711,-3.1711,-3.1711,-3.1711,-3.1711,-3.1711,-3.1711,-3.1711,-3.1711,-3.1711,-3.1711,-3.1711,-3.1797,-1.7638,-2.1038,-2.4138,-2.6827,-2.7776,-2.8217,-2.8684,-2.9018,-2.9232,-2.9232,-2.9446,-2.9806,-3.048,-3.0795,-3.0982,-3.0982,-3.1223,-3.137,-3.1196,-3.151,-3.161,-3.1436,-3.1677,-3.1864,-3.1864,-3.2032,-3.2099,-3.2099,-3.2099,-3.2709,-3.405,-3.4098,-3.4098,-3.4098,-3.5442,-3.6039,-3.571,-3.6039,-3.7336,-3.9566,-3.7146,-3.6035,-3.6104,-3.3491,-3.3118,-3.4484,-3.4343,-3.414,-3.3889,-3.2761,-3.2246,-3.2099,-3.2099,-3.2805,-3.4036,-3.6294,-3.7148,-3.7318,-3.8203,-3.7787,-3.7145,-3.8396,-3.8285,-3.8229,-4.0861,-4.1181,-4.0867,-4.1957,-4.1285,-4.002,-3.8987,-3.7577,-3.5939,-3.3891,-3.4176,-3.4956,-3.4956,-3.5696,-3.5606,-3.2905,-3.2211,-3.2198,-3.2541,-3.2594,-3.2554,-3.242,-3.2393,-3.2291,-3.2118,-3.1984,-3.1851,-3.1738,-3.1711,-3.1711,-3.1711,-3.1711,-3.1711,-3.1711,-3.1711,-3.1791,-3.1904,-3.1904,-3.1984,-3.2206,-3.1885,-3.1711,-3.1711,-3.1711,-3.1711,-3.1724,-3.1837,-3.1984,-1.8876,-2.1262,-2.3044,-2.5577,-2.6959,-2.7799,-2.8073,-2.8497,-2.8831,-2.8868,-2.8948,-2.9202,-2.99,-3.0327,-3.0595,-3.0675,-3.0929,-3.1036,-3.0822,-3.1169,-3.137,-3.1142,-3.1316,-3.145,-3.145,-3.1517,-3.1557,-3.1557,-3.1671,-3.2502,-3.428,-3.4373,-3.4373,-3.4373,-3.6745,-3.7482,-3.6236,-3.9295,-4.0629,-4.0171,-3.777,-3.6711,-3.6799,-3.4141,-3.2715,-3.2367,-3.2367,-3.2246,-3.1998,-3.1998,-3.1864,-3.1711,-3.1711,-3.1711,-3.1995,-3.442,-3.4919,-3.4452,-3.5106,-3.4919,-3.4543,-3.5388,-3.5554,-3.5924,-3.8576,-3.934,-3.9366,-3.9948,-3.9418,-3.8504,-3.755,-3.6564,-3.5398,-3.3796,-3.3414,-3.3387,-3.332,-3.4675,-3.5253,-3.3133,-3.2478,-3.2398,-3.2661,-3.2768,-3.2795,-3.2714,-3.2701,-3.2594,-3.2251,-3.2144,-3.1984,-3.1751,-3.1711,-3.1751,-3.1818,-3.1764,-3.1778,-3.1925,-3.1872,-3.1917,-3.2198,-3.2211,-3.2318,-3.2594,-3.2166,-3.1938,-3.1938,-3.1938,-3.1938,-3.1938,-3.2118,-3.2251,-1.6712,-1.9269,-2.1525,-2.2807,-2.5433,-2.7544,-2.7027,-2.7575,-2.8312,-2.8564,-2.8801,-2.9015,-2.9055,-2.9535,-3.0047,-3.0386,-3.0621,-3.0808,-3.0795,-3.0822,-3.0835,-3.0822,-3.0835,-3.0835,-3.0835,-3.1089,-3.1249,-3.1249,-3.1517,-3.1758,-3.1901,-3.1901,-3.1901,-3.1901,-3.4233,-3.656,-3.8811,-4.3549,-4.4757,-4.2389,-3.9965,-3.8843,-3.8768,-3.6282,-3.3901,-3.1764,-3.1764,-3.1751,-3.1738,-3.1738,-3.1724,-3.1711,-3.1711,-3.1711,-3.1995,-3.442,-3.3873,-3.2219,-3.4499,-3.3826,-3.2266,-3.4575,-3.416,-3.3262,-3.5669,-3.5213,-3.4336,-3.6805,-3.5684,-3.4308,-3.6706,-3.5437,-3.3537,-3.3414,-3.3414,-3.3334,-3.3066,-3.3134,-3.317,-3.3009,-3.2995,-3.2933,-3.3009,-3.3187,-3.328,-3.3,-3.2959,-3.2902,-3.2607,-3.2278,-3.1984,-3.1751,-3.1711,-3.1784,-3.2051,-3.1824,-3.1952,-3.2514,-3.2238,-3.2211,-3.2554,-3.2567,-3.2581,-3.2594,-3.2567,-3.2554,-3.2554,-3.2554,-3.2554,-3.2554,-3.2567,-3.2714,-1.6177,0.0,0.0,-2.1289,-2.3338,-2.4984,-2.5324,-2.6533,-2.7657,-2.7764,-2.8136,-2.8524,-2.8724,-2.9245,-2.9673,-2.978,-3.0253,-3.0981,-3.228,-3.1532,-3.1299,-3.2565,-3.1565,-3.0795,-3.0795,-3.0889,-3.0942,-3.0942,-3.1223,-3.1383,-3.1383,-3.157,-3.1711,-3.1711,-3.4046,-3.7252,-4.1259,-4.4649,-4.5065,-4.2577,-4.1708,-4.0492,-3.8977,-3.8079,-3.7206,-3.6298,-3.4686,-3.3135,-3.1711,-3.1711,-3.1711,-3.1711,-3.1711,-3.1711,-3.1806,-3.2677,-3.2455,-3.1833,-3.2898,-3.2681,-3.2141,-3.3423,-3.3406,-3.3049,-3.4099,-3.3923,-3.36,-3.4521,-3.4136,-3.36,-3.4521,-3.4086,-3.3414,-3.3414,-3.3414,-3.3387,-3.328,-3.3106,-3.3026,-3.3213,-3.3106,-3.304,-3.3227,-3.3347,-3.3374,-3.3267,-3.3093,-3.2995,-3.2888,-3.2621,-3.2393,-3.2286,-3.2286,-3.2326,-3.2433,-3.234,-3.2367,-3.2581,-3.25,-3.2567,-3.2862,-3.2875,-3.2955,-3.3093,-3.3106,-3.2919,-3.2594,-3.2594,-3.2594,-3.2594,-3.2781,-3.2929,-1.5297,0.0,0.0,0.0,-2.1488,-2.2918,-2.4197,-2.5398,-2.6439,-2.6987,-2.763,-2.8125,-2.839,-2.8858,-2.9219,-2.9312,-2.9659,-3.0454,-3.1898,-3.1063,-3.089,-3.2326,-3.1307,-3.0501,-3.0501,-3.0595,-3.0648,-3.0648,-3.1009,-3.1176,-3.1176,-3.1503,-3.2077,-3.2866,-3.4452,-3.765,-4.2532,-4.4233,-4.4649,-4.3815,-4.2996,-4.1771,-4.022,-4.022,-3.9767,-3.8902,-3.7252,-3.5152,-3.2866,-3.2043,-3.1711,-3.1711,-3.1711,-3.1711,-3.1724,-3.1784,-3.181,-3.1864,-3.2144,-3.2251,-3.2318,-3.2755,-3.2955,-3.3013,-3.3213,-3.3334,-3.3414,-3.3414,-3.3414,-3.3414,-3.3414,-3.3414,-3.3414,-3.3414,-3.3414,-3.3414,-3.3414,-3.3253,-3.3187,-3.3374,-3.3253,-3.3187,-3.3374,-3.3414,-3.3414,-3.3414,-3.3253,-3.3093,-3.2986,-3.2862,-3.2701,-3.2607,-3.2594,-3.2634,-3.2728,-3.2648,-3.2674,-3.2875,-3.2795,-3.2875,-3.3106,-3.312,-3.3213,-3.3414,-3.3414,-3.3213,-3.2888,-3.2888,-3.2888,-3.2888,-3.3026,-3.312,0.0,0.0,0.0,0.0,0.0,0.0,-2.3595,0.0,-2.4609,-2.6333,-2.7201,-2.775,-2.8169,-2.8491,-2.88,-2.9082,-2.9105,-2.9226,-2.9565,-2.9605,-2.9668,-2.9949,-2.9945,-2.99,-2.9913,-3.0181,-3.0386,-3.0386,-3.0875,-3.1162,-3.1209,-3.1503,-3.2772,-3.5106,-3.5277,-3.7558,-4.2353,-4.2443,-4.3682,-4.607,-4.3727,-4.2577,-4.2577,-4.2684,-4.1439,-3.9221,-3.9084,-3.762,-3.523,-3.2725,-3.1711,-3.1711,-3.1711,-3.1724,-3.1764,-3.1998,-3.2104,-3.2158,-3.25,-3.2607,-3.2607,-3.2621,-3.2808,-3.2986,-3.2986,-3.3187,-3.3414,-3.3414,-3.3414,-3.3414,-3.3414,-3.3414,-3.3414,-3.3414,-3.3414,-3.3414,-3.3414,-3.3414,-3.3414,-3.3414,-3.3414,-3.3414,-3.3414,-3.3414,-3.3414,-3.3414,-3.3414,-3.3307,-3.3026,-3.2986,-3.2929,-3.2648,-3.2621,-3.2741,-3.2973,-3.2781,-3.2862,-3.3374,-3.3146,-3.312,-3.34,-3.3414,-3.3414,-3.3414,-3.3414,-3.3414,-3.3414,-3.3414,-3.3414,-3.3414,-3.3414,-3.3414,-1.4474,0.0,0.0,0.0,0.0,0.0,0.0,-2.1203,-2.2472,-2.4249,-2.5077,-2.6289,-2.8942,-2.9929,-3.0816,-3.2371,-3.1915,-3.1453,-3.1641,-3.1598,-3.1671,-3.2048,-3.0627,-2.9686,-2.99,-2.9993,-3.0034,-3.0034,-3.0381,-3.0688,-3.0902,-3.1396,-3.1995,-3.2677,-3.4373,-3.5974,-3.7298,-3.9113,-4.0356,-4.1033,-4.2085,-4.2577,-4.2666,-4.4473,-4.4914,-4.41,-4.0537,-3.8628,-3.7666,-3.3464,-3.1711,-3.1711,-3.1711,-3.1797,-3.1984,-3.2078,-3.2238,-3.2514,-3.2808,-3.2915,-3.2942,-3.3106,-3.3227,-3.3293,-3.3293,-3.3347,-3.3414,-3.3414,-3.3414,-3.3414,-3.3414,-3.3414,-3.3414,-3.3414,-3.3414,-3.3414,-3.3414,-3.3414,-3.3414,-3.3414,-3.3414,-3.3414,-3.3414,-3.3414,-3.3414,-3.3414,-3.3414,-3.3387,-3.3307,-3.3293,-3.3253,-3.3187,-3.3173,-3.32,-3.328,-3.3213,-3.324,-3.34,-3.3334,-3.3334,-3.3414,-3.3414,-3.3414,-3.3414,-3.3414,-3.3414,-3.3414,-3.3414,-3.3414,-3.3414,-3.3414,-3.3414,-1.5208,-1.5738,0.0,0.0,0.0,0.0,-1.9292,-2.012,-2.1136,-2.3166,-2.4048,-2.5154,-2.7472,-2.8318,-2.9531,-3.1975,-3.1895,-3.1706,-3.2124,-3.1349,-3.0895,-3.1252,-3.0104,-2.9419,-2.9713,-2.974,-2.978,-2.99,-3.0194,-3.0533,-3.0782,-3.1236,-3.149,-3.149,-3.2971,-3.428,-3.5277,-3.6745,-3.7987,-3.9039,-4.0446,-4.1079,-4.1169,-4.2595,-4.3237,-4.3041,-3.9113,-3.7482,-3.716,-3.3276,-3.1711,-3.1724,-3.1797,-3.1957,-3.2131,-3.2372,-3.2572,-3.2822,-3.3053,-3.316,-3.3187,-3.336,-3.3414,-3.3414,-3.3414,-3.3414,-3.3414,-3.3414,-3.3414,-3.3414,-3.3414,-3.3414,-3.3414,-3.3414,-3.3414,-3.3414,-3.3414,-3.3414,-3.3414,-3.3414,-3.3414,-3.3414,-3.3414,-3.3414,-3.3414,-3.3414,-3.3414,-3.3414,-3.3414,-3.3414,-3.3414,-3.3414,-3.3414,-3.3414,-3.3414,-3.3414,-3.3414,-3.3414,-3.3414,-3.3414,-3.3414,-3.3414,-3.3414,-3.3414,-3.3414,-3.3414,-3.3414,-3.3414,-3.3414,-3.3414,-3.3414,-3.3414,-1.6262,-1.6528,0.0,0.0,-1.7328,0.0,-1.9722,-1.9907,-2.0214,0.0,-2.3207,-2.3852,-2.4833,-2.5317,-2.6554,-2.953,-3.0212,-3.067,-3.1634,-3.0114,-2.8915,-2.8951,-2.8948,-2.9068,-2.9406,-2.9432,-2.9553,-2.9847,-3.0167,-3.052,-3.0728,-3.1022,-3.1183,-3.1183,-3.1463,-3.2669,-3.4813,-3.4904,-3.6159,-3.8582,-3.8582,-3.8703,-3.8993,-3.8993,-3.8993,-3.884,-3.6375,-3.5277,-3.5106,-3.2677,-3.1711,-3.1738,-3.1957,-3.2078,-3.2171,-3.2732,-3.2946,-3.3026,-3.3307,-3.3414,-3.3414,-3.3414,-3.3414,-3.3414,-3.3414,-3.3414,-3.3414,-3.3414,-3.3414,-3.3414,-3.3414,-3.3414,-3.3414,-3.3414,-3.3414,-3.3414,-3.3414,-3.3414,-3.3414,-3.3414,-3.3414,-3.3414,-3.3414,-3.3414,-3.3414,-3.3414,-3.3414,-3.3414,-3.3414,-3.3414,-3.3414,-3.3414,-3.3414,-3.3414,-3.3414,-3.3414,-3.3414,-3.3414,-3.3414,-3.3414,-3.3414,-3.3414,-3.3414,-3.3414,-3.3414,-3.3414,-3.3414,-3.3414,-3.3414,-3.3414,-3.3414,-3.3414,-1.8196,-1.8397,-1.8692,-1.7862,0.0,0.0,-1.7729,-1.7929,-1.8556,0.0,-1.9519,-2.0607,-2.3809,-2.5271,-2.6729,-2.9003,-2.9435,-2.9919,-3.1272,-3.1123,-3.0322,-2.8859,-2.8684,-2.8804,-2.9055,-2.9081,-2.9245,-2.9539,-3.0105,-3.0426,-3.0493,-3.0715,-3.0875,-3.0875,-3.1156,-3.1537,-3.1992,-3.2285,-3.3638,-3.602,-3.602,-3.7067,-3.8993,-3.8993,-3.8993,-3.884,-3.6375,-3.5277,-3.5106,-3.2677,-3.1711,-3.1724,-3.1778,-3.1891,-3.2144,-3.2554,-3.2822,-3.3026,-3.3307,-3.3414,-3.3414,-3.3414,-3.3414,-3.3414,-3.3414,-3.3414,-3.3414,-3.3414,-3.3414,-3.3414,-3.3414,-3.3414,-3.3414,-3.3414,-3.3414,-3.3414,-3.3414,-3.3414,-3.3414,-3.3414,-3.3414,-3.3414,-3.3414,-3.3414,-3.3414,-3.3414,-3.3414,-3.3414,-3.3414,-3.3414,-3.3414,-3.3414,-3.3414,-3.3414,-3.3414,-3.3414,-3.3414,-3.3414,-3.3414,-3.3414,-3.3414,-3.3414,-3.3414,-3.3414,-3.3414,-3.3414,-3.3414,-3.3414,-3.3414,-3.3414,-3.3414,-3.3414,-1.664,-1.7317,-1.8181,-1.7728,0.0,0.0,0.0,-1.8329,-1.8517,-1.9399,-1.9118,-1.942,-2.177,-2.2714,-2.4038,-2.6745,-2.6793,-2.7176,-2.9136,-2.9374,-2.9006,-2.8035,-2.807,-2.827,-2.8564,-2.8738,-2.8951,-2.9245,-2.9673,-2.9972,-2.9972,-3.0341,-3.0627,-3.0627,-3.0996,-3.1176,-3.1176,-3.1517,-3.2313,-3.3497,-3.3497,-3.4139,-3.5385,-3.5385,-3.5385,-3.5292,-3.4046,-3.3497,-3.3417,-3.2334,-3.1891,-3.1904,-3.2099,-3.2326,-3.2572,-3.2866,-3.3066,-3.3213,-3.336,-3.3414,-3.3414,-3.3414,-3.3414,-3.3414,-3.3414,-3.3414,-3.3414,-3.3414,-3.3414,-3.3414,-3.3414,-3.3414,-3.3414,-3.3414,-3.3414,-3.3414,-3.3414,-3.3414,-3.3414,-3.3414,-3.3414,-3.3414,-3.3414,-3.3414,-3.3414,-3.3414,-3.3414,-3.3414,-3.3414,-3.3414,-3.3414,-3.3414,-3.3414,-3.3414,-3.3414,-3.3414,-3.3414,-3.3414,-3.3414,-3.3414,-3.3414,-3.3414,-3.3414,-3.3414,-3.3414,-3.3414,-3.3414,-3.3414,-3.3414,-3.3414,-3.3414,-3.3414,0.0,0.0,0.0,0.0,0.0,-1.9148,0.0,0.0,0.0,-1.9843,-1.9292,-1.885,0.0,0.0,0.0,-2.3359,0.0,0.0,0.0,-2.6294,0.0,-2.7119,-2.7284,-2.762,-2.8179,-2.8342,-2.8553,-2.8911,-2.9171,-2.9363,-2.9503,-2.9972,-3.0266,-3.0319,-3.0835,-3.1142,-3.1142,-3.149,-3.1711,-3.1711,-3.1711,-3.1711,-3.1711,-3.1711,-3.1711,-3.1724,-3.173,-3.1805,-3.1818,-3.2064,-3.2225,-3.2291,-3.2527,-3.2741,-3.2982,-3.3213,-3.3334,-3.3334,-3.3387,-3.3414,-3.3414,-3.3414,-3.3414,-3.3414,-3.3414,-3.3414,-3.3414,-3.3414,-3.3414,-3.3414,-3.3414,-3.3414,-3.3414,-3.3414,-3.3414,-3.3414,-3.3414,-3.3414,-3.3414,-3.3414,-3.3414,-3.3414,-3.3414,-3.3414,-3.3414,-3.3414,-3.3414,-3.3414,-3.3414,-3.3414,-3.3414,-3.3414,-3.3414,-3.3414,-3.3414,-3.3414,-3.3414,-3.3414,-3.3414,-3.3414,-3.3414,-3.3414,-3.3414,-3.3414,-3.3414,-3.3414,-3.3414,-3.3414,-3.3414,-3.3414,-3.3414,-3.3414,0.0,0.0,0.0,0.0,-1.8376,0.0,0.0,0.0,-1.8973,-1.7836,0.0,0.0,0.0,0.0,0.0,0.0,0.0,0.0,-2.1045,-2.2384,-2.42,-2.6417,-2.6378,-2.6772,-2.8264,-2.7904,-2.7897,-2.8596,-2.859,-2.8823,-2.9467,-2.9539,-2.97,-2.9953,-3.0541,-3.0849,-3.0849,-3.1396,-3.1711,-3.1711,-3.1711,-3.1711,-3.1711,-3.1711,-3.1711,-3.1724,-3.1944,-3.2051,-3.2078,-3.242,-3.2688,-3.2853,-3.2688,-3.2621,-3.2674,-3.2969,-3.3026,-3.3066,-3.332,-3.3414,-3.3414,-3.3414,-3.3414,-3.3414,-3.3414,-3.3414,-3.3414,-3.3414,-3.3414,-3.3414,-3.3414,-3.3414,-3.3414,-3.3414,-3.3414,-3.3414,-3.3414,-3.3414,-3.3414,-3.3414,-3.3414,-3.3414,-3.3414,-3.3414,-3.3414,-3.3414,-3.3414,-3.3414,-3.3414,-3.3414,-3.3414,-3.3414,-3.3414,-3.3414,-3.3414,-3.3414,-3.3414,-3.3414,-3.3414,-3.3414,-3.3414,-3.3414,-3.3414,-3.3414,-3.3414,-3.3414,-3.3414,-3.3414,-3.3414,-3.3414,-3.3414,-3.3414,0.0,0.0,0.0,0.0,0.0,0.0,-1.8052,0.0,-1.8812,0.0,0.0,0.0,0.0,0.0,0.0,0.0,-1.9023,0.0,0.0,0.0,-2.1949,-2.4178,0.0,-2.6033,-2.7415,-2.665,-2.64,-2.7055,-2.7185,-2.758,-2.8419,-2.9098,-2.9539,-2.9659,-3.0234,-3.0621,-3.0795,-3.1209,-3.1503,-3.1711,-3.1711,-3.1711,-3.1711,-3.1711,-3.1711,-3.1724,-3.1971,-3.2104,-3.2144,-3.2648,-3.2915,-3.2986,-3.3026,-3.3053,-3.3066,-3.3187,-3.3227,-3.324,-3.3374,-3.3414,-3.3414,-3.3414,-3.3414,-3.3414,-3.3414,-3.3414,-3.3414,-3.3414,-3.3414,-3.3414,-3.3414,-3.3414,-3.3414,-3.3414,-3.3414,-3.3414,-3.3414,-3.3414,-3.3414,-3.3414,-3.3414,-3.3414,-3.3414,-3.3414,-3.3414,-3.3414,-3.3414,-3.3414,-3.3414,-3.3414,-3.3414,-3.3414,-3.3414,-3.3414,-3.3414,-3.3414,-3.3414,-3.3414,-3.3414,-3.3414,-3.3414,-3.3414,-3.3414,-3.3414,-3.3414,-3.3414,-3.3414,-3.3414,-3.3414,-3.3414,-3.3414,-3.3414,-1.3409,0.0,0.0,0.0,0.0,0.0,0.0,0.0,0.0,0.0,0.0,0.0,0.0,0.0,0.0,0.0,0.0,-1.8543,0.0,-1.8611,0.0,0.0,0.0,0.0,-2.5748,-2.4993,-2.4807,-2.5702,-2.5832,-2.6427,-2.7615,-2.8604,-2.9232,-2.9472,-3.0105,-3.0507,-3.0675,-3.1036,-3.133,-3.1543,-3.1671,-3.1711,-3.1711,-3.1711,-3.1711,-3.1738,-3.2064,-3.2225,-3.2265,-3.2853,-3.3093,-3.312,-3.3334,-3.3414,-3.3414,-3.3414,-3.3414,-3.3414,-3.3414,-3.3414,-3.3414,-3.3414,-3.3414,-3.3414,-3.3414,-3.3414,-3.3414,-3.3414,-3.3414,-3.3414,-3.3414,-3.3414,-3.3414,-3.3414,-3.3414,-3.3414,-3.3414,-3.3414,-3.3414,-3.3414,-3.3414,-3.3414,-3.3414,-3.3414,-3.3414,-3.3414,-3.3414,-3.3414,-3.3414,-3.3414,-3.3414,-3.3414,-3.3414,-3.3414,-3.3414,-3.3414,-3.3414,-3.3414,-3.3414,-3.3414,-3.3414,-3.3414,-3.3414,-3.3414,-3.3414,-3.3414,-3.3414,-3.3414,-3.3414,-3.3414,-3.3414,-3.3414,0.0,0.0,0.0,-1.3534,0.0,0.0,0.0,0.0,-1.8018,0.0,0.0,0.0,0.0,0.0,0.0,0.0,0.0,0.0,0.0,0.0,0.0,0.0,0.0,0.0,0.0,-2.2875,-2.342,-2.5002,-2.4799,-2.5456,-2.7591,-2.8045,-2.8634,-2.9459,-3.0105,-3.0413,-3.0426,-3.0942,-3.1236,-3.1203,-3.153,-3.1711,-3.1711,-3.1711,-3.1711,-3.1751,-3.2326,-3.2581,-3.2621,-3.316,-3.34,-3.34,-3.3414,-3.3414,-3.3414,-3.3414,-3.3414,-3.3414,-3.3414,-3.3414,-3.3414,-3.3414,-3.3414,-3.3414,-3.3414,-3.3414,-3.3414,-3.3414,-3.3414,-3.3414,-3.3414,-3.3414,-3.3414,-3.3414,-3.3414,-3.3414,-3.3414,-3.3414,-3.3414,-3.3414,-3.3414,-3.3414,-3.3414,-3.3414,-3.3414,-3.3414,-3.3414,-3.3414,-3.3414,-3.3414,-3.3414,-3.3414,-3.3414,-3.3414,-3.3414,-3.3414,-3.3414,-3.3414,-3.3414,-3.3414,-3.3414,-3.3414,-3.3414,-3.3414,-3.3414,-3.3414,-3.3414,-3.3414,-3.3414,-3.3414,-3.3414,-3.3414,-1.9424,-1.9165,-1.8617,-1.543,0.0,0.0,0.0,0.0,0.0,0.0,0.0,0.0,0.0,0.0,0.0,0.0,0.0,0.0,0.0,0.0,0.0,0.0,0.0,0.0,0.0,0.0,-2.2038,-2.2995,-2.3644,-2.4838,-2.6747,-2.771,-2.85,-2.9165,-2.9579,-3.0012,-3.04,-3.0742,-3.1036,-3.1176,-3.153,-3.1711,-3.1711,-3.1711,-3.1711,-3.1751,-3.234,-3.2594,-3.2634,-3.3173,-3.3414,-3.3414,-3.3414,-3.3414,-3.3414,-3.3414,-3.3414,-3.3414,-3.3414,-3.3414,-3.3414,-3.3414,-3.3414,-3.3414,-3.3414,-3.3414,-3.3414,-3.3414,-3.3414,-3.3414,-3.3414,-3.3414,-3.3414,-3.3414,-3.3414,-3.3414,-3.3414,-3.3414,-3.3414,-3.3414,-3.3414,-3.3414,-3.3414,-3.3414,-3.3414,-3.3414,-3.3414,-3.3414,-3.3414,-3.3414,-3.3414,-3.3414,-3.3414,-3.3414,-3.3414,-3.3414,-3.3414,-3.3414,-3.3414,-3.3414,-3.3414,-3.3414,-3.3414,-3.3414,-3.3414,-3.3414,-3.3414,-3.3414,-3.3414,-3.3414,-3.3414,-3.3414,-2.1926,-2.1828,-2.099,-1.6742,-1.7073,0.0,-1.4772,0.0,-1.9455,0.0,0.0,0.0,0.0,0.0,0.0,0.0,0.0,0.0,0.0,-1.6555,0.0,0.0,0.0,0.0,0.0,0.0,-2.0521,-2.177,-2.2479,-2.3728,0.0,-2.7081,-2.8043,-2.8815,-2.9272,-2.9713,-3.0194,-3.0595,-3.0889,-3.1076,-3.1476,-3.1711,-3.1711,-3.1711,-3.1711,-3.1751,-3.234,-3.2594,-3.2634,-3.3173,-3.3414,-3.3414,-3.3414,-3.3414,-3.3414,-3.3414,-3.3414,-3.3414,-3.3414,-3.3414,-3.3414,-3.3414,-3.3414,-3.3414,-3.3414,-3.3414,-3.3414,-3.3414,-3.3414,-3.3414,-3.3414,-3.3414,-3.3414,-3.3414,-3.3414,-3.3414,-3.3414,-3.3414,-3.3414,-3.3414,-3.3414,-3.3414,-3.3414,-3.3414,-3.3414,-3.3414,-3.3414,-3.3414,-3.3414,-3.3414,-3.3414,-3.3414,-3.3414,-3.3414,-3.3414,-3.3414,-3.3414,-3.3414,-3.3414,-3.3414,-3.3414,-3.3414,-3.3414,-3.3414,-3.3414,-3.3414,-3.3414,-3.3414,-3.3414,-3.3414,-3.3414,-3.3414]},{"header":{"parameterUnit":"m.s-1","parameterCategory":1,"la1":30.6,"la2":29.2853,"lo1":-89.7004,"lo2":-87.6739,"dy":0.0162,"dx":0.0183,"nx":112,"ny":82,"refTime":"2024-06-17T18:00:00:Z","depth":0,"parameterNumber":3,"parameterNumberName":"V-component_of_WINDS"},"data":[0.0,0.0,0.0,0.0,0.0,0.0,0.0,0.0,0.0,0.0,0.0,0.0,0.0,0.0,0.0,0.0,0.0,0.0,0.0,0.0,0.0,0.0,0.0,0.0,0.0,0.0,0.0,0.0,0.0,0.0,0.0,0.0,0.0,0.0,0.0,0.0,0.0,0.0,0.0,0.0,0.0,0.0,0.0,0.0,0.0,0.0,0.0,0.0,0.0,0.0,0.0,0.0,0.0,0.0,0.0,0.0,0.0,0.0,0.0,0.0,0.0,0.0,0.0,0.0,0.0,0.0,0.0,0.0,0.0,0.0,0.0,0.0,0.0,0.0,0.0,0.0,0.0,0.0,0.0,0.0,0.0,0.0,0.0,0.0,0.0,0.0,0.0,0.0,0.0,0.0,3.8319,4.1796,4.5429,4.7617,4.7617,4.6016,4.2422,3.6367,0.0,0.0,0.0,0.0,0.0,0.0,0.0,0.0,0.0,0.0,0.0,0.0,0.0,0.0,0.0,0.0,0.0,0.0,0.0,0.0,0.0,0.0,0.0,0.0,0.0,0.0,0.0,0.0,0.0,0.0,0.0,0.0,0.0,0.0,0.0,0.0,0.0,0.0,0.0,0.0,0.0,0.0,0.0,0.0,0.0,0.0,0.0,0.0,0.0,0.0,0.0,0.0,0.0,0.0,0.0,0.0,0.0,0.0,0.0,0.0,0.0,0.0,0.0,0.0,0.0,0.0,0.0,0.0,0.0,0.0,0.0,0.0,0.0,0.0,0.0,0.0,0.0,0.0,0.0,0.0,0.0,0.0,0.0,0.0,0.0,0.0,0.0,0.0,0.0,0.0,0.0,0.0,0.0,0.0,0.0,0.0,0.0,0.0,0.0,0.0,0.0,0.0,0.0,0.0,3.8645,4.5709,4.7144,4.7617,4.7617,4.6016,4.2422,3.6367,0.0,0.0,0.0,0.0,0.0,0.0,0.0,0.0,0.0,0.0,0.0,0.0,0.0,0.0,0.0,0.0,0.0,0.0,0.0,0.0,0.0,0.0,0.0,0.0,0.0,0.0,0.0,0.0,0.0,0.0,0.0,0.0,0.0,0.0,0.0,0.0,0.0,0.0,0.0,0.0,0.0,0.0,0.0,0.0,0.0,0.0,0.0,0.0,0.0,0.0,0.0,0.0,0.0,0.0,0.0,0.0,0.0,0.0,0.0,0.0,0.0,0.0,0.0,0.0,0.0,0.0,0.0,0.0,0.0,0.0,0.0,0.0,0.0,0.0,0.0,0.0,0.0,0.0,0.0,0.0,0.0,0.0,0.0,0.0,0.0,0.0,0.0,0.0,0.0,0.0,0.0,0.0,0.0,0.0,0.0,0.0,0.0,0.0,0.0,0.0,0.0,0.0,0.0,3.7951,4.144,4.7354,4.8123,4.8188,4.8188,4.6248,4.2422,3.6367,3.468,0.0,0.0,0.0,0.0,0.0,0.0,0.0,0.0,0.0,0.0,0.0,0.0,0.0,0.0,0.0,0.0,0.0,0.0,0.0,0.0,0.0,0.0,0.0,0.0,0.0,0.0,0.0,0.0,0.0,0.0,0.0,0.0,0.0,0.0,0.0,0.0,0.0,0.0,0.0,0.0,0.0,0.0,0.0,0.0,0.0,0.0,0.0,0.0,0.0,0.0,0.0,0.0,0.0,0.0,0.0,0.0,0.0,0.0,0.0,0.0,0.0,0.0,0.0,0.0,0.0,0.0,0.0,0.0,0.0,0.0,0.0,0.0,0.0,0.0,0.0,0.0,0.0,0.0,0.0,0.0,0.0,0.0,0.0,0.0,0.0,0.0,0.0,0.0,0.0,0.0,0.0,0.0,0.0,0.0,0.0,0.0,0.0,0.0,0.0,0.0,0.0,0.0,4.2225,4.4882,4.8406,4.8702,4.8683,4.8699,4.5845,4.1756,3.6328,3.3746,0.0,0.0,0.0,0.0,0.0,0.0,0.0,0.0,0.0,0.0,0.0,0.0,0.0,0.0,0.0,0.0,0.0,0.0,0.0,0.0,0.0,0.0,0.0,0.0,0.0,0.0,0.0,0.0,0.0,0.0,0.0,0.0,0.0,0.0,0.0,0.0,0.0,0.0,0.0,0.0,0.0,0.0,0.0,0.0,0.0,0.0,0.0,0.0,0.0,0.0,0.0,0.0,0.0,0.0,0.0,0.0,0.0,0.0,0.0,0.0,0.0,0.0,0.0,0.0,0.0,0.0,0.0,0.0,0.0,0.0,0.0,0.0,0.0,0.0,0.0,0.0,0.0,0.0,0.0,0.0,0.0,0.0,0.0,0.0,0.0,0.0,0.0,0.0,0.0,0.0,0.0,0.0,0.0,0.0,0.0,0.0,0.0,0.0,0.0,0.0,0.0,0.0,4.3859,4.8283,4.9403,4.8927,4.8542,4.8695,4.4134,3.9783,3.6211,3.2148,0.0,0.0,0.0,0.0,0.0,0.0,0.0,0.0,0.0,0.0,0.0,0.0,0.0,0.0,0.0,0.0,0.0,0.0,0.0,0.0,0.0,0.0,0.0,0.0,0.0,0.0,0.0,0.0,0.0,0.0,0.0,0.0,0.0,0.0,0.0,0.0,0.0,0.0,0.0,0.0,0.0,0.0,0.0,0.0,0.0,0.0,0.0,0.0,0.0,0.0,0.0,0.0,0.0,0.0,0.0,0.0,0.0,0.0,0.0,0.0,0.0,0.0,0.0,0.0,0.0,0.0,0.0,0.0,0.0,0.0,0.0,0.0,0.0,0.0,0.0,0.0,0.0,0.0,0.0,0.0,0.0,0.0,0.0,0.0,0.0,0.0,0.0,0.0,0.0,0.0,0.0,0.0,0.0,0.0,0.0,0.0,0.0,0.0,0.0,0.0,0.0,0.0,4.2173,4.6182,0.0,4.9287,4.8986,4.8499,4.5827,4.1794,3.6227,0.0,0.0,0.0,0.0,0.0,0.0,0.0,0.0,0.0,0.0,0.0,0.0,0.0,0.0,0.0,0.0,0.0,0.0,0.0,0.0,0.0,0.0,0.0,0.0,0.0,0.0,0.0,0.0,0.0,0.0,0.0,0.0,0.0,0.0,0.0,0.0,0.0,0.0,0.0,0.0,0.0,0.0,0.0,0.0,0.0,0.0,0.0,0.0,0.0,0.0,0.0,0.0,0.0,0.0,0.0,0.0,0.0,0.0,0.0,0.0,0.0,0.0,0.0,0.0,0.0,0.0,0.0,0.0,0.0,0.0,0.0,0.0,0.0,0.0,0.0,0.0,0.0,0.0,0.0,0.0,0.0,0.0,0.0,0.0,0.0,0.0,0.0,0.0,0.0,0.0,0.0,0.0,0.0,0.0,0.0,0.0,0.0,0.0,0.0,0.0,0.0,0.0,3.8276,4.2252,4.6009,0.0,4.9646,4.9216,4.8386,4.5898,4.1951,3.6154,0.0,0.0,0.0,0.0,0.0,0.0,0.0,0.0,0.0,0.0,0.0,0.0,0.0,0.0,0.0,0.0,0.0,0.0,0.0,0.0,0.0,0.0,0.0,0.0,0.0,0.0,0.0,0.0,0.0,0.0,0.0,0.0,0.0,0.0,0.0,0.0,0.0,0.0,0.0,0.0,0.0,0.0,0.0,0.0,0.0,0.0,0.0,0.0,0.0,0.0,0.0,0.0,0.0,0.0,0.0,0.0,0.0,0.0,0.0,0.0,0.0,0.0,0.0,0.0,0.0,0.0,0.0,0.0,0.0,0.0,0.0,0.0,0.0,0.0,0.0,0.0,0.0,0.0,0.0,0.0,0.0,0.0,0.0,0.0,0.0,0.0,0.0,0.0,0.0,0.0,0.0,0.0,0.0,0.0,0.0,0.0,0.0,0.0,0.0,0.0,0.0,0.0,4.0092,4.497,4.8817,5.0553,4.9938,4.9139,4.8375,4.3727,3.9406,0.0,0.0,0.0,0.0,0.0,0.0,0.0,0.0,0.0,0.0,0.0,0.0,0.0,0.0,0.0,0.0,0.0,0.0,0.0,0.0,0.0,0.0,0.0,0.0,0.0,0.0,0.0,0.0,0.0,0.0,0.0,0.0,0.0,0.0,0.0,0.0,0.0,0.0,0.0,0.0,0.0,0.0,0.0,0.0,0.0,0.0,0.0,0.0,0.0,0.0,0.0,0.0,0.0,0.0,0.0,0.0,0.0,0.0,0.0,0.0,0.0,0.0,0.0,0.0,0.0,0.0,0.0,0.0,0.0,0.0,0.0,0.0,0.0,0.0,0.0,0.0,0.0,0.0,0.0,0.0,0.0,0.0,0.0,0.0,0.0,0.0,0.0,0.0,0.0,0.0,0.0,0.0,0.0,0.0,0.0,0.0,0.0,0.0,0.0,0.0,0.0,0.0,0.0,4.1816,4.6783,5.0592,5.2279,5.1697,5.0842,5.0069,4.7019,4.2696,3.6931,0.0,0.0,0.0,0.0,0.0,0.0,0.0,0.0,0.0,0.0,0.0,0.0,0.0,0.0,0.0,0.0,0.0,0.0,0.0,0.0,0.0,0.0,0.0,0.0,0.0,0.0,0.0,0.0,0.0,0.0,0.0,0.0,0.0,0.0,0.0,0.0,0.0,0.0,0.0,0.0,0.0,0.0,0.0,0.0,0.0,0.0,0.0,0.0,0.0,0.0,0.0,0.0,0.0,0.0,0.0,0.0,0.0,0.0,0.0,0.0,0.0,0.0,0.0,0.0,0.0,0.0,0.0,0.0,0.0,0.0,0.0,0.0,0.0,0.0,0.0,0.0,0.0,0.0,0.0,0.0,0.0,0.0,0.0,0.0,0.0,0.0,0.0,0.0,0.0,0.0,0.0,0.0,0.0,0.0,0.0,0.0,0.0,0.0,0.0,0.0,0.0,0.0,4.2534,4.742,5.1162,5.2995,5.2736,5.1967,5.0784,4.8727,4.4782,3.8319,0.0,0.0,0.0,0.0,0.0,0.0,0.0,0.0,0.0,0.0,0.0,0.0,0.0,0.0,0.0,0.0,0.0,0.0,0.0,0.0,0.0,0.0,0.0,0.0,0.0,0.0,0.0,0.0,0.0,0.0,0.0,0.0,0.0,0.0,0.0,0.0,0.0,0.0,0.0,0.0,0.0,0.0,0.0,0.0,0.0,0.0,0.0,0.0,0.0,0.0,0.0,0.0,0.0,0.0,0.0,0.0,0.0,0.0,0.0,0.0,0.0,0.0,0.0,0.0,0.0,0.0,0.0,0.0,0.0,0.0,0.0,0.0,0.0,0.0,0.0,0.0,0.0,0.0,0.0,0.0,0.0,0.0,0.0,0.0,0.0,0.0,0.0,0.0,0.0,0.0,0.0,0.0,0.0,0.0,0.0,0.0,0.0,0.0,0.0,0.0,0.0,0.0,4.2893,4.7597,5.1258,5.3283,5.3425,5.2749,5.1169,4.9483,4.6053,4.023,0.0,0.0,0.0,0.0,0.0,0.0,0.0,0.0,0.0,0.0,0.0,0.0,0.0,0.0,0.0,0.0,0.0,0.0,0.0,0.0,0.0,0.0,0.0,0.0,0.0,0.0,0.0,0.0,0.0,0.0,0.0,0.0,0.0,0.0,0.0,0.0,0.0,0.0,0.0,0.0,0.0,0.0,0.0,0.0,0.0,0.0,0.0,0.0,0.0,0.0,0.0,0.0,0.0,0.0,0.0,0.0,0.0,0.0,0.0,0.0,4.0444,0.0,0.0,0.0,0.0,0.0,0.0,0.0,0.0,0.0,0.0,0.0,0.0,0.0,0.0,0.0,0.0,0.0,0.0,0.0,0.0,0.0,0.0,0.0,0.0,0.0,0.0,0.0,0.0,0.0,0.0,0.0,0.0,0.0,0.0,0.0,0.0,0.0,0.0,0.0,0.0,0.0,4.5742,5.0589,5.4048,5.5497,5.5033,5.4343,5.372,5.1554,4.8227,4.3606,3.9414,0.0,0.0,0.0,0.0,0.0,0.0,0.0,0.0,0.0,0.0,0.0,0.0,0.0,0.0,0.0,0.0,0.0,0.0,0.0,0.0,0.0,0.0,0.0,0.0,0.0,0.0,0.0,0.0,0.0,0.0,0.0,0.0,0.0,0.0,0.0,0.0,0.0,0.0,0.0,0.0,0.0,0.0,0.0,0.0,0.0,0.0,0.0,0.0,0.0,0.0,0.0,0.0,0.0,0.0,0.0,0.0,0.0,0.0,0.0,0.0,4.5035,0.0,0.0,0.0,0.0,0.0,0.0,0.0,0.0,0.0,0.0,0.0,0.0,0.0,0.0,0.0,0.0,0.0,0.0,0.0,0.0,0.0,0.0,0.0,0.0,0.0,0.0,0.0,0.0,0.0,0.0,0.0,0.0,0.0,0.0,0.0,0.0,0.0,0.0,0.0,0.0,4.73,5.1594,5.4756,5.6421,5.5822,5.5113,5.4515,5.2694,4.9975,4.6124,4.2537,0.0,0.0,0.0,0.0,0.0,0.0,0.0,0.0,0.0,0.0,0.0,0.0,0.0,0.0,0.0,0.0,0.0,0.0,0.0,0.0,0.0,0.0,0.0,0.0,0.0,0.0,0.0,0.0,0.0,0.0,0.0,0.0,0.0,0.0,0.0,0.0,0.0,0.0,0.0,0.0,0.0,0.0,0.0,0.0,0.0,0.0,0.0,0.0,0.0,0.0,0.0,0.0,0.0,5.8164,5.9231,5.9681,5.9243,5.9588,6.0318,5.5609,5.3493,5.3004,4.8409,0.0,0.0,0.0,0.0,0.0,0.0,0.0,0.0,0.0,0.0,0.0,0.0,0.0,0.0,0.0,0.0,0.0,0.0,0.0,0.0,0.0,0.0,4.7143,4.8041,4.9712,4.9143,4.2226,0.0,0.0,0.0,0.0,0.0,0.0,0.0,0.0,0.0,0.0,0.0,4.8475,5.219,5.5025,5.6781,5.6399,5.5614,5.4692,5.357,5.1572,4.846,4.5476,4.2471,0.0,0.0,0.0,0.0,0.0,0.0,0.0,0.0,0.0,0.0,0.0,0.0,0.0,0.0,0.0,0.0,0.0,0.0,0.0,0.0,0.0,0.0,0.0,0.0,0.0,0.0,0.0,0.0,0.0,0.0,0.0,0.0,3.9229,4.0945,0.0,0.0,0.0,0.0,0.0,0.0,0.0,0.0,0.0,0.0,0.0,0.0,0.0,5.7884,5.8342,6.1295,6.2446,6.1804,6.4391,6.5357,6.4837,6.5512,6.5891,6.6033,6.5248,0.0,5.6198,5.3598,0.0,0.0,0.0,0.0,0.0,0.0,0.0,0.0,0.0,0.0,0.0,0.0,0.0,0.0,0.0,0.0,0.0,0.0,0.0,0.0,0.0,0.0,5.4065,5.3474,5.4081,5.4101,5.166,4.7826,4.3983,4.1109,3.9083,0.0,0.0,0.0,0.0,0.0,0.0,0.0,5.0322,5.4122,5.6651,5.7288,5.7235,5.6743,5.5634,5.4681,5.3338,5.1443,4.8239,4.5746,4.426,4.0313,0.0,0.0,0.0,0.0,0.0,0.0,0.0,0.0,0.0,0.0,0.0,0.0,0.0,0.0,0.0,0.0,0.0,0.0,0.0,0.0,0.0,0.0,0.0,0.0,0.0,0.0,0.0,0.0,0.0,4.0,4.4606,4.4731,4.5966,4.5829,0.0,0.0,0.0,0.0,0.0,0.0,0.0,0.0,0.0,6.0372,6.2891,6.406,6.371,6.6679,6.7949,6.7602,6.9225,7.0042,7.0132,7.0106,6.9844,6.9431,6.9003,6.6689,6.287,5.9511,5.731,5.5789,0.0,0.0,0.0,0.0,5.2678,5.2883,5.3976,5.4037,5.3375,5.2078,0.0,0.0,0.0,0.0,0.0,0.0,0.0,5.0619,5.1986,5.4231,5.6179,5.6304,5.6926,5.7206,5.6044,5.4056,5.114,4.6572,4.5918,4.4646,3.9888,0.0,0.0,0.0,0.0,4.9137,5.2819,5.5328,5.7059,5.767,5.7322,5.6863,5.6367,5.5333,5.4216,5.3029,5.0919,4.9049,4.758,4.4357,4.1178,0.0,0.0,0.0,0.0,0.0,0.0,0.0,0.0,0.0,0.0,0.0,0.0,0.0,0.0,0.0,0.0,0.0,0.0,0.0,0.0,0.0,0.0,0.0,0.0,0.0,0.0,0.0,0.0,4.5115,4.9265,4.8581,5.1189,5.1685,0.0,0.0,0.0,0.0,0.0,0.0,6.101,6.2951,6.4788,6.6596,6.8925,6.979,6.9101,7.1379,7.2541,7.2428,7.2969,7.351,7.4041,7.3308,7.2665,7.2101,7.1345,7.0398,6.8972,6.4509,6.2321,6.149,5.9014,5.8032,5.8113,5.9097,5.9042,5.8806,6.1027,6.0923,5.9541,5.7998,5.6417,5.4365,5.0413,0.0,0.0,0.0,0.0,5.4167,5.6348,5.7192,5.7723,5.8569,5.9068,5.9202,5.86,5.8477,5.6899,5.1503,5.158,5.0822,4.5333,0.0,0.0,0.0,0.0,5.2063,5.4751,5.6259,5.7336,5.7923,5.7446,5.7042,5.6811,5.5987,5.5016,5.4032,5.288,5.1624,5.0257,4.777,4.5153,4.2402,0.0,0.0,0.0,0.0,0.0,0.0,0.0,0.0,0.0,0.0,0.0,0.0,0.0,0.0,0.0,0.0,0.0,0.0,0.0,0.0,0.0,0.0,0.0,0.0,0.0,0.0,0.0,0.0,0.0,5.2925,5.7025,0.0,0.0,0.0,0.0,5.863,6.1704,6.4973,6.8191,6.9676,7.1753,7.462,7.4612,7.481,7.5259,7.5419,7.5486,7.5473,7.5506,7.554,7.5574,7.483,7.4492,7.4367,7.3646,7.3297,7.2823,6.7616,6.5479,6.5265,6.3749,6.3537,6.407,6.3464,6.3643,6.4117,6.3572,6.2871,6.2571,6.4634,6.3258,6.0333,5.7883,5.6615,0.0,0.0,5.7339,5.9013,6.0581,6.0476,6.0118,6.0926,6.0592,6.0054,6.0002,6.0037,5.9121,5.5804,5.4041,5.2701,5.1587,0.0,5.0708,5.1505,5.3083,5.4505,5.5434,5.6955,5.796,5.7997,5.796,5.7629,5.6847,5.6723,5.6048,5.4468,5.3571,5.2887,5.2353,5.0016,4.8055,4.6608,4.1789,0.0,0.0,0.0,0.0,0.0,0.0,0.0,0.0,0.0,0.0,0.0,0.0,0.0,0.0,0.0,0.0,0.0,0.0,0.0,0.0,0.0,0.0,0.0,0.0,0.0,0.0,0.0,0.0,5.9318,6.3233,0.0,6.097,6.2818,6.48,6.6109,6.9229,7.2239,7.4992,7.5865,7.6732,7.7653,7.7347,7.6942,7.6454,7.6927,7.7164,7.7164,7.7164,7.7164,7.7164,7.6893,7.6521,7.6048,7.5236,7.4661,7.4018,7.1684,7.0156,6.9157,6.7679,6.727,6.7479,6.7189,6.727,6.7433,6.7188,6.6576,6.5927,6.582,6.4376,6.2523,6.1688,6.0913,6.0412,6.0886,6.1442,6.2138,6.317,6.3226,6.3057,6.3362,6.3193,6.2753,6.1772,6.1601,6.0981,5.8856,5.7631,5.6387,5.4532,5.4437,5.4554,5.4363,5.568,5.7207,5.8525,5.8719,5.8756,5.8756,5.8327,5.7886,5.7593,5.6602,5.5574,5.4473,5.3151,5.1885,5.0672,4.9824,4.8624,4.7054,4.4259,4.08,0.0,0.0,0.0,0.0,0.0,0.0,0.0,0.0,0.0,0.0,0.0,0.0,0.0,0.0,0.0,0.0,0.0,0.0,0.0,0.0,0.0,0.0,0.0,0.0,0.0,0.0,6.3539,6.4347,6.8261,6.9889,6.7173,6.9376,7.1615,7.323,7.5616,7.7928,8.0094,8.0045,8.0113,8.0505,7.9781,7.9184,7.8754,7.9228,7.9464,7.9464,7.9464,7.9464,7.9464,7.8957,7.8483,7.7976,7.6927,7.6183,7.5676,7.4661,7.368,7.2665,7.1142,7.0432,7.0195,7.0195,7.006,6.9823,6.9553,6.9113,6.847,6.7252,6.6203,6.5337,6.5087,6.4478,6.4005,6.4478,6.4424,6.441,6.5155,6.5155,6.4952,6.4952,6.4783,6.4343,6.3328,6.3125,6.2753,6.1501,6.0284,5.8953,5.7363,5.7366,5.7494,5.724,5.7667,5.8578,6.0188,5.9701,5.931,5.9576,5.8866,5.84,5.84,5.6932,5.5794,5.5244,5.3445,5.194,5.0849,4.9747,4.8636,4.7526,4.5397,4.2807,3.9815,0.0,0.0,0.0,0.0,0.0,0.0,0.0,0.0,0.0,0.0,0.0,0.0,0.0,0.0,0.0,0.0,0.0,0.0,0.0,0.0,0.0,0.0,0.0,5.7498,6.2786,6.696,6.7844,7.2159,7.4433,7.2885,7.5637,7.817,7.9779,8.0681,8.1893,8.3418,8.2172,8.2071,8.3536,8.217,8.1715,8.2408,8.2408,8.2408,8.2408,8.2408,8.2408,8.2374,8.0919,8.0276,8.0175,7.8686,7.8068,7.7967,7.642,7.5777,7.5608,7.4086,7.3037,7.2428,7.2428,7.1988,7.1244,7.0466,7.0251,7.0094,6.9417,6.9147,6.8977,6.8199,6.7455,6.6859,6.6859,6.6373,6.5967,6.6711,6.6305,6.5784,6.5784,6.5189,6.4647,6.4647,6.4647,6.441,6.368,6.1738,6.0226,6.0237,5.9633,5.9402,6.0225,5.9051,0.0,6.0212,5.9761,5.9569,6.031,5.9698,5.9196,5.9196,5.7728,5.6774,5.6737,5.4462,5.3177,5.3177,5.0095,4.837,4.8406,4.5305,4.3764,4.3915,0.0,0.0,0.0,0.0,0.0,0.0,0.0,0.0,0.0,0.0,0.0,0.0,0.0,0.0,0.0,0.0,0.0,0.0,0.0,0.0,0.0,0.0,6.3509,6.2717,6.6546,7.048,7.3253,7.627,7.828,7.8636,8.0518,8.1913,8.237,8.4225,8.5546,8.5987,8.5926,8.5724,8.5228,8.4042,8.3083,8.2408,8.2408,8.2408,8.2408,8.2408,8.2408,8.2408,8.2002,8.1799,8.1731,8.0242,7.96,7.9464,7.7976,7.7391,7.7121,7.4515,7.3398,7.3206,7.3206,7.2732,7.1988,7.1244,7.1007,7.0973,7.0748,7.0331,6.9857,6.962,6.9045,6.847,6.847,6.8335,6.8199,6.8436,6.7895,6.7286,6.7286,6.6745,6.6068,6.5493,6.5392,6.5189,6.4444,6.3362,6.2256,6.1182,6.0353,6.0105,6.0971,6.0728,0.0,6.1114,6.1013,6.0765,6.0438,5.9675,5.9196,5.9196,5.7728,5.6297,5.5133,5.3335,5.2344,5.2344,5.0912,5.0398,5.0949,4.8976,4.7352,0.0,0.0,0.0,0.0,0.0,0.0,0.0,0.0,0.0,0.0,0.0,0.0,0.0,0.0,0.0,0.0,0.0,0.0,0.0,0.0,0.0,0.0,6.4307,6.7824,6.8685,7.1256,7.4048,7.6746,7.8609,8.0016,8.0985,8.2196,8.3064,8.3426,8.55,8.6682,8.6502,8.7084,8.6838,8.5656,8.4814,8.402,8.3355,8.3295,8.3295,8.3295,8.3295,8.3295,8.3295,8.3016,8.2881,8.2813,8.1629,8.0953,8.0547,7.9397,7.872,7.8213,0.0,0.0,0.0,0.0,7.3037,7.2326,7.1921,7.1582,7.1289,7.1289,7.1007,7.0669,7.0669,7.0161,6.9553,6.9553,6.935,6.9113,6.9113,6.8741,6.8335,6.7996,6.7557,6.7049,6.6305,6.617,6.5933,6.5189,6.4715,0.0,6.2888,6.1535,6.0876,6.1723,6.1285,6.1102,6.1873,6.1399,6.0955,6.0868,5.9857,5.9328,5.9659,5.7923,0.0,0.0,0.0,5.2721,5.2024,5.1536,0.0,0.0,0.0,0.0,0.0,0.0,0.0,0.0,4.988,4.9921,0.0,0.0,0.0,0.0,0.0,0.0,0.0,0.0,0.0,0.0,0.0,0.0,0.0,0.0,0.0,0.0,6.8667,7.0939,7.439,7.5933,7.7228,7.8664,7.9617,8.0449,8.1357,8.2135,8.2913,8.3691,8.5453,8.6327,8.5949,0.0,0.0,0.0,0.0,8.4785,8.4785,8.466,8.4614,8.4614,8.4614,8.4614,8.458,8.393,8.3625,8.3592,8.2847,8.2137,8.1486,8.0648,7.9837,7.8932,7.757,7.6555,7.5676,7.4255,7.3274,7.2631,7.2462,0.0,0.0,7.1323,7.1289,7.1289,7.1289,7.0838,7.0297,7.0297,6.9857,6.935,6.935,6.9282,6.9045,6.8335,6.8098,6.7827,6.7062,6.6927,6.6711,6.5967,6.5784,6.5493,6.485,6.2956,6.179,6.251,6.1338,6.0866,6.2269,6.134,6.0786,6.1437,6.0253,0.0,6.0336,5.8417,5.7706,5.9005,5.6483,5.4252,5.2758,5.2868,5.3225,5.3875,5.3985,5.5379,5.8143,5.8327,5.9171,6.0529,5.4006,5.3235,0.0,0.0,0.0,0.0,0.0,0.0,0.0,0.0,0.0,0.0,0.0,0.0,0.0,0.0,0.0,6.8563,7.1597,7.4221,7.6183,7.7686,7.8565,7.8575,7.9798,8.1291,8.2899,8.3769,8.4547,8.5282,8.6301,8.6841,8.6763,8.7541,8.7876,8.7626,8.6602,8.6053,8.6053,8.5092,8.4614,8.4614,8.4614,0.0,8.4614,8.4444,8.4377,8.4343,8.3625,8.3219,8.2949,8.1629,8.031,7.9,7.8111,7.7333,7.6555,7.5608,7.4796,7.4018,7.28,7.2326,7.209,7.1492,7.1289,7.1289,7.1289,7.1188,0.0,7.1109,7.0985,7.085,7.085,7.0432,6.9947,6.9789,6.9282,6.8639,6.7861,6.7692,6.7489,6.6745,6.6102,6.5628,6.5493,6.414,6.3151,6.3294,6.2532,6.184,6.1608,6.1852,6.19,6.1484,6.116,6.081,6.0342,5.9881,5.9218,5.8283,5.8276,5.7838,5.6859,5.8107,5.8535,5.8058,5.8682,5.8976,5.8976,6.0272,6.141,6.2279,6.0236,5.9758,0.0,0.0,0.0,0.0,0.0,0.0,0.0,0.0,0.0,0.0,0.0,6.3199,0.0,0.0,7.0574,7.3037,7.4739,7.6284,7.7807,7.8653,7.901,7.8845,8.0138,8.1407,8.2312,8.3456,8.4253,8.4609,8.5925,8.6439,8.5835,8.6751,8.7032,8.6414,8.5811,8.5489,8.5489,8.489,8.4614,8.4614,8.4614,8.4614,8.4614,8.4614,8.4614,8.458,8.4208,8.3862,8.3389,8.1926,8.0877,8.0141,7.9397,7.8213,7.686,7.6454,7.5574,7.4468,7.3781,7.3037,7.2326,7.1988,7.1616,7.1289,7.1289,7.1289,7.1289,7.1289,7.1289,7.1289,7.1289,7.1041,7.0669,7.0297,6.9925,6.9451,6.8673,6.8504,6.8267,6.7489,6.7049,6.6677,6.6305,6.5324,6.4478,6.4106,6.3429,6.2821,6.2429,6.2127,6.1745,6.1402,6.1011,6.0791,6.0827,6.0861,6.0603,5.985,5.9786,5.96,5.9208,5.9979,6.0419,6.0419,6.0786,6.1227,6.1667,6.2438,6.3246,6.404,6.4457,6.42,0.0,0.0,0.0,0.0,0.0,0.0,0.0,0.0,5.9984,6.6157,6.8315,7.0091,7.3407,7.4494,7.5508,7.7463,7.7509,7.7807,7.9126,7.9304,7.9304,7.9304,8.0479,8.1384,8.1494,8.2712,8.3558,8.3693,8.5172,8.5643,8.4633,8.5515,8.571,8.4961,8.4713,8.4713,8.4969,8.4713,8.4614,8.4614,8.4614,8.4614,8.4614,8.4614,8.4614,8.4614,8.4614,8.42,8.3389,8.2035,8.1452,8.1249,8.0479,7.9025,7.7299,7.7164,7.6251,7.4975,7.4705,7.3815,7.28,7.2665,7.2124,7.1492,7.1492,7.1391,7.1289,7.1289,7.1289,7.1289,7.1289,7.1289,7.1142,7.0567,7.0398,7.0195,6.9485,6.9316,6.9079,6.8301,6.7996,6.7726,6.7117,6.6406,6.5662,6.4918,6.4208,6.3646,6.3511,6.2463,6.167,6.1535,6.0926,6.0923,6.1797,6.193,6.2096,6.2291,6.1531,6.1153,6.1325,6.1202,6.1482,6.2291,6.2328,6.2989,6.431,6.4653,6.5118,6.5815,6.743,6.7283,5.0066,5.1811,5.498,5.9046,5.9438,6.1404,0.0,0.0,7.0101,7.5867,7.7714,7.8401,7.8681,7.9107,7.9399,7.9431,7.9129,7.916,7.9972,8.0073,8.0073,8.0073,8.0784,8.1562,8.2205,8.3016,8.3761,8.4411,8.4672,8.4739,8.4606,8.4739,8.5214,8.6177,8.517,8.5118,8.6202,8.5144,8.4614,8.4614,8.4614,8.4614,8.4614,8.4614,8.4614,8.4614,8.4614,8.42,8.3422,8.2611,8.19,8.1249,8.0479,7.9667,7.8788,7.8111,7.7333,7.6454,7.51,7.4468,7.4255,7.3578,7.2868,7.2293,7.2293,7.1819,7.1289,7.1289,7.1289,7.1289,7.1289,7.1289,7.1289,7.121,7.1176,7.0973,7.0229,7.0082,6.9857,6.9113,6.8402,6.7861,6.7793,6.7184,6.644,6.5683,6.4952,6.4241,6.3579,6.3342,6.3024,6.2347,6.2178,6.2535,6.3451,6.3647,6.4037,6.4846,6.4016,6.3875,6.4712,6.3966,6.3961,6.4872,6.4884,6.4995,6.5178,6.6586,6.7333,6.748,6.9096,6.8985,5.7121,5.9185,6.1629,6.4405,6.6137,6.8612,7.4155,7.4478,7.4955,7.969,8.1342,8.1812,8.1581,8.2016,8.2337,0.0,8.1644,8.1507,8.184,8.1448,8.0817,7.9912,8.1458,8.2548,8.2401,8.3084,8.3795,8.4546,8.4614,8.4614,8.4614,8.4614,8.4811,8.5344,8.4864,8.4838,8.5344,8.4838,8.4614,8.4614,8.4614,8.4614,8.4614,8.4614,8.4614,8.4614,8.4614,8.4411,8.4039,8.2881,8.2238,8.1832,8.0648,8.0006,7.9667,7.8923,7.7908,7.6826,7.6149,7.5371,7.4536,7.4255,7.3341,7.2394,7.2394,7.1887,7.1289,7.1289,7.1289,7.1289,7.1289,7.1289,7.1289,7.1289,7.1289,7.1222,7.0906,7.0838,7.0635,6.9857,6.9451,6.8944,6.8064,6.7658,6.7184,6.644,6.5696,6.5121,6.4816,6.441,6.3869,6.3125,6.2651,6.2757,6.3677,6.3369,6.3499,6.4375,6.3602,6.3321,6.3701,6.3833,6.4282,6.5165,6.6189,6.6916,6.738,6.8531,6.9096,6.9132,7.0257,7.0426,6.1581,6.4162,6.6823,6.8725,7.1544,7.4368,7.6445,7.7378,7.8736,8.215,8.3324,8.3673,8.3465,8.3806,8.4126,8.4125,8.3781,8.3496,8.3542,8.2637,8.1558,8.0456,8.1623,8.2594,8.2688,8.3457,8.4052,8.4268,8.4478,8.4614,8.4614,8.4614,8.4614,8.4614,8.4614,8.4614,8.4614,8.4614,8.4614,8.4614,8.4614,8.4614,8.4614,8.4614,8.4614,8.4614,8.4614,8.4614,8.4512,8.3253,8.2577,8.2272,8.0987,8.0378,8.0141,7.96,7.8483,7.7164,7.6961,7.6014,7.4897,7.4897,7.4052,7.2969,7.2766,7.2191,7.1582,7.1357,7.1289,7.1289,7.1289,7.1289,7.1289,7.1289,7.1289,7.1289,7.1289,7.1289,7.112,7.0601,7.0331,6.9845,6.8741,6.8368,6.7963,6.7218,6.6643,6.6157,6.5751,6.5053,6.441,6.3849,6.3552,6.3608,6.4251,6.4021,6.4096,6.4723,6.4226,6.4021,6.4262,6.4905,6.5626,6.6439,6.7721,6.8641,6.9229,7.0036,7.044,7.044,7.127,7.1747,6.1515,6.4972,6.9654,7.2347,7.5127,7.7986,8.1232,8.2003,8.248,8.4168,8.4535,8.4555,8.4539,8.4282,8.4357,8.5131,8.4972,8.4754,8.4754,8.3366,8.2368,8.2333,8.1018,8.0977,0.0,8.4496,8.4711,8.3629,8.42,8.4614,8.4614,8.4614,8.4614,8.4614,8.4614,8.4614,8.4614,8.4614,8.4614,8.4614,8.4614,8.4614,8.4614,8.4614,8.4614,8.4614,8.4614,8.4614,8.4546,8.3795,8.305,8.234,8.1562,8.0818,8.0209,8.0175,7.9228,7.7841,7.7164,7.6352,7.5676,7.5676,7.5168,7.4424,7.368,7.2935,7.2225,7.1492,7.1289,7.1289,7.1289,7.1289,7.1289,7.1289,7.1289,7.1289,7.1289,7.1289,7.1289,7.1255,7.0703,7.0184,7.0128,6.9553,6.8808,6.7996,6.7861,6.732,6.5886,6.5053,6.458,6.458,6.5284,6.5789,6.5827,6.6653,6.7162,6.7179,6.716,6.7565,6.848,6.859,6.9074,6.9921,6.9986,7.0036,7.0073,7.0866,7.127,7.127,7.2092,7.2899,6.5653,6.9444,7.3279,7.6093,7.8287,8.0188,8.1819,8.2627,8.2994,8.2994,8.2994,8.2847,8.2296,8.2561,8.3435,8.5314,8.5774,8.6056,8.6619,8.624,8.4872,8.2252,8.353,0.0,0.0,0.0,0.0,8.4548,8.4155,8.4099,8.458,8.4614,8.4817,8.5384,8.4884,8.485,8.5384,8.5384,8.5148,8.4614,8.4614,8.4614,8.4614,8.4614,8.4614,8.4614,8.4614,8.4614,8.4546,8.3795,8.3084,8.234,8.1562,8.0851,8.0209,8.0209,7.9566,7.8619,7.7874,7.6792,7.5709,7.5709,7.5202,7.4458,7.3713,7.2969,7.2259,7.1515,7.1289,7.1289,7.1289,7.1289,7.1289,7.1289,7.1289,7.1289,7.1289,7.1289,7.1289,7.1289,7.1109,7.077,7.0285,6.9992,6.9553,6.8808,6.7827,6.7015,6.6508,6.5797,6.5324,6.5324,6.5154,6.5048,6.5048,6.5348,6.5508,6.5508,6.6102,6.6598,6.6884,6.8141,6.8955,6.9213,7.0331,7.0903,7.0903,7.1711,7.2386,7.2899,7.3156,7.3744,6.9178,7.2449,7.5365,7.8993,8.0585,8.1552,8.2764,8.2994,8.2663,8.1562,8.0645,7.969,7.8589,7.8809,8.0035,8.2647,8.3991,8.5312,8.7069,8.6994,8.608,8.4228,8.553,8.5909,0.0,0.0,0.0,8.4727,8.463,8.4556,8.4606,8.4614,8.4979,8.5757,8.5317,8.5418,8.6196,8.6196,8.579,8.5046,8.4749,8.4614,8.4614,8.4614,8.4614,8.4614,8.4614,8.4614,8.4546,8.4099,8.3456,8.2712,8.1968,8.1224,8.0547,8.031,7.9735,7.8991,7.8247,7.7164,7.6082,7.5777,7.5371,7.4864,7.4119,7.3375,7.2631,7.1921,7.1492,7.1289,7.1289,7.1289,7.1289,7.1289,7.1289,7.1289,7.1289,7.1289,7.1289,7.1289,7.1289,7.1142,7.0669,7.0364,7.0048,6.9553,6.8436,6.7523,6.7231,6.6542,6.6102,6.6102,6.5662,6.5392,6.5392,6.5392,6.5392,6.5392,6.6279,6.6957,6.7311,6.878,6.9787,7.0114,7.1187,7.1857,7.2151,7.2679,7.334,7.4147,7.4147,7.4551,7.1955,7.4037,7.6087,8.0944,8.1883,8.2087,8.3829,8.3041,8.1461,7.9753,7.7472,7.5249,0.0,0.0,7.461,7.7548,8.0208,8.3025,8.6299,8.608,8.6277,0.0,0.0,0.0,0.0,0.0,0.0,8.4459,0.0,8.5918,8.4766,8.4686,8.5032,8.5851,8.5784,8.6095,8.6879,8.6812,8.6467,8.579,8.4979,8.4614,8.4614,8.4614,8.4614,8.4614,8.4614,8.4614,8.4614,8.4614,8.4167,8.3422,8.2712,8.1934,8.1215,8.0479,7.9769,7.9058,7.8314,7.7536,7.6758,7.5946,7.5709,7.5574,7.483,7.4119,7.3398,7.2665,7.1954,7.1391,7.1357,7.1357,7.1357,7.1289,7.1289,7.1289,7.1289,7.1289,7.1289,7.1289,7.1289,7.1289,7.1289,7.0737,7.0263,7.0263,6.962,6.8876,6.8064,6.7354,6.6927,6.6927,6.6859,6.6859,6.6893,6.6859,6.6825,6.6859,6.7702,6.8648,6.9672,7.0601,7.1578,7.2555,7.2569,7.2973,7.3744,7.3744,7.4184,7.494,7.494,7.538,7.5228,7.7263,7.8478,8.1201,8.1205,8.0345,7.9677,7.8855,7.7485,7.4695,7.2799,7.0587,0.0,0.0,0.0,7.5421,8.0815,0.0,8.8326,8.9551,0.0,8.8354,0.0,8.9087,8.828,8.9019,0.0,0.0,8.717,8.6639,8.5968,8.5928,8.6157,8.6596,8.552,8.5554,8.6907,8.5763,8.5384,8.579,8.4979,8.4614,8.4614,8.4614,8.4614,8.4614,8.4614,8.4614,8.4614,8.4614,8.4167,8.3422,8.2712,8.1934,8.1215,8.0479,8.0073,7.9803,7.9092,7.7976,7.6758,7.5946,7.5709,7.5574,7.483,7.4492,7.4187,7.3409,7.3071,7.28,7.2259,7.2124,7.1988,7.1424,7.1289,7.1289,7.1289,7.1289,7.1289,7.1289,7.1289,7.1289,7.1289,7.112,7.1041,7.1041,7.0398,6.9654,6.8876,6.8639,6.8504,6.8504,6.7996,6.7861,6.847,6.7455,6.7028,6.759,6.7977,6.8648,6.9672,7.0601,7.1832,7.3362,7.3377,7.378,7.4588,7.4588,7.5028,7.5799,7.5799,7.6225,7.7826,7.9445,8.0168,8.1872,8.1159,7.9312,7.655,7.5422,7.3591,6.8641,6.6666,6.4759,6.1162,6.5047,6.9327,0.0,0.0,0.0,8.7213,8.9328,9.0353,0.0,9.0592,0.0,8.9858,9.0592,9.0832,0.0,8.9035,8.8029,8.7234,8.7561,8.7735,8.7704,8.6891,8.6602,8.6907,8.5723,8.5351,8.579,8.4979,8.4614,8.4614,8.4614,8.4614,8.4614,8.4614,8.4614,8.4614,8.4614,8.4343,8.3896,8.2813,8.2171,8.1629,8.0581,8.0209,8.0073,7.9363,7.8585,7.7671,7.6589,7.598,7.5608,7.5202,7.4864,7.4502,7.4086,7.3747,7.3398,7.2969,7.2868,7.2699,7.1954,7.1785,7.1684,7.1357,7.1289,7.1289,7.1289,7.1289,7.1289,7.1289,7.1289,7.1289,7.1289,7.0973,7.0534,7.0128,6.9519,6.9113,6.9113,6.8707,6.8605,6.9079,6.8301,6.7996,6.8402,6.8554,6.9243,7.0627,7.1212,7.2339,7.4206,7.4221,7.4625,7.5417,7.5417,7.5821,7.6628,7.6628,7.6885,8.0099,8.1145,8.1331,8.255,8.1266,7.8493,7.3854,7.2037,6.9368,6.2379,6.0229,5.8699,5.5741,5.9834,6.4207,6.597,0.0,8.0497,8.4713,8.7417,8.9621,9.1344,9.1583,9.1657,9.1932,9.184,9.1858,9.2097,9.1176,8.9955,8.8526,8.9272,8.9377,8.8562,8.8622,8.7994,8.6602,8.596,8.5621,8.5621,8.4918,8.4614,8.4614,8.4614,8.4614,8.4614,8.4614,8.4614,8.4614,8.4614,8.4614,8.4444,8.3058,8.2509,8.2238,8.0851,8.0276,8.0107,7.9464,7.9194,7.8864,7.7367,7.642,7.5845,7.5743,7.527,7.4762,7.4762,7.4289,7.3771,7.3646,7.3669,7.3443,7.2597,7.2394,7.2191,7.1458,7.1289,7.1289,7.1289,7.1289,7.1289,7.1289,7.1289,7.1289,7.1289,7.1289,7.1289,7.1289,7.0195,6.9383,6.9383,6.9316,6.9282,6.9383,6.9214,6.9147,6.9248,6.9147,6.9934,7.1713,7.1935,7.29,7.4818,7.5005,7.5454,7.6276,7.6276,7.6628,7.7289,7.7289,7.7289,8.2895,8.3085,8.2161,8.2056,8.0051,7.6528,7.0562,6.7151,0.0,0.0,5.5988,5.466,5.2155,5.6802,6.2146,6.5586,7.261,7.9359,8.4222,8.7462,8.9549,0.0,9.0324,9.0987,9.2721,9.1982,0.0,0.0,9.3672,9.2422,8.9853,9.0495,9.0014,8.7959,8.7835,8.6877,8.5012,8.485,8.4783,8.4783,8.4647,8.4614,8.4614,8.4614,8.4614,8.4614,8.4614,8.4614,8.4614,8.4614,8.4614,8.4512,8.3659,8.2949,8.2306,8.1426,8.0716,8.0175,8.004,7.9634,7.8864,7.7367,7.6792,7.6555,7.5912,7.5608,7.5506,7.5506,7.5405,7.5168,7.4559,7.4424,7.4086,7.2732,7.2394,7.2191,7.1458,7.1289,7.1289,7.1289,7.1289,7.1289,7.1289,7.1289,7.1289,7.1289,7.1289,7.1289,7.1289,7.1086,7.0939,7.0939,7.0364,7.0263,7.0872,6.9789,6.935,6.998,6.9451,6.9612,7.069,7.1563,7.2852,7.4635,7.5484,7.6313,7.7105,7.7105,7.7179,7.7289,7.7289,7.7289,8.3876,8.3991,8.3092,8.2045,7.9156,7.4631,6.7059,0.0,0.0,0.0,5.1249,5.0648,4.8753,5.3957,0.0,6.1665,6.8181,7.5265,8.1906,8.4482,0.0,8.9726,9.0042,9.031,0.0,9.0667,9.0868,9.2226,9.2319,9.2285,9.2237,9.201,9.1362,9.0247,8.912,8.7859,8.6463,8.5861,8.5861,8.6439,8.5222,8.4943,8.5515,8.489,8.4614,8.4614,8.4614,8.4614,8.4614,8.4614,8.4614,8.4512,8.3795,8.305,8.2306,8.1562,8.0818,8.0209,8.0209,7.9972,7.9498,7.8416,7.7536,7.6758,7.5946,7.5709,7.5709,7.5709,7.5709,7.5608,7.527,7.5168,7.4897,7.3815,7.2969,7.2191,7.1458,7.1289,7.1289,7.1289,7.1289,7.1289,7.1289,7.1289,7.1289,7.1289,7.1289,7.1289,7.1289,7.1289,7.1289,7.1289,7.0973,7.0939,7.1255,7.0647,7.0398,7.0737,7.0432,7.0664,7.1662,7.2171,7.3315,7.5194,7.57,7.6375,7.7289,7.7289,7.7289,7.7289,7.7289,7.7289,8.3691,8.4131,8.3772,8.207,7.8505,7.3227,6.465,6.035,0.0,4.858,4.7308,4.7292,4.6539,5.1254,5.5969,0.0,6.3772,7.0671,7.853,8.1055,8.3874,0.0,8.9314,0.0,8.9649,8.9576,0.0,9.095,9.0986,9.1742,9.3422,9.2501,9.176,9.1477,9.0209,8.8973,8.7815,8.7151,8.7234,8.8178,8.6037,8.5464,8.6365,8.517,8.4614,8.4614,8.4614,8.4614,8.4614,8.4614,8.4614,8.4546,8.3964,8.3287,8.2543,8.1799,8.1054,8.0412,8.0242,8.0209,8.0073,7.9363,7.8213,7.6995,7.6183,7.5845,7.5709,7.5709,7.5709,7.5709,7.5709,7.5709,7.5506,7.4796,7.3612,7.2462,7.1921,7.165,7.1526,7.1526,7.1391,7.1289,7.1289,7.1289,7.1289,7.1289,7.1289,7.1289,7.1289,7.1289,7.1289,7.1289,7.1289,7.1289,7.1289,7.1289,7.1289,7.1289,7.1289,7.1644,7.2435,7.2707,7.3536,7.512,7.558,7.6197,7.6988,7.7196,7.7289,7.7289,7.7289,7.7289,8.2186,8.3441,8.3997,8.1652,7.7971,7.2877,6.4808,0.0,5.3211,4.7391,4.5579,4.5452,4.6763,4.8791,5.2116,5.7846,6.2017,6.7038,7.4182,7.8938,8.266,8.5414,0.0,0.0,9.0326,9.0105,9.0618,9.2519,9.2684,9.2176,9.1009,9.0515,8.9657,8.8189,8.931,8.8847,8.661,8.7538,8.8088,8.8178,8.6865,8.6291,8.6365,8.517,8.4614,8.4614,8.4614,8.4614,8.4614,8.4614,8.4614,8.458,8.4512,8.4065,8.3321,8.2577,8.1832,8.1114,8.0412,8.0209,8.0073,7.9363,7.8551,7.7739,7.7029,7.6284,7.5709,7.5709,7.5709,7.5709,7.5709,7.5709,7.5506,7.4796,7.3984,7.3398,7.3308,7.2766,7.2293,7.2293,7.1751,7.1289,7.1289,7.1289,7.1289,7.1289,7.1289,7.1289,7.1289,7.1289,7.1289,7.1289,7.1289,7.1289,7.1289,7.1289,7.1289,7.1289,7.1289,7.1356,7.1412,7.2321,7.29,7.305,7.4867,7.5857,7.5942,7.684,7.7289,7.7289,7.7289,7.7289,8.0718,8.2296,8.281,8.1379,7.6812,7.0993,6.439,5.7724,5.1621,4.6944,4.4922,4.4452,4.6094,4.7305,4.9691,5.4623,5.6637,6.0201,6.7929,7.1765,7.5664,8.0715,8.3436,0.0,0.0,0.0,8.8795,9.0484,8.9778,8.9019,8.8433,8.9647,9.0232,8.989,8.9947,8.9904,8.9662,8.9411,8.9641,9.0344,8.7677,8.6769,8.7398,8.5464,8.4614,8.4614,8.4614,8.4614,8.4614,8.4614,8.4614,8.4614,8.4614,8.387,8.2813,8.2509,8.1663,8.0581,8.031,8.0209,8.0141,7.987,7.9261,7.845,7.7266,7.6352,7.5709,7.5709,7.5709,7.5709,7.5709,7.5709,7.5506,7.4796,7.439,7.4052,7.3601,7.3263,7.3037,7.3037,7.2834,7.2631,7.2631,7.2631,7.2462,7.2022,7.1954,7.1819,7.1357,7.1289,7.1289,7.1289,7.1289,7.1289,7.1289,7.1289,7.1289,7.1289,7.1289,7.1289,7.1289,7.1688,7.2172,7.2776,7.3611,7.4591,7.5787,7.6214,7.6728,7.7289,7.7289,7.7289,7.7818,7.9947,8.0938,8.0131,7.538,6.9435,6.3747,5.7042,5.0849,4.6728,4.4607,4.3983,4.559,4.6351,4.8076,5.2186,5.344,5.6521,6.4037,6.7245,7.1091,0.0,0.0,8.2767,8.5705,8.6725,8.7753,8.9032,8.7719,8.6907,8.6907,8.836,8.9378,8.9842,8.9965,9.0404,9.1249,9.0774,9.0965,9.1785,8.8513,8.741,8.8169,8.5719,8.4614,8.4614,8.4614,8.4614,8.4614,8.4614,8.4614,8.4614,8.4614,8.3971,8.3016,8.2551,8.1731,8.0784,8.0344,8.0209,8.0209,8.0209,7.9701,7.8889,7.7604,7.669,7.6014,7.5777,7.5709,7.5709,7.5709,7.5709,7.5574,7.5067,7.4931,7.4796,7.4255,7.3984,7.3815,7.3815,7.3669,7.35,7.35,7.35,7.3331,7.28,7.2732,7.2462,7.1718,7.165,7.1526,7.1323,7.159,7.1622,7.1334,7.1289,7.1289,7.1289,7.1289,7.1289,7.1289,7.1289,7.1622,7.2342,7.2941,7.3792,7.4922,7.5823,7.659,7.7222,7.7547,7.7693,7.2899,7.6166,7.8442,7.7546,7.3692,6.8605,6.2915,5.665,5.0849,4.6728,4.4607,4.3983,4.559,4.592,4.7241,5.1363,5.4032,5.769,6.3757,6.7324,7.0963,0.0,0.0,7.9595,8.3438,8.6329,8.8294,8.9066,8.7719,0.0,8.6907,8.6224,8.6007,8.6449,8.8754,9.0006,9.0006,9.1192,9.1803,9.1785,8.9348,8.8201,8.8191,8.5719,8.4614,8.4614,8.4614,8.4614,8.4614,8.4614,8.4614,8.4614,8.4614,8.458,8.4411,8.2923,8.2408,8.2171,8.0716,8.0209,8.0209,8.0209,7.9701,7.8957,7.8213,7.7468,7.6724,7.5912,7.5709,7.5709,7.5709,7.5709,7.5709,7.5676,7.5676,7.5676,7.5676,7.51,7.4593,7.4593,7.3984,7.35,7.35,7.35,7.35,7.35,7.35,7.3206,7.2496,7.2394,7.2124,7.1357,7.2172,7.2385,7.1367,7.1289,7.1289,7.1289,7.1289,7.1289,7.1289,7.1289,7.1312,7.1312,7.3252,7.3792,7.2838,7.584,7.7194,7.7047,7.8098,7.8589,6.5599,6.8238,7.0,6.8605,6.5852,6.2438,5.8412,5.3786,4.949,4.6507,4.5076,4.4635,4.57,4.6351,4.859,5.4363,5.6381,5.865,6.2722,0.0,0.0,7.3386,7.979,8.457,0.0,0.0,8.8091,8.8328,8.6974,8.6129,8.6129,8.5418,8.5789,8.7561,8.838,8.9558,9.1211,9.162,9.1803,9.1785,8.9369,8.8623,8.9348,8.6078,8.5489,8.7008,8.6202,8.5836,8.5836,8.5836,8.5344,8.4614,8.4614,8.3971,8.3024,8.2577,8.1765,8.0818,8.0378,8.0209,8.0209,8.0209,8.004,7.9701,7.8991,7.7874,7.6724,7.5912,7.5709,7.5709,7.5709,7.5709,7.5709,7.5709,7.5709,7.5709,7.5709,7.5506,7.5337,7.5337,7.5168,7.4999,7.4999,7.4999,7.483,7.4322,7.4255,7.3984,7.324,7.3138,7.3037,7.2834,7.3257,7.2957,7.1435,7.1939,7.2342,7.2342,7.1688,7.16,7.23,7.1666,7.1622,7.2321,7.2962,7.3472,7.3846,7.6032,7.7715,7.8918,7.9249,7.9412,5.9592,6.2548,6.442,6.3405,6.13,5.8657,5.5427,5.1793,4.8426,4.5957,4.503,4.4957,4.5736,4.6571,4.8727,5.3728,5.5464,5.7692,6.206,0.0,0.0,7.4429,0.0,0.0,0.0,8.6656,8.7279,8.755,8.6196,8.5486,8.5784,8.5046,8.5719,8.8111,8.8201,8.9121,9.1116,9.1583,9.1803,9.1785,8.9369,8.8819,8.9904,8.672,8.6375,8.8156,8.7398,8.6817,0.0,8.6414,8.5684,8.4614,8.4614,8.387,8.278,8.2509,8.1629,8.0581,8.031,8.0209,8.0209,8.0209,8.0006,7.9701,7.9236,7.8077,7.6724,7.5912,7.5709,7.5709,7.5709,7.5709,7.5709,7.5709,7.5709,7.5709,7.5709,7.5709,7.5709,7.5709,7.5709,7.5709,7.5709,7.5709,7.554,7.51,7.5033,7.4762,7.4018,7.3916,7.3966,7.4104,7.4591,7.4468,7.3437,7.3356,7.3372,7.3372,7.279,7.2707,7.3332,7.277,7.2887,7.3812,7.4174,7.4646,7.5214,7.7056,7.8724,8.0241,8.055,8.0534,0.0,5.8253,6.0639,6.0493,5.8841,5.6418,5.3361,5.0315,0.0,4.5177,4.47,4.503,4.6067,4.6792,4.8223,5.1096,5.292,5.6073,0.0,6.5634,0.0,0.0,8.1516,0.0,8.4359,8.5318,8.6169,8.6771,8.5425,8.4945,8.5655,8.5012,8.5643,8.7861,8.8111,8.8776,8.9986,9.1022,9.1528,9.1509,8.9284,8.8819,8.9924,8.7585,8.7211,8.8446,8.8268,8.7561,8.6536,8.6439,8.5684,8.4614,8.4614,8.4106,8.3321,8.2644,8.19,8.1114,8.0445,8.0209,8.0209,8.0209,7.9735,7.9169,7.9101,7.8111,7.6826,7.6082,7.5845,7.5845,7.5811,7.5811,7.5845,7.5709,7.5777,7.5845,7.5709,7.5743,7.5777,7.5709,7.5709,7.5709,7.5709,7.5709,7.5709,7.5709,7.5709,7.5439,7.4796,7.4695,7.482,7.5241,7.6102,7.674,7.6876,7.547,7.4581,7.4581,7.4525,7.4506,7.4581,7.4506,7.4844,7.5667,7.6608,7.7056,7.701,7.8674,8.0032,8.1122,8.1856,8.1782,4.7333,0.0,5.1132,4.9884,4.9618,4.9287,0.0,4.7021,4.614,4.4957,4.47,4.5691,4.904,4.9297,5.1216,5.7971,6.0456,6.2596,6.5682,7.0981,0.0,8.3802,8.5707,8.6548,8.6771,8.705,8.686,8.6108,8.5148,8.4681,8.485,8.4681,8.4864,8.5447,8.7246,8.8812,9.0078,8.9369,8.9071,8.9035,8.8468,8.8819,8.9945,8.8468,8.8928,9.0868,8.8992,8.8043,8.77,8.6769,8.5684,8.4614,8.4614,8.3802,8.2644,8.2475,8.1596,8.0412,8.0242,8.0209,8.0209,8.0209,8.0073,7.9837,7.9295,7.845,7.7705,7.7502,7.7459,7.7333,7.6758,7.7029,7.7164,7.598,7.6589,7.713,7.5946,7.6183,7.6454,7.5811,7.5709,7.5709,7.5709,7.5709,7.5709,7.5709,7.5709,7.5642,7.5473,7.5439,7.5773,7.6685,7.7219,7.788,7.8691,7.7865,7.729,7.729,7.6576,7.6481,7.7254,7.6557,7.659,7.7542,7.7792,7.8593,7.998,7.9661,8.034,8.1929,8.2113,8.2113,4.4477,4.6589,4.8673,4.7838,4.7902,4.8049,4.7205,4.614,4.5112,4.4305,4.4745,4.614,4.9104,5.0545,5.3151,5.8988,6.1575,0.0,0.0,0.0,8.096,8.679,8.7231,8.7269,0.0,8.7357,8.6566,8.5356,8.485,8.4614,8.4614,8.4614,8.5118,8.6227,8.6984,8.77,8.8393,8.8833,8.8732,8.8201,8.8201,8.8819,8.9986,8.9363,9.0083,9.1694,8.9878,8.8768,8.8169,8.6913,8.5684,8.4614,8.4614,8.3903,8.2881,8.2543,8.1697,8.0648,8.031,8.0209,8.0209,8.0209,8.0209,8.0141,7.9735,7.9329,7.8855,7.8204,7.8,7.7933,7.7502,7.7705,7.7797,7.6927,7.7367,7.7696,7.6487,7.6589,7.6758,7.6352,7.6251,7.6352,7.669,7.6758,7.6941,7.7464,7.7226,7.6987,7.7033,7.7145,7.7446,7.8013,7.8673,7.9534,8.0575,8.0279,7.9696,7.8968,7.8415,7.8363,7.8915,7.8415,7.8561,7.9461,7.9842,8.0552,8.1562,8.1007,8.1243,8.2186,8.2186,8.2186,4.4538,4.735,4.9968,4.9233,4.9317,4.94,4.8595,4.681,4.5189,4.4546,0.0,4.7297,4.9287,5.2175,0.0,0.0,0.0,0.0,7.5293,7.9357,8.3291,8.8381,8.7754,0.0,8.838,8.7375,8.6177,8.4969,8.4713,8.4614,8.4614,8.4614,8.5617,8.7861,8.7127,8.6672,8.6672,8.871,8.9221,8.8201,8.838,8.8992,9.0006,9.026,9.0885,9.1749,9.0595,8.9489,8.846,8.7198,8.6078,8.5144,8.4969,8.4415,8.3676,8.2858,8.2035,8.1215,8.0445,8.0209,8.0209,8.0209,8.0209,8.0209,8.0209,8.0209,7.9938,7.8686,7.8339,7.8305,7.8204,7.8247,7.8305,7.8068,7.817,7.8077,7.7232,7.7164,7.7198,7.7096,7.7063,7.7266,7.7899,7.8,7.8404,7.9533,7.9103,7.8777,7.8985,7.9121,7.924,7.94,8.0122,8.1054,8.2121,8.2186,8.1615,8.0257,8.0183,8.0183,8.0183,8.0183,8.0514,8.1158,8.1856,8.2186,8.2186,8.2186,8.2186,8.2186,8.2186,8.2186,4.6965,5.0081,5.1636,4.7498,4.8059,4.9469,4.8993,4.8612,4.8401,4.8618,4.9445,5.1328,5.5207,5.7548,6.0251,0.0,0.0,7.4136,0.0,0.0,8.4901,8.9307,0.0,8.9516,8.9719,8.8623,8.7422,8.6192,8.5196,8.4614,8.4614,8.4614,8.524,8.6623,8.7492,8.7929,8.7929,8.829,8.838,8.8201,8.9242,8.9842,9.0026,9.1078,9.162,9.1712,9.0539,8.9904,8.962,8.8424,8.7815,8.7573,8.6536,8.5644,8.49,8.3763,8.2475,8.1215,8.0445,8.0209,8.0209,8.0209,8.0209,8.0209,8.0209,8.0209,8.0141,7.9938,7.987,7.9701,7.9092,7.9397,7.9532,7.828,7.8957,7.9498,7.8111,7.8314,7.8585,7.7942,7.7807,7.7874,7.8,7.8,7.8404,7.9533,7.9576,7.9852,8.0816,8.0429,8.0357,8.1282,8.091,8.1054,8.2121,8.2186,8.2076,8.1856,8.1819,8.1819,8.1819,8.1819,8.1893,8.2003,8.215,8.2186,8.2186,8.2186,8.2186,8.2186,8.2186,8.2186,4.4891,4.772,5.007,4.9378,5.1645,5.3817,5.2746,5.1784,5.1257,5.1751,5.2314,5.3802,5.7344,0.0,6.3292,6.9371,0.0,7.8058,8.31,8.4023,8.571,0.0,9.013,9.0006,9.0006,8.8906,8.77,8.6512,8.5292,8.4614,8.4614,8.4614,8.5472,8.7363,8.7929,8.8819,9.0127,9.0164,8.9495,8.8201,8.9432,9.0006,9.0026,9.1249,9.1435,9.0774,9.0244,8.962,8.8928,8.7723,8.7246,8.7127,8.5912,8.5207,8.4754,8.342,8.2205,8.1215,8.0445,8.0209,8.0209,8.0209,8.0209,8.0209,8.0209,8.0209,8.0209,8.0209,8.0209,8.0107,7.9769,7.9938,8.004,7.9329,7.9701,7.9904,7.8822,7.8855,7.9,7.8653,7.8585,7.872,7.9126,7.9708,8.0511,8.1646,8.1973,8.2272,8.285,8.2727,8.2538,8.2447,8.2268,8.2503,8.3438,8.27,8.2186,8.2186,8.2186,8.2186,8.2186,8.2186,8.2186,8.2186,8.2186,8.2406,8.2847,8.2406,8.2406,8.2847,8.2847,8.2847,4.3456,4.5771,4.8615,5.1217,5.4375,5.691,5.7289,5.5902,5.4912,5.6161,5.6994,5.7972,5.9623,6.255,0.0,7.4122,7.7688,8.0694,8.3996,8.5089,8.6793,9.0059,9.0429,9.0404,9.0404,8.9348,8.8133,8.6913,8.5684,8.489,8.464,8.4864,8.6037,8.8214,8.8491,8.9641,9.1785,9.1803,9.0888,8.9035,8.9986,9.0284,9.0026,9.0945,9.0716,8.9579,8.9579,8.9035,8.8133,8.7187,8.6817,8.6696,8.5489,8.4838,8.4411,8.2923,8.2035,8.1426,8.0513,8.0209,8.0209,8.0209,8.0209,8.0209,8.0209,8.0209,8.0209,8.0209,8.0209,8.0209,8.0209,8.0209,8.0209,8.0209,8.0209,8.004,7.9498,7.9363,7.9363,7.9363,7.9363,7.9532,8.0107,8.0917,8.1968,8.3407,8.383,8.4184,8.4787,8.4893,8.4574,8.3738,8.3687,8.3931,8.4535,8.3471,8.2774,8.2774,8.2406,8.2186,8.2186,8.2186,8.2186,8.2186,8.237,8.27,8.3124,8.2884,8.2994,8.3381,8.3601,8.3675,4.5679,4.7571,4.9295,5.1031,5.2571,5.5245,6.1507,6.1093,6.0318,6.3549,6.5605,6.6244,6.4246,6.7902,7.3133,7.8975,8.1128,8.3161,8.6338,8.7783,8.8899,8.9906,9.0986,9.1657,9.1657,9.0634,8.9426,8.8156,8.6961,8.5786,8.466,8.5659,8.6865,8.8156,8.9306,9.0483,9.1803,9.1803,9.1694,9.1528,9.1638,9.106,9.0006,9.0087,8.9474,8.8335,8.8335,8.8268,8.8201,8.8111,8.8065,8.7952,8.6744,8.5592,8.4411,8.2923,8.2374,8.2137,8.0682,8.0209,8.0209,8.0209,8.0209,8.0209,8.0209,8.0209,8.0209,8.0209,8.0209,8.0209,8.0209,8.0209,8.0209,8.0209,8.0209,8.0175,8.0141,8.0107,8.0107,8.0107,8.0107,8.0141,8.0175,8.025,8.1087,8.3277,8.3614,8.44,8.6516,8.6153,8.5693,8.5588,8.4942,8.4535,8.4609,8.4499,8.4425,8.4425,8.303,8.2186,8.2186,8.2186,8.2186,8.2186,8.2904,8.2994,8.2296,8.3728,8.4058,8.3418,8.4168,8.4499,4.2891,4.6402,5.0088,5.1056,5.4191,5.7838,6.0933,6.2406,6.4169,6.7799,6.9142,6.9389,6.8403,7.0795,7.4104,7.7803,8.0242,8.2927,8.6537,8.7854,8.9109,9.0909,9.1509,9.1803,9.1803,9.0732,8.9822,8.9369,8.7515,8.6192,8.5735,8.6152,8.6961,8.8156,8.9369,9.0244,9.0713,9.0713,9.0304,8.9558,9.0324,9.0424,8.9965,8.9242,8.8223,8.7092,8.7861,8.7769,8.7104,8.7104,8.7104,8.6961,8.5735,8.4716,8.3795,8.278,8.2103,8.1562,8.0547,8.0209,8.0209,8.0209,8.0209,8.0209,8.0209,8.0209,8.0209,8.0209,8.0209,8.0209,8.0209,8.0209,8.0209,8.0209,8.0209,8.0209,8.0209,8.0209,8.0209,8.0209,8.0209,8.0209,8.0209,8.0804,8.1793,8.335,8.4207,8.522,8.6784,8.6738,8.6554,8.6554,8.6261,8.571,8.4682,8.5049,8.5123,8.4646,8.4022,8.3691,8.3691,8.3691,8.3691,8.3691,8.3985,8.4242,8.4425,8.4535,8.4682,8.4903,8.5196,8.5343,4.2242,4.593,5.0276,5.1692,5.5341,5.9439,6.2534,6.4783,6.7575,7.2112,7.2441,7.2226,7.3332,7.3735,7.4819,7.7593,8.0392,8.3233,8.6112,8.7817,8.939,9.1022,9.1583,9.1803,9.1803,9.1041,9.0404,9.0026,8.8133,8.6793,8.6414,8.6744,8.7163,8.7608,8.9164,8.9842,8.9489,8.9432,8.9014,8.8201,8.8645,8.8863,8.8841,8.802,8.6984,8.5887,8.6707,8.661,8.5836,8.5836,8.5836,8.5735,8.4917,8.4167,8.3422,8.2678,8.1934,8.1215,8.0445,8.0209,8.0209,8.0209,8.0209,8.0209,8.0209,8.0209,8.0209,8.0209,8.0209,8.0276,8.0632,8.073,8.073,8.073,8.073,8.0632,8.0276,8.0209,8.0209,8.0209,8.0209,8.0209,8.0209,8.1149,8.2312,8.345,8.4573,8.5731,8.6873,8.6978,8.6978,8.6978,8.6978,8.6537,8.5453,8.5857,8.593,8.538,8.538,8.5123,8.4609,8.4609,8.4609,8.4609,8.4866,8.5123,8.5416,8.538,8.5527,8.58,8.604,8.6187,4.4712,4.6752,4.9817,5.3016,5.5586,5.939,6.733,6.9001,7.0622,7.694,7.6174,7.5475,7.9129,7.707,7.5962,7.9352,8.2339,8.4476,8.5215,8.8015,9.0006,9.0006,9.106,9.1803,9.1803,9.1803,9.1286,9.0087,8.8884,8.7677,8.6512,8.7538,8.7654,8.6463,8.8754,8.9411,8.8201,8.8178,8.8178,8.8156,8.6961,8.639,8.6414,8.639,8.5735,8.4614,8.4614,8.4614,8.4614,8.4614,8.4614,8.4614,8.4614,8.4167,8.3422,8.2678,8.1934,8.1215,8.0445,8.0209,8.0209,8.0209,8.0209,8.0209,8.0209,8.0209,8.0209,8.0209,8.0209,8.0442,8.1605,8.1898,8.1898,8.1898,8.1875,8.1558,8.0442,8.0209,8.0209,8.0209,8.0234,8.0234,8.0234,8.1149,8.2278,8.3415,8.4573,8.5731,8.6873,8.6978,8.6978,8.6978,8.6978,8.6978,8.6978,8.6978,8.6978,8.6978,8.6978,8.6297,8.4682,8.4609,8.4609,8.4609,8.5416,8.5416,8.4646,8.6207,8.6591,8.5837,8.6628,8.6978,4.3563,4.7993,5.3466,5.4429,6.0473,6.713,7.0744,7.24,7.4744,8.0406,8.0098,7.9125,8.0186,7.9438,7.9216,8.0899,8.3102,8.5181,8.6759,8.8752,9.0324,9.1173,9.1602,9.1803,9.1803,9.1803,9.1657,9.1286,8.9369,8.8424,8.8963,8.8504,8.8043,8.7677,8.9164,8.9014,8.6961,8.6937,8.6512,8.5668,8.5292,8.5592,8.6365,8.5515,8.4943,8.4614,8.4614,8.4614,8.4614,8.4614,8.4614,8.4614,8.4614,8.4167,8.3422,8.2678,8.1934,8.1215,8.0445,8.0209,8.0209,8.0209,8.0209,8.0209,8.0209,8.0209,8.0209,8.0209,8.0209,8.0442,8.1605,8.1898,8.1898,8.1898,8.1283,8.0607,8.025,8.0209,8.0209,8.0209,8.0844,8.1403,8.1403,8.2358,8.3479,8.4613,8.5084,8.5731,8.6873,8.6978,8.6978,8.6978,8.6978,8.6978,8.6978,8.6978,8.6978,8.6978,8.6978,8.6794,8.6334,8.6297,8.6297,8.6297,8.6518,8.6518,8.6297,8.6757,8.6867,8.6664,8.6885,8.6978,4.7694,5.2586,5.8123,6.0039,6.5811,7.1965,7.56,7.7429,7.9436,8.33,8.2777,8.1835,8.2521,8.1612,8.1164,8.2456,8.4227,8.5984,8.7512,8.9155,9.0637,9.1657,9.1803,9.1803,9.1803,9.1803,9.1803,9.1803,9.0006,8.9242,9.0001,8.9327,8.8689,8.8201,8.9369,8.9057,8.7116,8.7127,8.6744,8.6037,8.6037,8.639,8.708,8.5369,8.4614,8.4614,8.4614,8.4864,8.5318,8.5318,8.5592,8.5987,8.5489,8.484,8.4071,8.2852,8.1934,8.1215,8.0445,8.0209,8.0209,8.0209,8.0209,8.0209,8.0209,8.0209,8.0209,8.0209,8.0209,8.0442,8.1605,8.1898,8.1898,8.1898,8.1379,8.0755,8.0301,8.0209,8.0209,8.0209,8.1125,8.1898,8.1898,8.3199,8.4512,8.5201,8.5712,8.6229,8.6908,8.6978,8.6978,8.6978,8.6978,8.6978,8.6978,8.6978,8.6978,8.6978,8.6978,8.6978,8.6978,8.6978,8.6978,8.6978,8.6978,8.6978,8.6978,8.6978,8.6978,8.6978,8.6978,8.6978,5.4375,5.8549,6.2771,6.7689,7.1098,7.4865,8.0919,8.2884,8.3858,8.5453,8.4497,8.3847,8.5573,8.373,8.2437,8.4104,8.5665,8.6914,8.762,8.9311,9.0776,9.1473,9.1657,9.1693,9.1693,9.1767,9.1803,9.1803,9.0676,9.0046,9.0184,9.0046,8.9495,8.8402,8.9432,8.9432,8.8201,8.8201,8.8201,8.8201,8.8201,8.8201,8.8111,8.5937,8.4864,8.4732,8.4732,8.5395,8.6414,8.6536,8.7187,8.8088,8.7008,8.6096,8.516,8.3253,8.2071,8.1317,8.0479,8.0209,8.0209,8.0209,8.0209,8.0209,8.0209,8.0209,8.0209,8.0209,8.0209,8.0476,8.1709,8.1968,8.1956,8.2211,8.2072,8.164,8.0659,8.0385,8.0401,8.0492,8.1495,8.2291,8.2221,8.4077,8.554,8.5468,8.6338,8.6978,8.6978,8.6978,8.6978,8.6978,8.6978,8.6978,8.6978,8.6978,8.6978,8.6978,8.6978,8.6978,8.6978,8.6978,8.6978,8.6978,8.6978,8.6978,8.6978,8.6978,8.6978,8.6978,8.6978,8.6978,5.2216,5.6702,6.225,6.768,7.369,7.9091,8.241,8.3271,8.3858,8.5453,8.55,8.5541,8.6557,8.6241,8.5918,8.6333,8.721,8.7905,8.8051,8.8981,8.973,8.9913,9.0464,9.0849,9.0849,9.1436,9.1803,9.1803,9.0676,9.0404,9.1379,9.0503,8.9883,8.962,8.9883,8.9432,8.8201,8.8201,8.8201,8.8201,8.8201,8.8201,8.8178,8.7654,8.6913,8.6003,8.6003,8.6177,8.6488,8.7422,8.7975,8.8178,8.7906,8.7141,8.5974,8.4391,8.3111,8.1968,8.0648,8.0209,8.0209,8.0209,8.0209,8.0209,8.0209,8.0209,8.0209,8.0209,8.0209,8.0603,8.2389,8.2349,8.243,8.4616,8.3468,8.1978,8.2328,8.1935,8.1793,8.2683,8.4273,8.5289,8.468,8.6238,8.7356,8.6716,8.6856,8.6978,8.6978,8.6978,8.6978,8.6978,8.6978,8.6978,8.6978,8.6978,8.6978,8.6978,8.6978,8.6978,8.6978,8.6978,8.6978,8.6978,8.6978,8.6978,8.6978,8.6978,8.6978,8.6978,8.6978,8.6978,5.3821,5.8872,6.4621,7.1835,7.6773,8.022,8.1893,8.2553,8.3177,8.4389,8.527,8.593,8.6334,8.6738,8.6978,8.6978,8.7344,8.7766,8.8133,8.8573,8.8959,8.9363,8.9767,9.0024,9.0024,9.0408,9.0665,9.0665,9.006,8.9759,8.9835,8.9241,8.8907,8.8907,8.8907,8.8867,8.8786,8.8786,8.8786,8.8786,8.9183,8.9564,8.9883,8.871,8.7861,8.7234,8.7234,8.7374,8.7612,8.8242,8.858,8.8726,8.8153,8.7542,8.6681,8.4437,8.3245,8.253,8.1391,8.1014,8.1014,8.1014,8.1254,8.1439,8.0885,8.0953,8.1257,8.1257,8.0987,8.118,8.3114,8.3473,8.3818,8.6011,8.442,8.2801,8.4155,8.3392,8.2766,8.3937,8.5105,8.5783,8.537,8.6593,8.7472,8.7051,8.7325,8.7435,8.7051,8.7362,8.7435,8.7014,8.6978,8.6978,8.6978,8.6978,8.6978,8.6978,8.6978,8.6978,8.6978,8.6978,8.6978,8.6978,8.6978,8.6978,8.6978,8.6978,8.6978,8.6978,8.6978,8.6978,5.4909,6.108,6.7527,7.6056,7.8883,7.9816,8.0608,8.1415,8.2186,8.283,8.4278,8.5416,8.5563,8.6261,8.6811,8.6811,8.6904,8.7234,8.7912,8.7986,8.8243,8.8923,8.9106,8.9179,8.9179,8.9326,8.94,8.94,8.94,8.8984,8.8049,8.799,8.799,8.799,8.799,8.8353,8.9112,8.9274,8.9202,8.8801,8.9679,9.0466,9.1033,8.9225,8.8368,8.8277,8.8171,8.8306,8.8598,8.883,8.9085,8.9274,8.8315,8.7778,8.7236,8.4354,8.3323,8.3172,8.2222,8.2037,8.2175,8.1968,8.2535,8.3089,8.1971,8.2266,8.2972,8.2752,8.2402,8.2511,8.4246,8.5003,8.5728,8.7522,8.5905,8.4444,8.6124,8.4987,8.3974,8.5159,8.5598,8.5835,8.5999,8.6793,8.7381,8.7234,8.7766,8.7949,8.7271,8.7655,8.7729,8.7051,8.6978,8.6978,8.6978,8.6978,8.6978,8.6978,8.6978,8.6978,8.6978,8.6978,8.6978,8.6978,8.6978,8.6978,8.6978,8.6978,8.6978,8.6978,8.6978,8.7051,4.9371,5.8087,6.7944,7.4735,7.7598,7.8956,7.9779,8.0571,8.1195,8.1305,8.2574,8.3931,8.4646,8.5416,8.5967,8.5967,8.6554,8.7014,8.7124,8.7178,8.7198,8.7308,8.7949,8.8353,8.8353,8.8996,8.94,8.94,8.94,8.9346,8.9184,8.9184,8.9184,8.9184,8.9184,8.8782,8.7952,8.8929,8.8427,8.646,8.7553,8.8132,8.8261,8.8943,8.9025,8.866,8.7976,8.7697,8.7844,8.8891,8.9348,8.9382,8.922,8.8522,8.7337,8.5316,8.4537,8.4234,8.2488,8.2549,8.3212,8.2244,8.3118,8.434,8.3206,8.4123,8.53,8.4223,8.4647,8.5582,8.6479,8.7015,8.7992,9.0569,8.957,8.81,8.8352,8.7176,8.6371,8.7541,8.7794,8.8012,8.8744,8.898,8.8849,8.8133,8.8133,8.8169,8.8059,8.7509,8.7124,8.7014,8.6978,8.6978,8.6978,8.6978,8.6978,8.6978,8.6978,8.6978,8.6978,8.6978,8.6978,8.6978,8.6978,8.6978,8.6978,8.6978,8.6978,8.6978,8.6978,8.7362,5.2054,5.9102,6.6206,7.3582,7.6313,7.7524,7.8809,7.9727,8.0314,8.0314,8.0901,8.1893,8.3601,8.4609,8.5123,8.5123,8.5783,8.6187,8.571,8.6427,8.6848,8.6371,8.7031,8.7545,8.7545,8.7858,8.8042,8.8042,8.8042,8.7775,8.7138,8.7119,8.7119,8.7119,8.6497,8.6207,8.6344,8.6207,8.5867,8.5336,8.6459,8.7266,8.7703,8.8399,8.8873,8.9107,8.8742,8.836,8.7997,8.8506,8.8445,8.8042,8.8042,8.774,8.7102,8.5634,8.5054,8.4937,8.4071,8.413,8.4543,8.4498,8.5362,8.6243,8.5547,8.6217,8.7143,8.6623,8.6556,8.6934,8.8342,8.8526,8.8951,9.1253,9.1105,9.0474,9.0474,8.9049,8.799,8.8744,8.85,8.8463,8.9253,8.94,8.929,8.8923,8.8849,8.872,8.8243,8.7876,8.7509,8.7051,8.6978,8.6978,8.6978,8.6978,8.6978,8.6978,8.6978,8.7198,8.7655,8.7655,8.7876,8.8335,8.7455,8.6978,8.6978,8.6978,8.6978,8.7014,8.7472,8.7876,5.2573,5.7441,6.1738,6.9797,7.3076,7.4848,7.687,7.8295,7.9213,7.9449,7.9669,8.0367,8.215,8.3324,8.4058,8.4278,8.4976,8.527,8.4682,8.5637,8.6187,8.5563,8.604,8.6407,8.6407,8.6591,8.6701,8.6701,8.6867,8.6643,8.5787,8.575,8.575,8.575,8.4633,8.4309,8.4852,8.3436,8.3186,8.4102,8.5207,8.6093,8.6693,8.7228,8.794,8.8776,8.8776,8.8445,8.7912,8.7912,8.7545,8.6978,8.6978,8.6978,8.6873,8.5731,8.5487,8.5676,8.541,8.5487,8.5766,8.6097,8.7042,8.7946,8.7413,8.81,8.9071,8.8812,8.8535,8.8553,8.9683,8.9794,9.0008,9.1455,9.1803,9.173,9.1546,9.0331,8.9352,8.966,8.9234,8.9014,8.9583,8.9877,8.995,8.973,8.9693,8.94,8.861,8.8316,8.7876,8.7088,8.6978,8.7088,8.7271,8.7124,8.7161,8.7565,8.7418,8.7692,8.8463,8.85,8.8793,8.94,8.8225,8.7601,8.7601,8.7601,8.7601,8.7601,8.8243,8.861,4.5838,4.9549,5.3445,6.1409,6.6472,7.0262,7.3259,7.5763,7.7656,7.8479,7.9265,7.9853,7.9963,8.1285,8.2553,8.3344,8.4132,8.4646,8.4609,8.4682,8.4719,8.4682,8.4719,8.4719,8.4719,8.5416,8.5857,8.5857,8.6591,8.696,8.6908,8.6908,8.6908,8.6908,8.5806,8.4713,8.3706,8.1474,8.0951,8.2084,8.3204,8.3777,8.3854,8.496,8.6063,8.7124,8.7124,8.7088,8.7051,8.7051,8.7014,8.6978,8.6978,8.6978,8.6873,8.5731,8.5991,8.6749,8.5657,8.6009,8.6731,8.5711,8.7137,8.9112,8.8007,8.9535,9.1379,9.0244,9.0735,9.1306,9.0284,9.0832,9.1675,9.1803,9.1803,9.1583,9.0849,9.0575,9.052,9.0537,9.0501,9.0482,9.0537,9.1179,9.1436,9.0665,9.0555,9.0244,8.9436,8.8683,8.7876,8.7088,8.6978,8.7325,8.8059,8.7435,8.7638,8.9179,8.8573,8.85,8.929,8.9326,8.9363,8.94,8.9326,8.929,8.929,8.929,8.929,8.929,8.9326,8.973,4.437,0.0,0.0,5.8097,6.2837,6.6601,6.9224,7.2899,7.5858,7.6151,7.7304,7.8369,7.8919,8.0351,8.1525,8.1819,8.2977,8.3417,8.221,8.3502,8.4132,8.2937,8.3866,8.4609,8.4609,8.4866,8.5013,8.5013,8.5783,8.6224,8.6224,8.6738,8.6978,8.6978,8.588,8.4411,8.2527,8.0966,8.078,8.1898,8.23,8.2906,8.3585,8.4041,8.4431,8.4868,8.5582,8.632,8.6978,8.6978,8.6978,8.6978,8.6978,8.6978,8.6943,8.6536,8.6661,8.7016,8.712,8.741,8.786,8.8509,8.935,9.019,9.03,9.1033,9.1694,9.1267,9.1454,9.1694,9.1267,9.1472,9.1803,9.1803,9.1803,9.173,9.1436,9.0959,9.0739,9.1253,9.0959,9.0776,9.1289,9.162,9.1693,9.14,9.0922,9.0501,9.0207,8.9473,8.8849,8.8556,8.8556,8.8666,8.8959,8.8702,8.8776,8.9363,8.9143,8.9326,9.0134,9.017,9.0391,9.0922,9.0959,9.0445,8.94,8.94,8.94,8.94,8.9913,9.0317,4.2029,0.0,0.0,0.0,5.7857,6.0992,6.6143,6.9779,7.2518,7.4147,7.5784,7.7142,7.8002,7.9286,8.0277,8.0534,8.1489,8.1862,8.0849,8.226,8.3034,8.2066,8.3044,8.3801,8.3801,8.4058,8.4205,8.4205,8.5196,8.58,8.58,8.6554,8.6802,8.6464,8.5676,8.4191,8.1922,8.1149,8.0966,8.1331,8.1723,8.2312,8.3038,8.3038,8.3256,8.3663,8.4411,8.5391,8.6464,8.6856,8.6978,8.6978,8.6978,8.6978,8.7014,8.7325,8.7399,8.7545,8.8316,8.861,8.8793,8.984,9.0391,9.0702,9.1253,9.1583,9.1803,9.1803,9.1803,9.1803,9.1803,9.1803,9.1803,9.1803,9.1803,9.1803,9.1803,9.1363,9.1179,9.1693,9.1363,9.1179,9.1693,9.1803,9.1803,9.1803,9.1363,9.0922,9.0629,9.0134,8.9693,8.9436,8.94,8.951,8.9767,8.9546,8.962,9.017,8.995,9.017,9.0959,9.0996,9.1253,9.1803,9.1803,9.1253,9.0207,9.0207,9.0207,9.0207,9.0739,9.0996,0.0,0.0,0.0,0.0,0.0,0.0,6.3742,0.0,6.7614,7.2473,7.4735,7.6114,7.7001,7.7882,7.8725,7.9496,7.9695,8.0025,8.0816,8.0927,8.1236,8.2007,8.2133,8.215,8.2186,8.292,8.3344,8.3344,8.4829,8.5764,8.5747,8.6554,8.65,8.541,8.5297,8.4232,8.2014,8.1968,8.1403,8.0301,8.1379,8.1898,8.1898,8.1886,8.2436,8.3514,8.3578,8.4248,8.5317,8.6518,8.6978,8.6978,8.6978,8.7014,8.7124,8.7912,8.8206,8.8353,8.9143,8.9436,8.9436,8.9473,8.9987,9.0629,9.0629,9.1179,9.1803,9.1803,9.1803,9.1803,9.1803,9.1803,9.1803,9.1803,9.1803,9.1803,9.1803,9.1803,9.1803,9.1803,9.1803,9.1803,9.1803,9.1803,9.1803,9.1803,9.1803,9.151,9.0739,9.0629,9.0317,8.9546,8.9473,8.9803,9.0592,8.9913,9.0134,9.1693,9.1069,9.0996,9.1767,9.1803,9.1803,9.1803,9.1803,9.1803,9.1803,9.1803,9.1803,9.1803,9.1803,9.1803,3.9835,0.0,0.0,0.0,0.0,0.0,0.0,5.8253,6.1741,6.6623,6.8898,7.0783,7.3239,7.478,7.5559,7.5119,7.705,7.8714,7.8933,7.895,7.9258,8.0075,8.0838,8.1562,8.215,8.2406,8.2517,8.2517,8.3471,8.4315,8.4903,8.6261,8.6873,8.6536,8.575,8.5006,8.4391,8.3522,8.2972,8.2639,8.2152,8.1898,8.1852,8.1063,8.0819,8.1222,8.2883,8.379,8.4227,8.6192,8.6978,8.6978,8.6978,8.7362,8.7876,8.8133,8.8573,8.9179,8.9987,9.028,9.0354,9.0959,9.1289,9.1473,9.1473,9.162,9.1803,9.1803,9.1803,9.1803,9.1803,9.1803,9.1803,9.1803,9.1803,9.1803,9.1803,9.1803,9.1803,9.1803,9.1803,9.1803,9.1803,9.1803,9.1803,9.1803,9.1803,9.173,9.151,9.1473,9.1363,9.1179,9.1143,9.1216,9.1436,9.1253,9.1326,9.1767,9.1583,9.1583,9.1803,9.1803,9.1803,9.1803,9.1803,9.1803,9.1803,9.1803,9.1803,9.1803,9.1803,9.1803,4.1854,4.324,0.0,0.0,0.0,0.0,5.3004,5.528,5.807,6.3649,6.6072,6.7955,7.0417,7.1889,7.275,7.2777,7.4685,7.6545,7.7555,7.8082,7.8683,7.9466,8.0117,8.0828,8.1636,8.1709,8.1819,8.215,8.2957,8.3748,8.4572,8.582,8.6518,8.6518,8.6173,8.5787,8.5297,8.4633,8.4083,8.36,8.2928,8.2616,8.2571,8.1933,8.164,8.1699,8.3522,8.4309,8.4452,8.6265,8.6978,8.7014,8.7362,8.7802,8.828,8.894,8.9491,9.0024,9.0812,9.1106,9.1179,9.1657,9.1803,9.1803,9.1803,9.1803,9.1803,9.1803,9.1803,9.1803,9.1803,9.1803,9.1803,9.1803,9.1803,9.1803,9.1803,9.1803,9.1803,9.1803,9.1803,9.1803,9.1803,9.1803,9.1803,9.1803,9.1803,9.1803,9.1803,9.1803,9.1803,9.1803,9.1803,9.1803,9.1803,9.1803,9.1803,9.1803,9.1803,9.1803,9.1803,9.1803,9.1803,9.1803,9.1803,9.1803,9.1803,9.1803,9.1803,9.1803,9.1803,9.1803,4.4754,4.5489,0.0,0.0,4.7609,0.0,5.4095,5.4693,5.5537,0.0,6.3759,6.5312,6.7199,6.8394,6.9515,7.0638,7.2047,7.393,7.649,7.7688,7.8642,7.9543,7.9669,8.0,8.0791,8.0865,8.1195,8.2003,8.2884,8.3711,8.4425,8.5233,8.5673,8.5673,8.6444,8.6372,8.5361,8.5451,8.4927,8.3811,8.3811,8.3713,8.3621,8.3621,8.3621,8.3649,8.4793,8.5297,8.541,8.6536,8.6978,8.7051,8.7802,8.8133,8.839,8.9931,9.0519,9.0739,9.151,9.1803,9.1803,9.1803,9.1803,9.1803,9.1803,9.1803,9.1803,9.1803,9.1803,9.1803,9.1803,9.1803,9.1803,9.1803,9.1803,9.1803,9.1803,9.1803,9.1803,9.1803,9.1803,9.1803,9.1803,9.1803,9.1803,9.1803,9.1803,9.1803,9.1803,9.1803,9.1803,9.1803,9.1803,9.1803,9.1803,9.1803,9.1803,9.1803,9.1803,9.1803,9.1803,9.1803,9.1803,9.1803,9.1803,9.1803,9.1803,9.1803,9.1803,9.1803,9.1803,9.1803,4.9994,5.0545,5.1269,4.9077,0.0,0.0,4.871,4.9344,5.1069,0.0,5.3628,5.4934,5.8378,6.1198,6.2874,6.2376,6.6896,7.1788,7.5498,7.6193,7.6977,7.8621,7.8809,7.914,7.9963,8.0036,8.0351,8.1158,8.2574,8.3454,8.3638,8.4389,8.4829,8.4829,8.56,8.5918,8.5708,8.6349,8.6083,8.4986,8.4986,8.4492,8.3621,8.3621,8.3621,8.3649,8.4793,8.5297,8.541,8.6536,8.6978,8.7014,8.7161,8.7619,8.8316,8.929,9.0024,9.0739,9.151,9.1803,9.1803,9.1803,9.1803,9.1803,9.1803,9.1803,9.1803,9.1803,9.1803,9.1803,9.1803,9.1803,9.1803,9.1803,9.1803,9.1803,9.1803,9.1803,9.1803,9.1803,9.1803,9.1803,9.1803,9.1803,9.1803,9.1803,9.1803,9.1803,9.1803,9.1803,9.1803,9.1803,9.1803,9.1803,9.1803,9.1803,9.1803,9.1803,9.1803,9.1803,9.1803,9.1803,9.1803,9.1803,9.1803,9.1803,9.1803,9.1803,9.1803,9.1803,9.1803,9.1803,5.3692,5.3395,5.3849,5.2601,0.0,0.0,0.0,5.0445,5.0875,5.3298,5.2527,5.2375,5.5534,5.7387,5.8665,5.9285,6.3992,6.8224,7.0125,7.3277,7.5687,7.6634,7.7121,7.7671,7.8479,7.8956,7.9543,8.0351,8.1525,8.2207,8.2207,8.3361,8.4005,8.4005,8.5159,8.58,8.58,8.6591,8.6714,8.6138,8.6138,8.5843,8.5295,8.5295,8.5295,8.5334,8.588,8.6138,8.6211,8.7206,8.7619,8.7655,8.8042,8.8666,8.9491,9.0298,9.0849,9.1253,9.1657,9.1803,9.1803,9.1803,9.1803,9.1803,9.1803,9.1803,9.1803,9.1803,9.1803,9.1803,9.1803,9.1803,9.1803,9.1803,9.1803,9.1803,9.1803,9.1803,9.1803,9.1803,9.1803,9.1803,9.1803,9.1803,9.1803,9.1803,9.1803,9.1803,9.1803,9.1803,9.1803,9.1803,9.1803,9.1803,9.1803,9.1803,9.1803,9.1803,9.1803,9.1803,9.1803,9.1803,9.1803,9.1803,9.1803,9.1803,9.1803,9.1803,9.1803,9.1803,9.1803,9.1803,0.0,0.0,0.0,0.0,0.0,5.426,0.0,0.0,0.0,5.4425,5.3004,5.1877,0.0,0.0,0.0,5.6832,0.0,0.0,0.0,6.861,0.0,7.3017,7.433,7.5372,7.5873,7.6438,7.7526,7.9433,7.9338,7.9725,8.0922,8.2207,8.3014,8.3161,8.4719,8.5563,8.5563,8.6518,8.6978,8.6978,8.6978,8.6978,8.6978,8.6978,8.6978,8.7014,8.7178,8.7234,8.7271,8.8096,8.8536,8.872,8.9216,8.9803,9.0464,9.1253,9.1583,9.1583,9.173,9.1803,9.1803,9.1803,9.1803,9.1803,9.1803,9.1803,9.1803,9.1803,9.1803,9.1803,9.1803,9.1803,9.1803,9.1803,9.1803,9.1803,9.1803,9.1803,9.1803,9.1803,9.1803,9.1803,9.1803,9.1803,9.1803,9.1803,9.1803,9.1803,9.1803,9.1803,9.1803,9.1803,9.1803,9.1803,9.1803,9.1803,9.1803,9.1803,9.1803,9.1803,9.1803,9.1803,9.1803,9.1803,9.1803,9.1803,9.1803,9.1803,9.1803,9.1803,9.1803,9.1803,0.0,0.0,0.0,0.0,5.941,0.0,0.0,0.0,5.204,4.8837,0.0,0.0,0.0,0.0,0.0,0.0,0.0,0.0,5.6855,6.0982,6.4725,6.6214,6.9624,7.1604,7.107,7.0499,7.2556,7.8301,7.4968,7.5087,8.0686,8.1158,8.1599,8.2296,8.3911,8.4756,8.4756,8.6261,8.6978,8.6978,8.6978,8.6978,8.6978,8.6978,8.6978,8.7014,8.7766,8.8059,8.8133,8.8923,8.9657,9.0262,8.9657,8.9473,8.962,9.0427,9.0739,9.0849,9.1546,9.1803,9.1803,9.1803,9.1803,9.1803,9.1803,9.1803,9.1803,9.1803,9.1803,9.1803,9.1803,9.1803,9.1803,9.1803,9.1803,9.1803,9.1803,9.1803,9.1803,9.1803,9.1803,9.1803,9.1803,9.1803,9.1803,9.1803,9.1803,9.1803,9.1803,9.1803,9.1803,9.1803,9.1803,9.1803,9.1803,9.1803,9.1803,9.1803,9.1803,9.1803,9.1803,9.1803,9.1803,9.1803,9.1803,9.1803,9.1803,9.1803,9.1803,9.1803,9.1803,9.1803,0.0,0.0,0.0,0.0,0.0,0.0,5.4346,0.0,5.1599,0.0,0.0,0.0,0.0,0.0,0.0,0.0,5.2354,0.0,0.0,0.0,5.9394,6.3398,0.0,6.6407,6.796,6.8641,7.0492,7.4081,7.2951,7.3888,7.7949,7.9947,8.1158,8.1489,8.3067,8.4132,8.4609,8.5747,8.6554,8.6978,8.6978,8.6978,8.6978,8.6978,8.6978,8.7014,8.7839,8.8206,8.8316,8.9546,9.028,9.0629,9.0739,9.0812,9.0849,9.1179,9.1289,9.1326,9.1693,9.1803,9.1803,9.1803,9.1803,9.1803,9.1803,9.1803,9.1803,9.1803,9.1803,9.1803,9.1803,9.1803,9.1803,9.1803,9.1803,9.1803,9.1803,9.1803,9.1803,9.1803,9.1803,9.1803,9.1803,9.1803,9.1803,9.1803,9.1803,9.1803,9.1803,9.1803,9.1803,9.1803,9.1803,9.1803,9.1803,9.1803,9.1803,9.1803,9.1803,9.1803,9.1803,9.1803,9.1803,9.1803,9.1803,9.1803,9.1803,9.1803,9.1803,9.1803,9.1803,9.1803,6.8385,0.0,0.0,0.0,0.0,0.0,0.0,0.0,0.0,0.0,0.0,0.0,0.0,0.0,0.0,0.0,0.0,5.1032,0.0,5.1132,0.0,0.0,0.0,0.0,6.526,6.5428,6.6792,7.0375,6.9786,7.1274,7.5873,7.8589,8.0314,8.0975,8.2574,8.3675,8.4278,8.527,8.6077,8.6664,8.6867,8.6978,8.6978,8.6978,8.6978,8.7051,8.8096,8.8536,8.8647,9.0262,9.0922,9.0996,9.1583,9.1803,9.1803,9.1803,9.1803,9.1803,9.1803,9.1803,9.1803,9.1803,9.1803,9.1803,9.1803,9.1803,9.1803,9.1803,9.1803,9.1803,9.1803,9.1803,9.1803,9.1803,9.1803,9.1803,9.1803,9.1803,9.1803,9.1803,9.1803,9.1803,9.1803,9.1803,9.1803,9.1803,9.1803,9.1803,9.1803,9.1803,9.1803,9.1803,9.1803,9.1803,9.1803,9.1803,9.1803,9.1803,9.1803,9.1803,9.1803,9.1803,9.1803,9.1803,9.1803,9.1803,9.1803,9.1803,9.1803,9.1803,9.1803,9.1803,0.0,0.0,0.0,6.2497,0.0,0.0,0.0,0.0,5.6288,0.0,0.0,0.0,0.0,0.0,0.0,0.0,0.0,0.0,0.0,0.0,0.0,0.0,0.0,0.0,0.0,5.8918,5.9838,6.8344,6.408,6.5459,7.5549,7.6922,7.8537,8.0938,8.2574,8.3418,8.3454,8.5013,8.582,8.5874,8.6628,8.6978,8.6978,8.6978,8.6978,8.7088,8.8666,8.9363,8.9473,9.1106,9.1767,9.1767,9.1803,9.1803,9.1803,9.1803,9.1803,9.1803,9.1803,9.1803,9.1803,9.1803,9.1803,9.1803,9.1803,9.1803,9.1803,9.1803,9.1803,9.1803,9.1803,9.1803,9.1803,9.1803,9.1803,9.1803,9.1803,9.1803,9.1803,9.1803,9.1803,9.1803,9.1803,9.1803,9.1803,9.1803,9.1803,9.1803,9.1803,9.1803,9.1803,9.1803,9.1803,9.1803,9.1803,9.1803,9.1803,9.1803,9.1803,9.1803,9.1803,9.1803,9.1803,9.1803,9.1803,9.1803,9.1803,9.1803,9.1803,9.1803,9.1803,9.1803,7.3613,7.4609,7.3982,6.6836,0.0,0.0,0.0,0.0,0.0,0.0,0.0,0.0,0.0,0.0,0.0,0.0,0.0,0.0,0.0,0.0,0.0,0.0,0.0,0.0,0.0,0.0,5.8944,6.2964,6.3557,6.6655,7.3362,7.6004,7.817,8.0131,8.1269,8.2317,8.3381,8.4462,8.527,8.58,8.6628,8.6978,8.6978,8.6978,8.6978,8.7088,8.8702,8.94,8.951,9.1143,9.1803,9.1803,9.1803,9.1803,9.1803,9.1803,9.1803,9.1803,9.1803,9.1803,9.1803,9.1803,9.1803,9.1803,9.1803,9.1803,9.1803,9.1803,9.1803,9.1803,9.1803,9.1803,9.1803,9.1803,9.1803,9.1803,9.1803,9.1803,9.1803,9.1803,9.1803,9.1803,9.1803,9.1803,9.1803,9.1803,9.1803,9.1803,9.1803,9.1803,9.1803,9.1803,9.1803,9.1803,9.1803,9.1803,9.1803,9.1803,9.1803,9.1803,9.1803,9.1803,9.1803,9.1803,9.1803,9.1803,9.1803,9.1803,9.1803,9.1803,9.1803,9.1803,7.4619,7.5502,7.505,6.9737,6.7846,0.0,5.8838,0.0,5.9436,0.0,0.0,0.0,0.0,0.0,0.0,0.0,0.0,0.0,0.0,4.5562,0.0,0.0,0.0,0.0,0.0,0.0,5.6381,5.971,6.1655,6.5191,0.0,7.428,7.7047,7.9302,8.0424,8.1636,8.2957,8.4058,8.4866,8.538,8.6481,8.6978,8.6978,8.6978,8.6978,8.7088,8.8702,8.94,8.951,9.1143,9.1803,9.1803,9.1803,9.1803,9.1803,9.1803,9.1803,9.1803,9.1803,9.1803,9.1803,9.1803,9.1803,9.1803,9.1803,9.1803,9.1803,9.1803,9.1803,9.1803,9.1803,9.1803,9.1803,9.1803,9.1803,9.1803,9.1803,9.1803,9.1803,9.1803,9.1803,9.1803,9.1803,9.1803,9.1803,9.1803,9.1803,9.1803,9.1803,9.1803,9.1803,9.1803,9.1803,9.1803,9.1803,9.1803,9.1803,9.1803,9.1803,9.1803,9.1803,9.1803,9.1803,9.1803,9.1803,9.1803,9.1803,9.1803,9.1803,9.1803,9.1803,9.1803]}]]